[[{"header":{"parameterUnit":"m.s-1","parameterCategory":1,"la1":31.0,"la2":29.5877,"lo1":-88.7671,"lo2":-86.6584,"dx":0.0162,"dy":0.0185,"nx":115,"ny":88,"refTime":"2022-11-08T06:00:00:Z","depth":0,"parameterNumber":2,"parameterNumberName":"U-component_of_WINDS"},"data":[0.0,0.0,0.0,0.0,0.0,0.0,0.0,0.0,0.0,0.0,0.0,0.0,0.0,0.0,0.0,0.0,0.0,0.0,0.0,0.0,0.0,0.0,0.0,0.0,0.0,0.0,0.0,0.0,0.0,0.0,0.0,0.0,0.0,0.0,0.0,0.0,0.0,0.0,0.0,0.0,0.0,0.0,0.0,0.0,0.0,0.0,0.0,0.0,0.0,0.0,0.0,0.0,0.0,0.0,0.0,0.0,0.0,0.0,0.0,0.0,0.0,0.0,0.0,0.0,0.0,0.0,0.0,0.0,0.0,0.0,0.0,0.0,0.0,0.0,0.0,0.0,0.0,0.0,0.0,0.0,0.0,0.0,0.0,0.0,0.0,0.0,0.0,0.0,0.0,0.0,0.0,0.0,0.0,0.0,0.0,0.0,0.0,0.0,0.0,0.0,0.0,0.0,0.0,0.0,0.0,0.0,0.0,0.0,0.0,0.0,0.0,0.0,0.0,0.0,0.0,0.0,0.0,0.0,0.0,0.0,0.0,0.0,0.0,0.0,0.0,0.0,0.0,0.0,0.0,0.0,0.0,0.0,0.0,0.0,0.0,0.0,0.0,0.0,0.0,0.0,0.0,0.0,0.0,0.0,0.0,0.0,0.0,0.0,0.0,0.0,0.0,0.0,0.0,0.0,0.0,0.0,0.0,0.0,0.0,0.0,0.0,0.0,0.0,0.0,0.0,0.0,0.0,0.0,0.0,0.0,0.0,0.0,0.0,0.0,0.0,0.0,0.0,0.0,0.0,0.0,0.0,0.0,0.0,0.0,0.0,0.0,0.0,0.0,0.0,0.0,0.0,0.0,0.0,0.0,0.0,0.0,0.0,0.0,0.0,0.0,0.0,0.0,0.0,0.0,0.0,0.0,0.0,0.0,0.0,0.0,0.0,0.0,0.0,0.0,0.0,0.0,0.0,0.0,0.0,0.0,0.0,0.0,0.0,0.0,0.0,0.0,0.0,0.0,0.0,0.0,0.0,0.0,0.0,0.0,0.0,0.0,0.0,0.0,0.0,0.0,0.0,0.0,0.0,0.0,0.0,0.0,0.0,0.0,0.0,0.0,0.0,0.0,0.0,0.0,0.0,0.0,0.0,0.0,0.0,0.0,0.0,0.0,0.0,0.0,0.0,0.0,0.0,0.0,0.0,0.0,0.0,0.0,0.0,0.0,0.0,0.0,0.0,0.0,0.0,0.0,0.0,0.0,0.0,0.0,0.0,0.0,0.0,0.0,0.0,0.0,0.0,0.0,0.0,0.0,0.0,0.0,0.0,0.0,0.0,0.0,0.0,0.0,0.0,0.0,0.0,0.0,0.0,0.0,0.0,0.0,0.0,0.0,0.0,0.0,0.0,0.0,0.0,0.0,0.0,0.0,0.0,0.0,0.0,0.0,0.0,0.0,0.0,0.0,0.0,0.0,0.0,0.0,0.0,0.0,0.0,0.0,0.0,0.0,0.0,0.0,0.0,0.0,0.0,0.0,0.0,0.0,0.0,0.0,0.0,0.0,0.0,0.0,0.0,0.0,0.0,0.0,0.0,0.0,0.0,0.0,0.0,0.0,0.0,0.0,0.0,0.0,0.0,0.0,0.0,0.0,0.0,0.0,0.0,0.0,0.0,0.0,0.0,0.0,0.0,0.0,0.0,0.0,0.0,0.0,0.0,0.0,0.0,0.0,0.0,0.0,0.0,0.0,0.0,0.0,0.0,0.0,0.0,0.0,0.0,0.0,0.0,0.0,0.0,0.0,0.0,0.0,0.0,0.0,0.0,0.0,0.0,0.0,0.0,0.0,0.0,0.0,0.0,0.0,0.0,0.0,0.0,0.0,0.0,0.0,0.0,0.0,0.0,0.0,0.0,0.0,0.0,0.0,0.0,0.0,0.0,0.0,0.0,0.0,0.0,0.0,0.0,0.0,0.0,0.0,0.0,0.0,0.0,0.0,0.0,0.0,0.0,0.0,0.0,0.0,0.0,0.0,0.0,0.0,0.0,0.0,0.0,0.0,0.0,0.0,0.0,0.0,0.0,0.0,0.0,0.0,0.0,0.0,0.0,0.0,0.0,0.0,0.0,0.0,0.0,0.0,0.0,0.0,0.0,0.0,0.0,0.0,0.0,0.0,0.0,0.0,0.0,0.0,0.0,0.0,0.0,0.0,0.0,0.0,0.0,0.0,0.0,0.0,0.0,0.0,0.0,0.0,0.0,0.0,0.0,0.0,0.0,0.0,0.0,0.0,0.0,0.0,0.0,0.0,0.0,0.0,0.0,0.0,0.0,0.0,0.0,0.0,0.0,0.0,0.0,0.0,0.0,0.0,0.0,0.0,0.0,0.0,0.0,0.0,0.0,0.0,0.0,0.0,0.0,0.0,0.0,0.0,0.0,0.0,0.0,0.0,0.0,0.0,0.0,0.0,0.0,0.0,0.0,0.0,0.0,0.0,0.0,0.0,0.0,0.0,0.0,0.0,0.0,0.0,0.0,0.0,0.0,0.0,0.0,0.0,0.0,0.0,0.0,0.0,0.0,0.0,0.0,0.0,0.0,0.0,0.0,0.0,0.0,0.0,0.0,0.0,0.0,0.0,0.0,0.0,0.0,0.0,0.0,0.0,0.0,0.0,0.0,0.0,0.0,0.0,0.0,0.0,0.0,0.0,0.0,0.0,0.0,0.0,0.0,0.0,0.0,0.0,0.0,0.0,0.0,0.0,0.0,0.0,0.0,0.0,0.0,0.0,0.0,0.0,0.0,0.0,0.0,0.0,0.0,0.0,0.0,0.0,0.0,0.0,0.0,0.0,0.0,0.0,0.0,0.0,0.0,0.0,0.0,0.0,0.0,0.0,0.0,0.0,0.0,0.0,0.0,0.0,0.0,0.0,0.0,0.0,0.0,0.0,0.0,0.0,0.0,0.0,0.0,0.0,0.0,0.0,0.0,0.0,0.0,0.0,0.0,0.0,0.0,0.0,0.0,0.0,0.0,0.0,0.0,0.0,0.0,0.0,0.0,0.0,0.0,0.0,0.0,0.0,0.0,0.0,0.0,0.0,0.0,0.0,0.0,0.0,0.0,0.0,0.0,0.0,0.0,0.0,0.0,0.0,0.0,0.0,0.0,0.0,0.0,0.0,0.0,0.0,0.0,0.0,0.0,0.0,0.0,0.0,0.0,0.0,0.0,0.0,0.0,0.0,0.0,0.0,0.0,0.0,0.0,0.0,0.0,0.0,0.0,0.0,0.0,0.0,0.0,0.0,0.0,0.0,0.0,0.0,0.0,0.0,0.0,0.0,0.0,0.0,0.0,0.0,0.0,0.0,0.0,0.0,0.0,0.0,0.0,0.0,0.0,0.0,0.0,0.0,0.0,0.0,0.0,0.0,0.0,0.0,0.0,0.0,0.0,0.0,0.0,0.0,0.0,0.0,0.0,0.0,0.0,0.0,0.0,0.0,0.0,0.0,0.0,0.0,0.0,0.0,0.0,0.0,0.0,0.0,0.0,0.0,0.0,0.0,0.0,0.0,0.0,0.0,0.0,0.0,0.0,0.0,0.0,0.0,0.0,0.0,0.0,0.0,0.0,0.0,0.0,0.0,0.0,0.0,0.0,0.0,0.0,0.0,0.0,0.0,0.0,0.0,0.0,0.0,0.0,0.0,0.0,0.0,0.0,0.0,0.0,0.0,0.0,0.0,0.0,0.0,0.0,0.0,0.0,0.0,0.0,0.0,0.0,0.0,0.0,0.0,0.0,0.0,0.0,0.0,0.0,0.0,0.0,0.0,0.0,0.0,0.0,0.0,0.0,0.0,0.0,0.0,0.0,0.0,0.0,0.0,0.0,0.0,0.0,0.0,0.0,0.0,0.0,0.0,0.0,0.0,0.0,0.0,0.0,0.0,0.0,0.0,0.0,0.0,0.0,0.0,0.0,0.0,0.0,0.0,0.0,0.0,0.0,0.0,0.0,0.0,0.0,0.0,0.0,0.0,0.0,0.0,0.0,0.0,0.0,0.0,0.0,0.0,0.0,0.0,0.0,0.0,0.0,0.0,0.0,0.0,0.0,0.0,0.0,0.0,0.0,0.0,0.0,0.0,0.0,0.0,0.0,0.0,0.0,0.0,0.0,0.0,0.0,0.0,0.0,0.0,0.0,0.0,0.0,0.0,0.0,0.0,0.0,0.0,0.0,0.0,0.0,0.0,0.0,0.0,0.0,0.0,0.0,0.0,0.0,0.0,1.2833,0.0,0.0,0.0,1.0652,0.0,0.0,0.0,0.0,0.0,0.0,0.0,0.0,0.0,0.0,0.0,0.0,0.0,0.0,0.0,0.0,0.0,0.0,0.0,0.0,0.0,0.0,0.0,0.0,0.0,0.0,0.0,0.0,0.0,0.0,0.0,0.0,0.0,0.0,0.0,0.0,0.0,0.0,0.0,0.0,0.0,0.0,0.0,0.0,0.0,0.0,0.0,0.0,0.0,0.0,0.0,0.0,0.0,0.0,0.0,0.0,0.0,0.0,0.0,0.0,0.0,0.0,0.0,0.0,0.0,0.0,0.0,0.0,0.0,0.0,0.0,0.0,0.0,0.0,0.0,0.0,0.0,0.0,0.0,0.0,0.0,0.0,0.0,0.0,0.0,0.0,0.0,0.0,0.0,0.0,0.0,0.0,0.0,0.0,0.0,0.0,0.0,0.0,0.0,0.0,0.0,0.0,0.0,0.0,0.0,0.0,0.0,0.0,0.0,0.0,1.2882,1.2001,1.2302,1.189,1.0666,0.0,0.0,0.0,0.0,0.0,0.0,0.0,0.0,0.0,0.0,0.0,0.0,0.0,0.0,0.0,0.0,0.0,0.0,0.0,0.0,0.0,0.0,0.0,0.0,0.0,0.0,0.0,0.0,0.0,0.0,0.0,0.0,0.0,0.0,0.0,0.0,0.0,0.0,0.0,0.0,0.0,0.0,0.0,0.0,0.0,0.0,0.0,0.0,0.0,0.0,0.0,0.0,0.0,0.0,0.0,0.0,0.0,0.0,0.0,0.0,0.0,0.0,0.0,0.0,0.0,0.0,0.0,0.0,0.0,0.0,0.0,0.0,0.0,0.0,0.0,0.0,0.0,0.0,0.0,0.0,0.0,0.0,0.0,0.0,0.0,0.0,0.0,0.0,0.0,0.0,0.0,0.0,0.0,0.0,0.0,0.0,0.0,0.0,0.0,0.0,0.0,0.0,0.0,0.0,0.0,0.0,0.0,0.0,0.0,0.0,0.0,0.0,1.2701,1.2011,1.0392,0.0,0.0,0.0,0.0,0.0,0.0,0.0,0.0,0.0,0.0,0.0,0.0,0.0,0.0,0.0,0.0,0.0,0.0,0.0,0.0,0.0,0.0,0.0,0.0,0.0,0.0,0.0,0.0,0.0,0.0,0.0,0.0,0.0,0.0,0.0,0.0,0.0,0.0,0.0,0.0,0.0,0.0,0.0,0.0,0.0,0.0,0.0,0.0,0.0,0.0,0.0,0.0,0.0,0.0,0.0,0.0,0.0,0.0,0.0,0.0,0.0,0.0,0.0,0.0,0.0,0.0,0.0,0.0,0.0,0.0,0.0,0.0,0.0,0.0,0.0,0.0,0.0,0.0,0.0,0.0,0.0,0.0,0.0,0.0,0.0,0.0,0.0,0.0,0.0,0.0,0.0,0.0,0.0,0.0,0.0,0.0,0.0,0.0,0.0,0.0,0.0,0.0,0.0,0.0,0.0,0.0,0.0,0.0,0.0,0.0,1.2718,1.3791,1.2364,0.0,0.9356,0.0,0.0,0.0,0.0,0.0,0.0,0.0,0.0,0.0,0.0,0.0,0.0,0.0,0.0,0.0,0.0,0.0,0.0,0.0,0.0,0.0,0.0,0.0,0.0,0.0,0.0,0.0,0.0,0.0,0.0,0.0,0.0,0.0,0.0,0.0,0.0,0.0,0.0,0.0,0.0,0.0,0.0,0.0,0.0,0.0,0.0,0.0,0.0,0.0,0.0,0.0,0.0,0.0,0.0,0.0,0.0,0.0,0.0,0.0,0.0,0.0,0.0,0.0,0.0,0.0,0.0,0.0,0.0,0.0,0.0,0.0,0.0,0.0,0.0,0.0,0.0,0.0,0.0,0.0,0.0,0.0,0.0,0.0,0.0,0.0,0.0,0.0,0.0,0.0,0.0,0.0,0.0,0.0,0.0,0.0,0.0,0.0,0.0,0.0,0.0,0.0,0.0,0.0,0.0,0.0,0.0,0.0,0.0,0.0,0.0,1.3281,1.3932,1.2945,1.1583,0.0,0.0,0.0,0.0,0.0,0.0,0.0,0.0,0.0,0.0,0.0,0.0,0.0,0.0,0.0,0.0,0.0,0.0,0.0,0.0,0.0,0.0,0.0,0.0,0.0,0.0,0.0,0.0,0.0,0.0,0.0,0.0,0.0,0.0,0.0,0.0,0.0,0.0,0.0,0.0,0.0,0.0,0.0,0.0,0.0,0.0,0.0,0.0,0.0,0.0,0.0,0.0,0.0,0.0,0.0,0.0,0.0,0.0,0.0,0.0,0.0,0.0,0.0,0.0,0.0,0.0,0.0,0.0,0.0,0.0,0.0,0.0,0.0,0.0,0.0,0.0,0.0,0.0,0.0,0.0,0.0,0.0,0.0,0.0,0.0,0.0,0.0,0.0,0.0,0.0,0.0,0.0,0.0,0.0,0.0,0.0,0.0,0.0,0.0,0.0,0.0,0.0,0.0,0.0,0.0,0.0,0.0,0.0,0.0,0.0,1.3532,1.3809,1.3946,1.3542,1.2363,1.0417,0.0,0.0,0.0,0.0,0.0,0.0,0.0,0.0,0.0,0.0,0.0,0.0,0.0,0.0,0.0,0.0,0.0,0.0,0.0,0.0,0.0,0.0,0.0,0.0,0.0,0.0,0.0,0.0,0.0,0.0,0.0,0.0,0.0,0.0,0.0,0.0,0.0,0.0,0.0,0.0,0.0,0.0,0.0,0.0,0.0,0.0,0.0,0.0,0.0,0.0,0.0,0.0,0.0,0.0,0.0,0.0,0.0,0.0,0.0,0.0,0.0,0.0,0.0,0.0,0.0,0.0,0.0,0.0,0.0,0.0,0.0,0.0,0.0,0.0,0.0,0.0,0.0,0.0,0.0,0.0,0.0,0.0,0.0,0.0,0.0,0.0,0.0,0.0,0.0,0.0,0.0,0.0,0.0,0.0,0.0,0.0,0.0,0.0,0.0,0.0,0.0,0.0,0.0,0.0,0.0,0.0,0.0,0.0,1.5502,1.4613,1.4114,1.4196,1.3922,1.2729,0.0,0.0,0.0,0.0,0.0,0.0,0.0,0.0,0.0,0.0,0.0,0.0,0.0,0.0,0.0,0.0,0.0,0.0,0.0,0.0,0.0,0.0,0.0,0.0,0.0,0.0,0.0,0.0,0.0,0.0,0.0,0.0,0.0,0.0,0.0,0.0,0.0,0.0,0.0,0.0,0.0,0.0,0.0,0.0,0.0,0.0,0.0,0.0,0.0,0.0,0.0,0.0,0.0,0.0,0.0,0.0,0.0,0.0,0.0,0.0,0.0,0.0,0.0,0.0,0.0,0.0,0.0,0.0,0.0,0.0,0.0,0.0,0.0,0.0,0.0,0.0,0.0,0.0,0.0,0.0,0.0,0.0,0.0,0.0,0.0,0.0,0.0,0.0,0.0,0.0,0.0,0.0,0.0,0.0,0.0,0.0,0.0,0.0,0.0,0.0,0.0,0.0,0.0,0.0,0.0,0.0,0.0,0.0,0.0,1.3427,1.3749,1.4259,1.4897,1.3891,1.2783,0.0,0.0,0.0,0.0,0.0,0.0,0.0,0.0,0.0,0.0,0.0,0.0,0.0,0.0,0.0,0.0,0.0,0.0,0.0,0.0,0.0,0.0,0.0,0.0,0.0,0.0,0.0,0.0,0.0,0.0,0.0,0.0,0.0,0.0,0.0,0.0,0.0,0.0,0.0,0.0,0.0,0.0,0.0,0.0,0.0,0.0,0.0,0.0,0.0,0.0,0.0,0.0,0.0,0.0,0.0,0.0,0.0,0.0,0.0,0.0,0.0,0.0,0.0,0.0,0.0,0.0,0.0,0.0,0.0,0.0,0.0,0.0,0.0,0.0,0.0,0.0,0.0,0.0,0.0,0.0,0.0,0.0,0.0,0.0,0.0,0.0,0.0,0.0,0.0,0.0,0.0,0.0,0.0,0.0,0.0,0.0,0.0,0.0,0.0,0.0,0.0,0.0,0.0,0.0,0.0,0.0,0.0,0.0,0.0,1.3932,1.4905,1.5578,1.5787,1.4277,1.2971,0.0,0.0,0.0,0.0,0.0,0.0,0.0,0.0,0.0,0.0,0.0,0.0,0.0,0.0,0.0,0.0,0.0,0.0,0.0,0.0,0.0,0.0,0.0,0.0,0.0,0.0,0.0,0.0,0.0,0.0,0.0,0.0,0.0,0.0,0.0,0.0,0.0,0.0,0.0,0.0,0.0,0.0,0.0,0.0,0.0,0.0,0.0,0.0,0.0,0.0,0.0,0.0,0.0,0.0,0.0,0.0,0.0,0.0,0.0,0.0,0.0,0.0,0.0,0.0,0.0,0.0,0.0,0.0,0.0,0.0,0.0,0.0,0.0,0.0,0.0,0.0,0.0,0.0,0.0,0.0,0.0,0.0,0.0,0.0,0.0,0.0,0.0,0.0,0.0,0.0,0.0,0.0,0.0,0.0,0.0,0.0,0.0,0.0,0.0,0.0,0.0,0.0,0.0,0.0,0.0,0.0,0.0,0.0,1.4723,1.7511,1.8233,1.7907,1.6885,1.5133,1.3416,0.0,0.0,0.0,0.0,0.0,0.0,0.0,0.0,0.0,0.0,0.0,0.0,0.0,0.0,0.0,0.0,0.0,0.0,0.0,0.0,0.0,0.0,0.0,0.0,0.0,0.0,0.0,0.0,0.0,0.0,0.0,0.0,0.0,0.0,0.0,0.0,0.0,0.0,0.0,0.0,0.0,0.0,0.0,0.0,0.0,0.0,0.0,0.0,0.0,0.0,0.0,0.0,0.0,0.0,0.0,0.0,0.0,0.0,0.0,0.0,0.0,0.0,0.0,0.0,0.0,0.0,0.0,0.0,0.0,0.0,0.0,0.0,0.0,0.0,0.0,0.0,0.0,0.0,0.0,0.0,0.0,0.0,0.0,0.0,0.0,0.0,0.0,0.0,0.0,0.0,0.0,0.0,0.0,0.0,0.0,0.0,0.0,0.0,0.0,0.0,0.0,0.0,0.0,0.0,0.0,0.0,0.0,0.0,0.0,1.4477,1.6043,1.6622,1.6052,1.4753,1.3881,0.0,0.0,0.0,0.0,0.0,0.0,0.0,0.0,0.0,0.0,0.0,0.0,0.0,0.0,0.0,0.0,0.0,0.0,0.0,0.0,0.0,0.0,0.0,0.0,0.0,0.0,0.0,0.0,0.0,0.0,0.0,0.0,0.0,0.0,0.0,0.0,0.0,0.0,0.0,0.0,0.0,0.0,0.0,0.0,0.0,0.0,0.0,0.0,0.0,0.0,0.0,0.0,0.0,0.0,0.0,0.0,0.0,0.0,0.0,0.0,0.0,0.0,0.0,0.0,0.0,0.0,0.0,0.0,0.0,0.0,0.0,0.0,0.0,0.0,0.0,0.0,0.0,0.0,0.0,0.0,0.0,0.0,0.0,0.0,0.0,0.0,0.0,0.0,0.0,0.0,0.0,0.0,0.0,0.0,0.0,0.0,0.0,0.0,0.0,0.0,0.0,0.0,0.0,0.0,0.0,0.0,0.0,0.0,0.0,1.5088,1.695,1.7725,1.712,1.5713,1.4783,1.4399,0.0,0.0,0.0,0.0,0.0,0.0,0.0,0.0,0.0,0.0,0.0,0.0,0.0,0.0,0.0,0.0,0.0,0.0,0.0,0.0,0.0,0.0,0.0,0.0,0.0,0.0,0.0,0.0,0.0,0.0,0.0,0.0,0.0,0.0,0.0,0.0,0.0,0.0,0.0,0.0,0.0,0.0,0.0,0.0,0.0,0.0,0.0,0.0,0.0,0.0,0.0,0.0,0.0,0.0,0.0,0.0,0.0,0.0,0.0,0.0,0.0,0.0,0.0,0.0,0.0,0.0,0.0,0.0,0.0,0.0,0.0,0.0,0.0,0.0,0.0,0.0,0.0,0.0,0.0,0.0,0.0,0.0,0.0,0.0,0.0,0.0,0.0,0.0,0.0,0.0,0.0,0.0,0.0,0.0,0.0,0.0,0.0,0.0,0.0,0.0,0.0,0.0,0.0,0.0,0.0,0.0,0.0,0.0,1.8457,2.0393,2.0759,1.9482,1.7707,1.6035,0.0,0.0,0.0,0.0,0.0,0.0,0.0,0.0,0.0,0.0,0.0,0.0,0.0,0.0,0.0,0.0,0.0,0.0,0.0,0.0,0.0,0.0,0.0,0.0,0.0,0.0,0.0,0.0,0.0,0.0,0.0,0.0,0.0,0.0,0.0,0.0,0.0,0.0,0.0,0.0,0.0,0.0,0.0,0.0,0.0,0.0,0.0,0.0,0.0,0.0,0.0,0.0,0.0,0.0,0.0,0.0,0.0,0.0,0.0,0.0,0.0,0.0,0.0,0.0,0.0,0.0,0.0,0.0,0.0,0.0,0.0,0.0,0.0,0.0,0.0,0.0,0.0,0.0,0.0,0.0,0.0,0.0,0.0,0.0,0.0,0.0,0.0,0.0,0.0,0.0,0.0,0.0,0.0,0.0,0.0,0.0,0.0,0.0,0.0,0.0,0.0,0.0,0.0,0.0,0.0,0.0,0.0,0.0,0.0,2.0103,2.1304,2.1133,1.947,1.8324,1.7211,0.0,0.0,0.0,0.0,0.0,0.0,0.0,0.0,0.0,0.0,0.0,0.0,0.0,0.0,0.0,0.0,0.0,0.0,0.0,0.0,0.0,0.0,0.0,0.0,0.0,0.0,0.0,0.0,0.0,0.0,0.0,0.0,0.0,0.0,0.0,0.0,0.0,0.0,0.0,0.0,0.0,0.0,0.0,0.0,0.0,0.0,0.0,0.0,0.0,0.0,0.0,0.0,0.0,0.0,0.0,0.0,0.0,0.0,0.0,0.0,0.0,0.0,0.0,0.0,0.0,0.0,0.0,0.0,0.0,0.0,0.0,0.0,0.0,0.0,0.0,0.0,0.0,0.0,0.0,0.0,0.0,0.0,0.0,0.0,0.0,0.0,0.0,0.0,0.0,0.0,0.0,0.0,0.0,0.0,0.0,0.0,0.0,0.0,0.0,0.0,0.0,0.0,0.0,0.0,0.0,0.0,0.0,0.0,1.9891,2.1852,2.2165,2.1671,2.0369,1.9626,1.8561,0.0,0.0,0.0,0.0,0.0,0.0,0.0,0.0,0.0,0.0,0.0,0.0,0.0,0.0,0.0,0.0,0.0,0.0,0.0,0.0,0.0,0.0,0.0,0.0,0.0,0.0,0.0,0.0,0.0,0.0,0.0,0.0,0.0,0.0,0.0,0.0,0.0,0.0,0.0,0.0,0.0,0.0,0.0,0.0,0.0,0.0,0.0,0.0,0.0,0.0,0.0,0.0,0.0,0.0,0.0,0.0,0.0,0.0,0.0,0.0,0.0,0.0,0.0,0.0,0.0,0.0,0.0,0.0,0.0,0.0,0.0,0.0,0.0,0.0,0.0,0.0,0.0,0.0,0.0,0.0,0.0,0.0,0.0,0.0,0.0,0.0,0.0,0.0,0.0,0.0,0.0,0.0,0.0,0.0,0.0,0.0,0.0,0.0,0.0,0.0,0.0,0.0,0.0,0.0,0.0,0.0,0.0,0.0,2.204,2.3434,2.292,2.2346,2.1703,2.1106,1.9816,0.0,0.0,0.0,0.0,0.0,0.0,0.0,0.0,0.0,0.0,0.0,0.0,0.0,0.0,0.0,0.0,0.0,0.0,0.0,0.0,0.0,0.0,0.0,0.0,0.0,0.0,0.0,0.0,0.0,0.0,0.0,0.0,0.0,0.0,0.0,0.0,0.0,0.0,0.0,0.0,0.0,0.0,0.0,0.0,0.0,0.0,0.0,0.0,0.0,0.0,0.0,0.0,0.0,0.0,0.0,0.0,0.0,0.0,0.0,0.0,0.0,0.0,0.0,0.0,0.0,0.0,0.0,0.0,0.0,0.0,0.0,0.0,0.0,0.0,0.0,0.0,0.0,0.0,0.0,0.0,0.0,0.0,0.0,0.0,0.0,0.0,0.0,0.0,0.0,0.0,0.0,0.0,0.0,0.0,0.0,0.0,0.0,0.0,0.0,0.0,0.0,0.0,0.0,0.0,0.0,0.0,0.0,0.0,2.2346,2.38,2.3278,2.2783,2.2313,2.1284,1.9948,0.0,0.0,0.0,0.0,0.0,0.0,0.0,0.0,0.0,0.0,0.0,0.0,0.0,0.0,0.0,0.0,0.0,0.0,0.0,0.0,0.0,0.0,0.0,0.0,0.0,0.0,0.0,0.0,0.0,0.0,0.0,0.0,0.0,0.0,0.0,0.0,0.0,0.0,0.0,0.0,0.0,0.0,0.0,0.0,0.0,0.0,0.0,0.0,2.5246,0.0,0.0,0.0,0.0,0.0,0.0,0.0,0.0,0.0,0.0,0.0,0.0,0.0,0.0,0.0,0.0,0.0,0.0,0.0,0.0,0.0,0.0,0.0,0.0,0.0,0.0,0.0,0.0,0.0,0.0,0.0,0.0,0.0,0.0,0.0,0.0,0.0,0.0,0.0,0.0,0.0,0.0,0.0,0.0,0.0,0.0,0.0,0.0,0.0,0.0,0.0,0.0,0.0,0.0,0.0,0.0,0.0,0.0,0.0,2.3097,2.4161,2.378,2.3308,2.2785,2.1988,2.056,0.0,0.0,0.0,0.0,0.0,0.0,0.0,0.0,0.0,0.0,0.0,0.0,0.0,0.0,0.0,0.0,0.0,0.0,0.0,0.0,0.0,0.0,0.0,0.0,0.0,0.0,0.0,0.0,0.0,0.0,0.0,0.0,0.0,0.0,0.0,0.0,0.0,0.0,0.0,0.0,0.0,0.0,0.0,0.0,0.0,0.0,0.0,0.0,0.0,0.0,0.0,0.0,0.0,0.0,0.0,0.0,0.0,0.0,0.0,0.0,0.0,0.0,0.0,0.0,0.0,0.0,0.0,0.0,0.0,0.0,0.0,0.0,0.0,0.0,0.0,0.0,0.0,0.0,0.0,0.0,0.0,0.0,0.0,0.0,0.0,0.0,0.0,0.0,0.0,0.0,0.0,0.0,0.0,0.0,0.0,0.0,0.0,0.0,0.0,0.0,0.0,0.0,0.0,0.0,0.0,0.0,0.0,2.2521,2.3845,2.4549,2.4262,2.3838,2.3248,2.2797,2.133,1.8743,0.0,0.0,0.0,0.0,0.0,0.0,0.0,0.0,0.0,0.0,0.0,0.0,0.0,0.0,0.0,0.0,0.0,0.0,0.0,0.0,0.0,0.0,0.0,0.0,0.0,0.0,0.0,0.0,0.0,0.0,0.0,0.0,0.0,0.0,0.0,0.0,0.0,0.0,1.7634,2.1531,0.0,0.0,0.0,0.0,0.0,0.0,0.0,0.0,2.5803,0.0,0.0,0.0,0.0,0.0,0.0,0.0,0.0,0.0,0.0,0.0,0.0,0.0,0.0,0.0,0.0,0.0,0.0,0.0,0.0,0.0,0.0,0.0,0.0,0.0,0.0,0.0,0.0,0.0,0.0,0.0,0.0,0.0,0.0,0.0,0.0,0.0,0.0,0.0,0.0,0.0,0.0,0.0,0.0,0.0,0.0,0.0,0.0,0.0,0.0,0.0,0.0,0.0,0.0,0.0,0.0,2.2181,2.3051,2.3979,2.497,2.441,2.4004,2.3851,2.3258,2.1864,1.9674,0.0,0.0,0.0,0.0,0.0,0.0,0.0,0.0,0.0,0.0,0.0,0.0,0.0,0.0,0.0,0.0,0.0,0.0,0.0,0.0,0.0,0.0,0.0,0.0,0.0,0.0,0.0,0.0,0.0,0.0,0.0,0.0,0.0,0.0,0.0,0.0,0.0,0.0,0.0,2.2139,2.37,0.0,0.0,0.0,0.0,0.0,0.0,0.0,0.0,2.6689,0.0,0.0,0.0,0.0,0.0,0.0,0.0,0.0,0.0,0.0,0.0,0.0,0.0,0.0,0.0,0.0,0.0,0.0,0.0,0.0,0.0,0.0,0.0,0.0,0.0,0.0,0.0,0.0,0.0,0.0,0.0,0.0,0.0,0.0,0.0,0.0,0.0,0.0,0.0,0.0,0.0,0.0,0.0,0.0,0.0,0.0,0.0,0.0,0.0,0.0,0.0,0.0,0.0,0.0,0.0,2.2125,2.3535,2.451,2.5066,2.4931,2.4762,2.4578,2.4034,2.2664,0.0,0.0,0.0,0.0,0.0,0.0,0.0,0.0,0.0,0.0,0.0,0.0,0.0,0.0,0.0,0.0,0.0,0.0,0.0,0.0,0.0,0.0,0.0,0.0,0.0,0.0,0.0,0.0,0.0,0.0,0.0,0.0,0.0,0.0,0.0,0.0,0.0,0.0,0.0,0.0,2.2692,2.3998,2.5266,0.0,0.0,0.0,0.0,0.0,0.0,2.684,2.6311,0.0,0.0,0.0,0.0,0.0,0.0,0.0,0.0,0.0,0.0,0.0,0.0,0.0,0.0,0.0,0.0,0.0,0.0,0.0,0.0,0.0,0.0,0.0,0.0,0.0,0.0,0.0,0.0,0.0,0.0,0.0,0.0,0.0,0.0,0.0,0.0,0.0,0.0,0.0,0.0,0.0,0.0,0.0,0.0,0.0,0.0,0.0,0.0,0.0,0.0,0.0,0.0,0.0,0.0,0.0,2.1793,2.3691,2.4795,2.51,2.5301,2.5315,2.5115,2.4695,2.3355,0.0,0.0,0.0,0.0,0.0,0.0,0.0,0.0,0.0,0.0,0.0,0.0,0.0,0.0,0.0,0.0,0.0,0.0,0.0,0.0,0.0,0.0,0.0,0.0,0.0,0.0,0.0,0.0,0.0,0.0,0.0,0.0,0.0,0.0,0.0,0.0,0.0,0.0,0.0,0.0,0.0,2.4423,2.5813,2.5691,0.0,0.0,0.0,0.0,2.7621,2.7053,0.0,0.0,0.0,0.0,0.0,0.0,0.0,0.0,0.0,0.0,0.0,0.0,0.0,0.0,0.0,0.0,0.0,0.0,0.0,0.0,0.0,0.0,0.0,0.0,0.0,0.0,0.0,0.0,0.0,0.0,0.0,0.0,0.0,0.0,0.0,0.0,0.0,0.0,0.0,0.0,0.0,0.0,0.0,0.0,0.0,0.0,0.0,0.0,0.0,0.0,0.0,0.0,0.0,0.0,0.0,0.0,2.1737,2.3096,2.4179,2.5071,2.513,2.513,2.51,2.486,2.3532,0.0,0.0,0.0,0.0,0.0,0.0,0.0,0.0,0.0,0.0,0.0,0.0,0.0,0.0,0.0,0.0,0.0,0.0,0.0,0.0,0.0,0.0,0.0,0.0,0.0,0.0,0.0,0.0,0.0,0.0,0.0,0.0,0.0,0.0,0.0,0.0,0.0,0.0,0.0,0.0,0.0,2.4687,2.5008,2.5345,2.5865,0.0,0.0,2.7872,2.8991,2.9044,0.0,0.0,0.0,0.0,0.0,0.0,0.0,0.0,0.0,0.0,0.0,0.0,0.0,0.0,0.0,0.0,0.0,0.0,0.0,0.0,0.0,0.0,0.0,0.0,0.0,0.0,0.0,0.0,0.0,0.0,0.0,0.0,0.0,0.0,0.0,0.0,0.0,0.0,0.0,0.0,0.0,0.0,0.0,0.0,0.0,0.0,0.0,0.0,0.0,0.0,0.0,0.0,0.0,0.0,0.0,2.0634,2.2493,2.396,2.4868,2.5315,2.5505,2.5432,2.51,2.5278,2.4022,0.0,0.0,0.0,0.0,0.0,0.0,0.0,0.0,0.0,0.0,0.0,0.0,0.0,0.0,0.0,0.0,0.0,0.0,0.0,0.0,0.0,0.0,0.0,0.0,0.0,0.0,0.0,0.0,0.0,0.0,0.0,0.0,0.0,0.0,0.0,0.0,0.0,0.0,0.0,0.0,0.0,0.0,2.6953,2.6729,0.0,0.0,0.0,2.8069,2.8685,0.0,0.0,0.0,0.0,0.0,0.0,0.0,0.0,0.0,0.0,0.0,0.0,0.0,0.0,0.0,0.0,0.0,0.0,0.0,0.0,0.0,0.0,0.0,0.0,0.0,0.0,0.0,0.0,0.0,0.0,0.0,0.0,0.0,0.0,0.0,0.0,0.0,0.0,0.0,0.0,0.0,0.0,0.0,0.0,0.0,0.0,0.0,0.0,0.0,0.0,0.0,0.0,0.0,0.0,0.0,0.0,0.0,2.3079,2.4785,2.5661,2.5749,2.593,2.5783,2.533,2.5548,0.0,0.0,0.0,0.0,0.0,0.0,0.0,0.0,0.0,0.0,0.0,0.0,0.0,0.0,0.0,0.0,0.0,0.0,0.0,0.0,0.0,0.0,0.0,0.0,0.0,0.0,0.0,1.2811,0.0,0.0,0.0,0.0,0.0,0.0,0.0,0.0,0.0,0.0,0.0,0.0,0.0,0.0,2.693,2.8793,2.8371,2.8358,0.0,0.0,2.8672,2.9022,2.9044,2.8765,0.0,0.0,0.0,0.0,0.0,0.0,0.0,0.0,0.0,0.0,0.0,0.0,0.0,0.0,0.0,0.0,0.0,0.0,0.0,0.0,0.0,0.0,0.0,0.0,0.0,0.0,0.0,0.0,0.0,0.0,0.0,0.0,0.0,0.0,0.0,0.0,0.0,0.0,0.0,0.0,0.0,0.0,0.0,0.0,0.0,0.0,0.0,0.0,0.0,0.0,0.0,0.0,0.0,0.0,2.1638,2.3079,2.5002,2.6135,2.6413,2.6164,2.6003,2.5909,2.561,2.4027,0.0,0.0,0.0,0.0,0.0,0.0,0.0,0.0,0.0,0.0,0.0,0.0,0.0,0.0,0.0,0.0,0.0,0.0,0.0,0.0,0.0,0.0,0.0,0.0,0.0,0.0,0.0,0.0,0.0,0.0,0.0,0.0,0.0,0.0,0.0,0.0,0.0,0.0,0.0,0.0,0.0,2.7837,2.9507,2.9802,3.0205,0.0,3.0573,3.0324,3.1076,3.067,2.971,2.8094,0.0,0.0,0.0,0.0,0.0,0.0,0.0,0.0,0.0,0.0,0.0,0.0,0.0,0.0,0.0,0.0,0.0,0.0,0.0,0.0,0.0,0.0,0.0,0.0,0.0,0.0,0.0,0.0,0.0,0.0,0.0,0.0,0.0,0.0,0.0,0.0,0.0,0.0,0.0,0.0,0.0,0.0,0.0,0.0,0.0,0.0,0.0,0.0,0.0,0.0,0.0,0.0,0.0,2.217,2.3655,2.5406,2.6383,2.65,2.6574,2.6427,2.6018,2.6193,2.5214,0.0,0.0,0.0,0.0,0.0,0.0,0.0,0.0,0.0,0.0,0.0,0.0,0.0,0.0,0.0,0.0,0.0,0.0,0.0,0.0,0.0,0.0,0.0,0.0,0.0,0.0,0.0,0.0,1.7737,1.8101,1.794,0.0,0.0,0.0,0.0,0.0,0.0,0.0,0.0,0.0,0.0,2.9383,3.1097,3.1237,0.0,0.0,3.2054,3.1937,3.1857,3.1636,3.097,2.9534,2.9252,0.0,0.0,0.0,0.0,0.0,0.0,0.0,0.0,0.0,0.0,0.0,0.0,0.0,0.0,0.0,0.0,0.0,0.0,0.0,0.0,0.0,0.0,0.0,0.0,0.0,0.0,0.0,0.0,0.0,0.0,0.0,0.0,0.0,0.0,0.0,0.0,0.0,0.0,0.0,0.0,0.0,0.0,0.0,0.0,0.0,0.0,0.0,0.0,0.0,0.0,0.0,0.0,2.276,2.4146,2.5984,2.6947,2.7086,2.7203,2.702,2.6596,2.6815,2.6063,0.0,0.0,0.0,0.0,0.0,0.0,0.0,0.0,0.0,0.0,0.0,0.0,0.0,0.0,0.0,0.0,0.0,0.0,0.0,0.0,0.0,0.0,0.0,0.0,0.0,0.0,0.0,0.0,1.924,1.9228,1.8394,0.0,0.0,0.0,0.0,0.0,0.0,0.0,0.0,0.0,0.0,3.1199,3.2727,3.2614,3.2525,3.3044,3.314,3.288,3.2179,3.2141,3.168,3.0274,0.0,0.0,0.0,0.0,0.0,0.0,0.0,0.0,0.0,0.0,0.0,0.0,0.0,0.0,0.0,0.0,0.0,0.0,0.0,0.0,0.0,0.0,0.0,0.0,0.0,0.0,0.0,1.1523,0.0,0.0,1.1127,0.0,0.0,0.0,0.0,0.0,0.0,0.0,0.0,0.0,0.0,0.0,0.0,0.0,0.0,0.0,0.0,0.0,0.0,0.0,0.0,0.0,0.0,2.3346,2.4483,2.672,2.8014,2.8321,2.8057,2.7882,2.7838,2.7335,2.627,2.4621,0.0,0.0,0.0,0.0,0.0,0.0,0.0,0.0,0.0,0.0,0.0,0.0,0.0,0.0,0.0,0.0,0.0,0.0,0.0,0.0,0.0,0.0,0.0,0.0,0.0,0.0,1.8766,1.9611,1.9684,0.0,0.0,0.0,0.0,0.0,0.0,0.0,0.0,0.0,3.0222,3.1892,3.3186,3.416,3.3909,3.3729,3.4276,3.3719,3.2948,3.219,3.2197,3.1707,0.0,0.0,0.0,0.0,0.0,0.0,0.0,0.0,0.0,0.0,0.0,0.0,0.0,0.0,0.0,0.0,0.0,0.0,0.0,0.0,0.0,0.0,0.0,0.0,0.0,0.0,0.0,1.4878,1.4283,0.0,0.0,0.0,0.0,0.0,0.0,0.0,0.0,0.0,0.0,0.0,2.0869,2.1776,0.0,0.0,0.0,0.0,0.0,0.0,0.0,0.0,0.0,0.0,0.0,0.0,2.3736,2.5122,2.7182,2.8394,2.8725,2.8842,2.8695,2.8247,2.8271,2.7201,2.5,0.0,0.0,0.0,0.0,0.0,0.0,0.0,0.0,0.0,0.0,0.0,0.0,0.0,0.0,0.0,0.0,0.0,0.0,0.0,0.0,0.0,0.0,0.0,0.0,0.0,1.9503,0.0,0.0,0.0,0.0,0.0,0.0,0.0,0.0,0.0,0.0,0.0,2.8852,3.1089,3.2242,3.3153,3.3935,3.3913,3.3972,0.0,0.0,0.0,0.0,0.0,0.0,0.0,0.0,0.0,0.0,0.0,0.0,0.0,0.0,3.6514,3.3107,3.237,3.2511,3.325,0.0,0.0,0.0,0.0,0.0,0.0,0.0,0.0,0.0,0.0,0.0,0.0,0.0,0.0,1.7045,1.6549,1.6185,0.0,0.0,0.0,0.0,0.0,0.0,0.0,0.0,2.2237,2.3041,2.3233,2.404,2.3997,0.0,2.2928,2.1832,0.0,0.0,0.0,0.0,0.0,0.0,0.0,0.0,2.4482,2.6064,2.7947,2.9032,2.9262,2.9481,2.9354,2.8959,2.9017,2.8093,2.5997,2.4959,2.3795,0.0,0.0,0.0,0.0,0.0,0.0,0.0,0.0,0.0,0.0,0.0,0.0,0.0,0.0,0.0,0.0,0.0,0.0,0.0,0.0,0.0,0.0,0.0,2.0991,0.0,0.0,0.0,0.0,0.0,0.0,0.0,0.0,0.0,2.6854,2.8806,3.0815,3.2388,3.3339,3.3978,3.4217,0.0,0.0,0.0,0.0,0.0,0.0,0.0,3.3473,3.2609,3.2253,3.242,3.3618,3.5943,3.7591,3.7528,0.0,0.0,3.5481,3.4794,3.4957,3.5776,3.6793,3.7633,3.8113,3.9258,4.0415,0.0,0.0,0.0,0.0,1.7056,0.0,0.0,0.0,1.8583,1.8508,0.0,1.8057,0.0,0.0,0.0,0.0,1.9284,2.1242,0.0,0.0,2.5218,2.5995,2.5949,2.5941,2.5956,2.592,2.5604,2.5186,2.4462,2.2027,0.0,0.0,0.0,0.0,0.0,0.0,2.5552,2.7326,2.9011,2.9906,2.9936,2.9936,2.9936,2.9906,2.9599,2.8837,2.7621,2.6632,2.5339,2.3717,2.0989,0.0,0.0,0.0,0.0,0.0,0.0,0.0,0.0,0.0,0.0,0.0,0.0,0.0,0.0,0.0,0.0,0.0,0.0,0.0,0.0,2.1801,0.0,0.0,0.0,0.0,0.0,0.0,0.0,0.0,0.0,3.0049,2.9038,3.1108,3.312,3.4097,0.0,0.0,0.0,0.0,3.5685,3.5562,3.5015,3.4407,3.3899,3.4327,3.455,3.3909,0.0,0.0,3.5676,3.6614,3.732,3.7127,3.8693,4.0032,4.0114,3.9055,3.8606,3.9359,3.9545,3.9805,4.0326,4.1549,4.2869,2.1716,0.0,0.0,0.0,0.0,2.0132,2.0859,2.135,2.1744,2.1451,2.0676,2.056,0.0,0.0,0.0,0.0,0.0,0.0,2.3904,2.5327,2.6056,2.6721,2.7302,2.7353,2.7302,2.7316,2.7459,2.745,2.7248,2.6765,2.4581,2.0874,0.0,0.0,0.0,0.0,2.7145,2.8368,2.9595,3.0361,3.0539,3.0554,3.0437,3.0258,2.9936,2.9481,2.8856,2.8344,2.7246,2.5482,2.3909,0.0,0.0,0.0,0.0,0.0,0.0,0.0,0.0,0.0,0.0,0.0,0.0,0.0,0.0,0.0,0.0,0.0,0.0,0.0,2.2031,2.349,2.4202,0.0,0.0,0.0,0.0,0.0,0.0,0.0,0.0,0.0,3.3196,3.3574,3.4066,0.0,0.0,3.5345,3.5153,3.5737,3.6237,3.6339,3.6386,0.0,3.6344,3.6067,3.5837,3.5837,3.6604,3.7166,3.7107,3.7889,3.8515,3.8411,3.9121,3.9841,4.01,4.0104,4.0149,4.0614,4.1001,4.1609,4.2641,4.3274,4.3821,2.3278,2.1583,2.1686,2.1507,2.1146,2.174,2.2394,2.3053,2.3197,2.3048,2.2728,2.245,2.1618,2.0357,2.057,0.0,0.0,0.0,2.4879,2.6427,2.6388,2.6889,2.7755,2.7601,2.7678,2.8023,2.8212,2.856,2.8964,2.9166,2.7587,2.4433,0.0,2.5207,2.5199,2.6998,2.8517,2.9676,3.0507,3.1064,3.1198,3.1081,3.0861,3.0554,3.0349,3.0027,2.9628,2.9224,2.8477,2.7258,2.5854,2.4622,0.0,0.0,0.0,0.0,0.0,0.0,0.0,0.0,0.0,0.0,0.0,1.8572,1.7597,0.0,0.0,0.0,2.3323,2.4168,2.5135,2.5839,0.0,0.0,0.0,0.0,0.0,0.0,0.0,3.1832,3.3604,3.5061,3.602,3.5639,3.5477,3.6121,3.6237,3.6258,3.6021,0.0,3.7111,3.6818,3.6954,3.7015,3.6913,3.6858,3.7095,3.7799,3.8277,3.8513,3.8544,3.9109,3.9562,3.9642,4.0045,4.0468,4.0491,4.0879,4.1284,4.1479,4.1937,4.2533,4.3299,4.3599,4.3959,2.4,2.4337,2.4011,2.3525,2.2923,2.2619,2.3045,2.3832,2.341,2.3585,2.4174,2.3745,2.3327,2.2891,2.2434,0.0,2.533,2.5105,2.5772,2.7128,2.6582,2.681,2.7613,2.7179,2.7416,2.8311,2.8246,2.8852,2.9968,2.9854,2.9561,2.9082,2.8181,2.7905,2.8243,2.8773,2.9733,3.1052,3.1497,3.1784,3.1798,3.1505,3.1212,3.0905,3.0876,3.0598,3.0056,2.9633,2.9289,2.9007,2.7249,2.6097,2.5746,0.0,0.0,0.0,0.0,0.0,0.0,0.0,0.0,0.0,0.0,0.0,0.0,0.0,0.0,2.5559,2.7977,0.0,2.9015,2.8418,0.0,0.0,0.0,2.7434,2.8735,3.1099,3.305,3.4038,0.0,0.0,3.7636,3.726,3.7097,3.7442,3.7692,3.7672,3.7178,3.774,3.8018,3.7129,3.7061,3.693,3.6764,3.7271,3.819,3.9313,3.9799,3.9751,3.9751,4.0141,4.0465,4.0481,4.1163,4.1572,4.1129,4.1702,4.2295,4.2151,4.2514,4.2833,4.2977,4.3297,4.3811,2.4392,2.4891,2.4815,2.426,2.3483,2.391,2.3989,2.383,2.4018,2.3953,2.3795,2.3946,2.4288,2.4659,2.435,2.5088,2.6557,2.6613,2.7041,2.7769,2.7605,2.7783,2.8213,2.75,2.7906,2.9241,2.8867,2.9451,3.0922,3.0835,3.0823,3.0852,3.0638,2.987,2.8679,3.0001,3.0707,3.0709,3.1267,3.1657,3.1812,3.1724,3.1637,3.1563,3.1329,3.1242,3.1329,3.1011,3.0663,3.0337,2.9716,2.9022,2.832,2.5354,0.0,0.0,0.0,0.0,0.0,0.0,0.0,0.0,0.0,2.2972,2.1404,0.0,2.5887,0.0,3.036,3.0987,2.9088,2.9487,0.0,0.0,2.9592,3.0109,3.2515,3.2969,3.3689,3.5379,3.6053,3.6665,3.7399,3.7555,3.7858,3.8283,3.7301,3.6498,3.6415,3.7297,3.7968,3.7769,3.8133,3.8514,3.8334,3.8564,3.8879,3.922,3.965,3.9965,3.995,4.0413,4.0745,4.0761,4.1082,4.134,4.1256,4.1964,4.2682,4.3056,4.3105,4.326,4.3619,4.3803,4.4021,2.482,2.5277,2.5075,2.4588,2.3964,2.4523,2.447,2.4011,2.4163,2.4124,2.3893,2.4182,2.4797,2.5562,2.5019,2.5517,2.6747,2.6395,2.6594,2.7241,2.7074,2.7299,2.7884,2.7556,2.8081,2.9368,2.936,3.0066,3.1368,3.1468,3.1713,3.2061,3.2061,3.144,3.0269,3.1009,3.1276,3.092,3.1578,3.1958,3.2032,3.2017,3.1726,3.1106,3.128,3.1252,3.098,3.0823,3.0596,3.0221,2.9781,2.9344,2.8922,2.7174,2.6217,0.0,0.0,0.0,0.0,0.0,0.0,0.0,0.0,0.0,0.0,0.0,2.8051,2.931,3.1849,3.2641,3.0795,3.1221,3.1841,3.2485,3.2048,3.2484,3.4461,3.475,3.5318,3.6529,3.7006,3.7476,3.8088,3.8149,3.8219,3.852,3.7506,3.6907,3.7368,3.8029,3.8355,3.8184,3.852,3.8837,3.8973,3.9003,3.9165,3.9541,3.9892,4.0146,4.04,4.0689,4.0942,4.1227,4.142,4.1497,4.1563,4.215,4.2821,4.3062,4.3254,4.3607,4.4338,4.4488,4.4573,2.5225,2.5533,2.515,2.4791,2.4482,2.4869,2.4714,2.416,2.4126,2.4217,2.4325,2.4445,2.5116,2.6061,2.5136,2.5438,2.662,2.5615,2.5613,2.6474,2.613,2.645,2.7353,2.759,2.8212,2.9209,2.9744,3.0583,3.165,3.1821,3.2186,3.2703,3.2762,3.2526,3.1993,3.1842,3.1631,3.1396,3.2029,3.229,3.2208,3.2193,3.1599,3.0452,3.1123,3.1119,3.0236,3.0276,3.0136,2.9789,2.9159,2.8827,2.8853,2.8739,2.8243,0.0,2.7463,0.0,0.0,0.0,0.0,0.0,0.0,0.0,0.0,2.9827,3.0405,3.0287,3.2777,3.402,3.3057,3.3162,3.3663,3.4633,3.445,3.4562,3.5324,3.6316,3.7064,3.7392,3.8088,3.8675,3.8752,3.8554,3.8361,3.8311,3.7985,3.797,3.8731,3.8852,3.8736,3.8397,3.8391,3.8585,3.8794,3.8853,3.9097,3.9765,4.009,4.0357,4.0852,4.111,4.1332,4.1806,4.1941,4.1941,4.1925,4.2403,4.2711,4.2897,4.324,4.3837,4.4717,4.5004,4.5089,2.5575,2.5892,2.5649,2.5436,2.532,2.5577,2.5009,2.3894,2.4221,2.4616,2.5041,2.4921,2.5629,2.6742,2.5741,2.6009,2.7275,2.6343,2.6323,2.705,2.698,2.7373,2.8069,2.8002,2.8835,3.0185,2.9659,3.0299,3.2047,3.1629,3.173,3.2313,3.248,3.2306,3.1901,0.0,0.0,0.0,3.1559,3.1497,3.1728,3.1561,3.1382,3.1125,3.1444,0.0,3.1729,3.1527,3.1374,3.1282,3.1182,0.0,0.0,0.0,0.0,0.0,0.0,0.0,0.0,0.0,0.0,0.0,3.0583,3.0522,3.0174,3.209,3.3071,3.2397,3.3717,3.4451,3.3993,3.4441,3.4864,3.5075,3.5481,3.5885,3.629,3.6769,3.7186,3.7509,3.7699,3.7808,3.7947,3.8001,3.8178,3.8192,3.8244,3.839,3.8597,3.8464,3.828,3.8192,3.8369,3.8508,3.8545,3.8597,3.8678,3.8893,3.9634,4.0258,4.0716,4.1521,4.2218,4.2564,4.2691,4.266,4.266,4.278,4.3009,4.3422,4.3562,4.3913,4.4766,4.4954,4.5141,2.6056,2.6373,2.6226,2.6099,0.0,2.5975,2.5511,2.4747,2.4816,2.4948,2.5134,2.5071,2.5657,2.6766,2.5964,2.6173,2.7172,2.6741,2.6717,2.7127,2.7611,2.8047,2.841,2.868,2.9357,3.0327,3.0113,3.0625,3.178,3.1674,3.1962,3.2588,3.2705,3.2756,3.2756,3.2868,3.2745,3.2362,3.2164,3.2143,3.2379,3.2445,3.2221,3.1713,3.2022,0.0,0.0,0.0,0.0,0.0,0.0,0.0,0.0,0.0,0.0,2.9324,2.9229,2.934,2.9783,3.0375,3.1236,3.2617,3.3188,3.3159,3.2324,3.3612,3.4314,3.4053,3.4756,3.5163,3.5163,3.531,3.565,3.6041,3.6261,3.6539,3.7007,3.7226,3.7461,3.7804,3.7812,3.787,3.8031,3.8178,3.8295,3.8309,3.8426,3.8491,3.8477,3.8345,3.8295,3.8295,3.836,3.8529,3.8506,3.8638,3.8652,3.8654,3.9145,3.9755,4.0343,4.0929,4.151,4.2186,4.2517,4.2644,4.2712,4.298,4.3302,4.3302,4.3528,4.3874,4.4471,4.4632,4.4912,2.6545,2.688,2.6656,2.6568,2.6514,2.6084,2.5816,2.5704,2.5433,0.0,0.0,2.518,2.5702,2.6642,2.6122,2.6275,2.689,2.6895,2.7001,2.7196,2.8142,2.8667,2.8821,2.9534,3.0024,3.0293,3.0677,3.1074,3.153,3.1727,3.2163,3.2779,3.2859,3.3045,3.3425,3.3514,3.3156,3.2506,3.2768,3.2966,3.3081,3.3236,3.2878,3.1989,3.2337,3.2084,3.1249,3.1281,3.0969,3.0274,2.9993,2.99,2.9985,3.0343,3.0836,3.1544,3.2043,3.2519,3.2934,3.3165,3.3585,3.44,3.4897,3.497,3.4505,3.471,3.4973,3.5269,3.5636,3.5924,3.6173,3.6148,3.6354,3.7095,3.6978,3.708,3.7578,3.7724,3.787,3.809,3.8148,3.8236,3.847,3.8514,3.8491,3.8477,3.8477,3.8491,3.8491,3.8477,3.8514,3.8514,3.8477,3.8491,3.8521,3.8667,3.8754,3.8535,3.8964,3.9568,4.0187,4.0572,4.11,4.2166,4.2485,4.2675,4.276,4.3341,4.3627,4.3274,4.3602,4.4048,4.4327,4.4532,4.4864,2.6934,2.7187,2.6654,2.645,2.638,2.5778,2.5598,2.5773,2.5519,2.5726,2.6241,2.5853,2.6326,2.7409,2.6521,2.6414,2.6902,2.6738,2.7014,2.7743,2.8463,2.9187,2.9879,3.063,3.0976,3.1062,3.1109,3.1336,3.1618,3.1587,3.1729,3.2033,3.2209,3.2373,3.2433,3.2704,3.2629,3.2257,3.2518,3.2646,3.2693,3.2131,3.1753,3.1606,3.1777,3.1759,3.1631,3.1604,3.1557,3.1423,3.143,3.1476,3.1717,3.1799,3.1879,3.2,3.2456,3.279,3.292,3.3694,3.4597,3.5364,3.5145,3.5097,3.5456,3.5533,3.5577,3.565,3.6144,3.648,3.6568,3.6978,3.73,3.7504,3.776,3.7951,3.7987,3.8221,3.8382,3.8441,3.8418,3.847,3.8514,3.8491,3.8491,3.8491,3.8579,3.8573,3.8602,3.8491,3.8491,3.8491,3.8491,3.8491,3.8564,3.8521,3.8623,3.8506,3.9584,4.0408,4.083,4.1813,4.266,4.3411,4.3512,4.3607,4.3676,4.4064,4.4261,4.4185,4.4507,4.48,4.4848,4.4893,4.5222,2.7142,2.7453,2.6868,2.6929,2.7333,2.6642,2.6142,2.5832,2.5813,2.6015,2.6299,2.6081,2.6414,2.698,2.6625,2.6694,2.7198,2.7365,2.7834,2.8657,2.941,3.0113,3.0697,3.1029,3.1303,3.145,3.1303,3.1383,3.1671,3.1618,3.1799,3.2189,3.2813,3.299,3.2771,3.3116,3.3163,3.2757,3.2679,3.2648,3.2662,3.2496,3.2431,3.2417,3.219,3.209,3.209,3.1953,3.1904,3.1904,3.2112,3.226,3.238,3.2345,3.2393,3.2393,3.27,3.3024,3.3317,3.4318,3.5245,3.5929,3.5813,3.612,3.7147,3.6321,3.6083,3.689,3.708,3.7212,3.7373,3.7504,3.7651,3.7877,3.8024,3.8185,3.8295,3.8374,3.8491,3.8491,3.8491,3.8491,3.8491,3.8491,3.8579,3.8763,3.8871,3.9056,3.9056,3.9056,3.8997,3.8798,3.8901,3.9056,3.907,3.9231,3.9246,3.9047,3.9773,4.0346,4.071,4.1736,4.2601,4.3163,4.3731,4.4147,4.4233,4.4518,4.4693,4.4757,4.4836,4.5018,4.5018,4.5459,4.6058,2.7416,2.7732,2.7074,2.7118,2.7621,2.7114,2.6543,2.6025,2.6186,2.6295,2.6343,2.6295,2.6451,2.6753,2.6777,2.703,2.752,2.7928,2.848,2.9229,2.993,3.0577,3.1095,3.1001,3.1154,3.1434,3.114,3.1154,3.146,3.1521,3.1758,3.228,3.3035,3.321,3.2894,3.321,3.321,3.288,3.2611,3.258,3.2813,3.2957,3.3049,3.3086,3.2612,3.2368,3.2436,3.227,3.2198,3.2211,3.2474,3.2648,3.2781,3.2795,3.2848,3.2995,3.316,3.3506,3.41,3.4927,3.5725,3.6354,3.6294,3.6805,3.7889,3.6901,3.6594,3.7812,3.7848,3.7782,3.8009,3.7914,3.79,3.8148,3.8229,3.8309,3.8535,3.8594,3.869,3.8681,3.8711,3.8778,3.8711,3.8711,3.8813,3.9114,3.9363,3.9509,3.9509,3.9553,3.9495,3.9363,3.9407,3.9465,3.9524,3.967,3.9699,3.9538,3.9919,4.0437,4.0836,4.1553,4.2404,4.3183,4.3977,4.4534,4.4614,4.4868,4.5059,4.509,4.5202,4.5305,4.5558,4.6261,4.6884,2.7856,2.8012,2.7165,2.6466,2.6074,2.5993,2.6197,2.6475,2.6548,2.6692,2.6861,2.6668,2.6837,2.7259,2.7283,2.7486,2.7787,2.8064,2.8515,2.9061,2.9357,3.0007,3.0803,3.0471,3.0483,3.0856,3.0471,3.0518,3.0951,3.1011,3.1236,3.1711,3.1853,3.1948,3.1853,3.1948,3.1901,3.1867,3.1779,3.2239,3.3074,3.2677,3.2592,3.2914,3.24,3.2281,3.2557,3.2541,3.2554,3.2554,3.2594,3.2848,3.3253,3.3334,3.3574,3.4082,3.4162,3.4514,3.5221,3.542,3.5882,3.6614,3.6265,3.6459,3.7356,3.7019,3.715,3.7891,3.8061,3.8097,3.8127,3.828,3.8374,3.8485,3.8514,3.8579,3.8909,3.8982,3.9032,3.9392,3.9348,3.9421,3.9348,3.9363,3.9407,3.9451,3.9568,3.9656,3.9699,3.986,4.0021,3.9904,3.9743,3.9597,3.9626,3.9538,3.9714,3.9656,4.0246,4.092,4.1662,4.2603,4.3605,4.3887,4.4742,4.4979,4.5043,4.5202,4.544,4.5472,4.5702,4.5997,4.6607,4.7158,4.7501,2.7904,2.7728,2.7093,2.6393,2.5931,2.6728,2.6911,2.6596,2.6765,2.6969,2.7186,2.7148,2.7174,2.7425,2.7425,2.7642,2.8041,2.8162,2.8579,2.9214,2.9374,2.9758,3.0331,3.0223,3.0223,3.0414,3.0223,3.0223,3.0427,3.076,3.1141,3.1664,3.1948,3.1948,3.1758,3.1948,3.2029,3.1965,3.1931,3.2251,3.2722,3.2442,3.24,3.267,3.2504,3.246,3.2607,3.2755,3.2929,3.3102,3.329,3.3521,3.3921,3.3948,3.4055,3.4322,3.4656,3.5068,3.5508,3.5749,3.6096,3.6585,3.6258,3.6514,3.7466,3.7055,3.7083,3.7967,3.8248,3.8412,3.8602,3.8748,3.8769,3.8798,3.8997,3.9158,3.929,3.9319,3.9377,3.9495,3.9509,3.9524,3.9538,3.9685,3.9787,3.9831,3.9948,4.0124,4.0329,4.049,4.0651,4.0797,4.0669,4.0577,4.0416,4.0373,4.0431,4.0607,4.0918,4.1425,4.1775,4.285,4.3807,4.4209,4.4979,4.548,4.5615,4.5678,4.5805,4.5853,4.5925,4.6253,4.7225,4.7618,4.7994,2.8023,2.7656,2.7127,2.6555,2.6129,2.7125,2.7352,2.687,2.7051,2.728,2.751,2.7534,2.757,2.7584,2.763,2.7896,2.8282,2.8318,2.8618,2.9136,2.9196,2.9423,2.9841,2.9758,2.9746,2.9841,2.9746,2.9841,3.0128,3.0808,3.1249,3.1534,3.2029,3.2069,3.1702,3.2137,3.2394,3.2246,3.2225,3.2372,3.2648,3.2532,3.2532,3.2701,3.2714,3.2781,3.2969,3.312,3.332,3.3534,3.3841,3.4095,3.4309,3.4389,3.4509,3.4696,3.5151,3.5565,3.5845,3.5992,3.6221,3.6545,3.6288,3.6477,3.7139,3.6933,3.6995,3.7698,3.824,3.8632,3.893,3.9114,3.9158,3.912,3.9392,3.9538,3.9626,3.9641,3.9685,3.9758,3.9831,3.9773,3.9816,3.9992,4.0153,4.0299,4.0475,4.0738,4.1016,4.109,4.1177,4.1341,4.137,4.1268,4.1148,4.1046,4.1236,4.1338,4.1382,4.1438,4.1711,4.2974,4.3973,4.4535,4.5363,4.5883,4.586,4.5996,4.6171,4.6171,4.63,4.6663,4.7506,4.7842,4.844,2.8192,2.8063,2.7461,2.6928,2.6592,2.6718,2.6975,2.7283,2.7377,2.75,2.7775,2.7799,2.7932,2.8149,2.8162,2.8331,2.8584,2.8608,2.862,2.8717,2.8705,2.8921,2.9375,2.8908,2.8956,2.9413,2.9004,2.9232,3.008,3.1093,3.1392,3.1038,3.1691,3.1837,3.154,3.2186,3.2603,3.2567,3.2581,3.2714,3.3009,3.3213,3.32,3.3013,3.3022,3.3227,3.3694,3.3814,3.3841,3.3855,3.4122,3.4295,3.4349,3.4603,3.4977,3.5511,3.5832,3.6139,3.6366,3.6233,3.634,3.6715,3.6381,3.622,3.653,3.6653,3.684,3.6989,3.7966,3.8589,3.8999,3.9295,3.948,3.9495,3.9524,3.9685,3.9948,3.9977,4.0124,4.0329,4.0387,4.0387,4.0416,4.0446,4.0621,4.0812,4.0999,4.1075,4.1283,4.137,4.1399,4.1499,4.1458,4.1399,4.1385,4.1426,4.137,4.1516,4.1675,4.1785,4.2495,4.3309,4.4055,4.4845,4.5655,4.6074,4.6083,4.6234,4.6473,4.6707,4.7049,4.7495,4.797,4.8355,4.8948,2.813,2.7987,2.7615,2.7303,2.7075,2.7247,2.736,2.7413,2.7425,2.7667,2.8017,2.8065,2.821,2.8475,2.8644,2.8777,2.8825,2.8874,2.8958,2.9103,2.9127,2.9225,2.9347,2.9007,2.8922,2.9043,2.8801,2.8956,2.9663,3.0366,3.066,3.0793,3.1281,3.157,3.1692,3.2235,3.2674,3.2848,3.2862,3.2959,3.3227,3.336,3.3454,3.3561,3.3561,3.3561,3.3587,3.3574,3.3668,3.3881,3.4162,3.4402,3.4603,3.4883,3.5391,3.6059,3.5939,3.6086,3.6633,3.6513,3.642,3.6593,3.6299,3.6032,3.5952,3.606,3.6381,3.7078,3.7517,3.8154,3.9002,3.9543,3.9831,3.9846,4.0007,4.0153,4.027,4.0314,4.0358,4.049,4.0651,4.0852,4.0826,4.0973,4.1148,4.1251,4.1224,4.1411,4.1646,4.1733,4.1792,4.1982,4.2041,4.2041,4.2041,4.185,4.1777,4.1968,4.2156,4.2573,4.3177,4.3849,4.4586,4.5446,4.6168,4.6559,4.6632,4.681,4.7017,4.7131,4.7533,4.8211,4.8397,4.8935,4.9532,2.8208,2.7814,2.7735,2.7517,2.7267,2.748,2.7567,2.7546,2.7596,2.792,2.8282,2.8343,2.8487,2.8741,2.8934,2.9127,2.9236,2.9188,2.9236,2.9393,2.9405,2.9405,2.9381,2.9224,2.9139,2.9152,2.9019,2.9175,2.956,2.998,3.0372,3.0687,3.1263,3.165,3.193,3.2527,3.2933,3.3093,3.3213,3.3334,3.344,3.3708,3.3841,3.3908,3.4068,3.4082,3.3855,3.3855,3.3935,3.4189,3.4536,3.483,3.5044,3.5324,3.5738,3.6246,3.6099,3.6206,3.6725,3.666,3.6553,3.662,3.6299,3.5992,3.5912,3.5912,3.6288,3.6867,3.7413,3.7962,3.8808,3.9425,3.9726,3.9871,4.0249,4.0475,4.0475,4.0475,4.0534,4.0665,4.0943,4.1104,4.1148,4.1253,4.1399,4.1572,4.1531,4.1662,4.1968,4.207,4.2114,4.2333,4.2333,4.2319,4.2289,4.2129,4.2055,4.2231,4.2376,4.2897,4.3682,4.4375,4.5103,4.5985,4.6588,4.7025,4.7303,4.7393,4.7525,4.7582,4.8374,4.9202,4.9446,4.9664,5.0159,2.8465,2.7774,2.7896,2.7658,2.7175,2.7326,2.7558,2.7824,2.8065,2.8294,2.8548,2.8596,2.8717,2.8958,2.8994,2.9296,2.9622,2.9526,2.9465,2.9489,2.9477,2.9477,2.9477,2.9429,2.9369,2.932,2.9652,2.9723,2.9699,3.0221,3.0664,3.1042,3.1703,3.2116,3.2194,3.2901,3.3374,3.3467,3.3668,3.3708,3.3561,3.4202,3.4389,3.4068,3.4481,3.4762,3.4775,3.4748,3.4681,3.475,3.5231,3.5591,3.5645,3.5832,3.6113,3.6179,3.634,3.6607,3.6792,3.6674,3.662,3.6712,3.6406,3.6206,3.6353,3.6406,3.6515,3.6774,3.7291,3.7977,3.8569,3.893,3.9263,3.9602,4.0165,4.0482,4.0508,4.0519,4.0621,4.0943,4.1251,4.137,4.1399,4.1472,4.166,4.1836,4.1909,4.1997,4.2246,4.2304,4.2363,4.2377,4.2377,4.2377,4.2392,4.2377,4.2392,4.2407,4.2508,4.2827,4.3947,4.4764,4.5584,4.6397,4.7046,4.7442,4.767,4.7834,4.8241,4.8474,4.9426,5.0028,5.0117,5.032,5.0618,2.8758,2.8414,2.8105,2.7918,2.7726,2.7527,2.7667,2.8077,2.8174,2.8367,2.8548,2.8572,2.8765,2.9019,2.92,2.9477,2.9791,2.99,2.996,2.9948,2.9948,2.9948,2.9912,2.9767,2.9489,2.931,2.9787,2.9775,2.9518,3.0325,3.0809,3.09,3.1709,3.2249,3.2468,3.3073,3.3494,3.3721,3.3841,3.3921,3.4028,3.4309,3.4456,3.4458,3.467,3.4937,3.5311,3.4776,3.4576,3.4776,3.5124,3.5591,3.6046,3.5925,3.6059,3.6553,3.6353,3.6433,3.6821,3.6687,3.6633,3.6807,3.658,3.6433,3.6487,3.6513,3.6691,3.6978,3.7207,3.7506,3.821,3.8487,3.8932,3.9748,4.0211,4.0479,4.0575,4.0897,4.1136,4.1239,4.1572,4.1733,4.1807,4.1894,4.207,4.2158,4.2216,4.2289,4.2348,4.2377,4.2377,4.2377,4.2377,4.2407,4.2465,4.2582,4.2685,4.2728,4.283,4.3323,4.4345,4.5095,4.5935,4.6763,4.7415,4.7802,4.7988,4.8388,4.8765,4.9265,4.9948,5.0304,5.0561,5.0864,5.1148,2.9075,2.8609,2.8412,2.8161,2.802,2.7747,2.7896,2.8198,2.8318,2.8416,2.8572,2.8681,2.8922,2.9175,2.9441,2.9695,2.9948,3.0141,3.0214,3.0214,3.0214,3.0214,3.0177,2.9924,2.9658,2.9418,2.9726,2.9676,2.937,3.012,3.059,3.0864,3.1652,3.2229,3.2624,3.3232,3.3708,3.3895,3.416,3.4255,3.4349,3.4536,3.4736,3.491,3.503,3.5324,3.5712,3.5244,3.5057,3.5231,3.5431,3.5752,3.6126,3.5939,3.6046,3.6393,3.6353,3.6326,3.6821,3.6674,3.6567,3.6659,3.6714,3.6607,3.6567,3.658,3.692,3.7233,3.7229,3.7444,3.8218,3.8352,3.883,3.9911,4.029,4.0586,4.0825,4.1263,4.1546,4.1675,4.188,4.2041,4.2143,4.2216,4.2377,4.2377,4.2377,4.2377,4.2377,4.2377,4.2377,4.2377,4.2377,4.245,4.2582,4.2758,4.2963,4.3065,4.3153,4.4015,4.5029,4.5354,4.596,4.7147,4.7892,4.8185,4.8457,4.906,4.9513,5.0063,5.0472,5.0987,5.135,5.1442,5.1663,2.9343,2.8525,2.8792,2.8506,2.7941,2.8065,2.8186,2.8282,2.8487,2.856,2.8669,2.8825,2.9103,2.9393,2.9598,2.9851,3.0177,3.0202,3.0214,3.0214,3.0214,3.0214,3.0177,2.9972,2.9815,2.9707,2.9623,2.9636,2.9707,2.9979,3.03,3.105,3.1668,3.2172,3.2803,3.3545,3.3895,3.4068,3.4482,3.4589,3.4456,3.4923,3.5204,3.5231,3.5485,3.5778,3.6019,3.6006,3.6006,3.6113,3.5979,3.5912,3.5792,3.5912,3.6019,3.6139,3.614,3.6326,3.6632,3.658,3.6513,3.662,3.6739,3.6861,3.6754,3.6887,3.7048,3.736,3.7344,3.7646,3.8267,3.8468,3.8929,3.9907,4.0491,4.0871,4.1319,4.1664,4.1909,4.1982,4.2187,4.2377,4.2333,4.2363,4.2377,4.2377,4.2377,4.2377,4.2377,4.2377,4.2377,4.2392,4.2436,4.2567,4.2728,4.3094,4.3299,4.3416,4.3577,4.4357,4.539,4.573,4.6321,4.7453,4.8125,4.8479,4.8906,4.9419,5.0004,5.053,5.1055,5.1677,5.1909,5.1909,5.1909,2.969,2.8818,2.9085,2.8747,2.8136,2.8186,2.8331,2.85,2.8536,2.8572,2.8644,2.8693,2.9019,2.9393,2.9489,2.9755,3.0117,3.0214,3.0214,3.0214,3.0214,3.0214,3.0214,3.0141,2.9996,2.9851,2.99,2.9936,2.9877,3.0349,3.0937,3.1617,3.2097,3.2792,3.3495,3.3766,3.4135,3.4534,3.4656,3.4857,3.5017,3.5297,3.5511,3.5538,3.5805,3.6086,3.6353,3.6393,3.6273,3.614,3.6126,3.6046,3.5912,3.5819,3.5845,3.6019,3.6072,3.618,3.6259,3.6259,3.6393,3.678,3.6845,3.7088,3.7448,3.7328,3.7328,3.7342,3.7208,3.725,3.7756,3.8305,3.92,4.0287,4.0817,4.1231,4.1488,4.1917,4.226,4.2275,4.2333,4.2363,4.2377,4.2377,4.2377,4.2377,4.2377,4.2407,4.2436,4.245,4.248,4.2509,4.2567,4.2786,4.2948,4.3358,4.3621,4.3753,4.4018,4.4446,4.5412,4.6197,4.6953,4.7948,4.8066,4.8302,4.8949,4.9536,5.018,5.0822,5.1404,5.1851,5.1909,5.1909,5.1909,3.0408,2.9085,2.9365,2.9021,2.8414,2.8379,2.8475,2.856,2.8572,2.8572,2.862,2.8874,2.9127,2.9417,2.9646,2.9912,3.0189,3.0214,3.0214,3.0214,3.0214,3.0214,3.0189,3.0117,3.0069,3.0141,3.0069,3.0081,3.023,3.0759,3.1225,3.1731,3.244,3.3153,3.3646,3.4164,3.4454,3.4723,3.487,3.5084,3.5378,3.5485,3.5778,3.5939,3.6179,3.6353,3.6487,3.6393,3.6233,3.6072,3.5965,3.5832,3.5712,3.5672,3.5712,3.5885,3.5992,3.6126,3.6233,3.6259,3.6473,3.6805,3.6979,3.7208,3.7382,3.7382,3.7382,3.7355,3.7208,3.7288,3.7641,3.8402,3.9125,3.9752,4.0785,4.1475,4.1475,4.2019,4.232,4.2377,4.2377,4.2377,4.2377,4.2377,4.2377,4.2377,4.2377,4.248,4.2567,4.2582,4.2641,4.2743,4.2889,4.308,4.3255,4.3606,4.39,4.4046,4.4253,4.4653,4.5622,4.6528,4.718,4.783,4.8007,4.8361,4.9008,4.9653,5.0163,5.0805,5.1445,5.1793,5.1851,5.1909,5.1909,3.1336,2.9546,2.9679,2.9295,2.8644,2.8608,2.8644,2.862,2.8669,2.8644,2.8765,2.9163,2.9344,2.9477,2.9851,3.0165,3.0214,3.0214,3.0214,3.0214,3.0214,3.0238,3.0274,3.0129,3.0214,3.0431,3.0081,3.0202,3.0497,3.0906,3.1248,3.1806,3.2698,3.3301,3.3859,3.4434,3.475,3.4857,3.5044,3.5284,3.5538,3.5685,3.5952,3.634,3.642,3.642,3.6366,3.6193,3.6006,3.6073,3.5792,3.5605,3.5391,3.5538,3.5685,3.5752,3.5965,3.6179,3.6393,3.642,3.6607,3.6859,3.7208,3.7301,3.7235,3.7315,3.7382,3.7382,3.7355,3.7491,3.7982,3.869,3.9103,3.9447,4.0612,4.1245,4.159,4.2048,4.2377,4.2377,4.2377,4.2377,4.2377,4.2377,4.2377,4.2407,4.245,4.2611,4.2758,4.286,4.305,4.3226,4.3314,4.3489,4.3665,4.3796,4.415,4.4371,4.4505,4.4966,4.5978,4.6825,4.7357,4.7771,4.8007,4.8537,4.9243,4.977,5.0221,5.0921,5.1619,5.1851,5.1909,5.1909,5.1909,3.2078,3.0874,3.0247,2.9457,2.8705,2.8837,2.8813,2.8644,2.885,2.8934,2.897,2.9067,2.9344,2.9707,2.9864,2.9996,3.0202,3.0214,3.0214,3.0214,3.0214,3.0346,3.0467,3.0419,3.0503,3.0588,3.0515,3.0503,3.073,3.1179,3.1665,3.22,3.3059,3.3782,3.4487,3.4684,3.4936,3.507,3.5177,3.5364,3.5658,3.5885,3.6139,3.6473,3.6487,3.6366,3.6153,3.5885,3.5738,3.5765,3.5859,3.5805,3.5618,3.5792,3.5939,3.5965,3.6019,3.6126,3.6206,3.6433,3.6647,3.6981,3.7235,3.7462,3.7622,3.7435,3.7395,3.7342,3.7195,3.7469,3.8278,3.8432,3.9002,3.9823,4.0483,4.1072,4.1475,4.2048,4.232,4.2377,4.2377,4.2377,4.2377,4.2377,4.2392,4.2421,4.2582,4.2758,4.2963,4.3138,4.3328,4.3533,4.3665,4.3797,4.3929,4.4135,4.4505,4.4802,4.4951,4.5324,4.635,4.6825,4.7239,4.7653,4.8066,4.8655,4.9243,4.977,5.0221,5.1038,5.1735,5.1851,5.1909,5.1909,5.1909,3.3033,3.1638,3.0548,2.9663,2.9041,2.8983,2.8934,2.8874,2.9079,2.92,2.9224,2.9308,2.9538,2.9803,2.9936,3.0093,3.0177,3.0214,3.0214,3.0214,3.0226,3.0358,3.06,3.0757,3.0829,3.0902,3.0696,3.0775,3.1197,3.1661,3.22,3.2904,3.3692,3.4358,3.4923,3.5002,3.5044,3.5191,3.5338,3.5538,3.5832,3.6126,3.6313,3.642,3.6366,3.6166,3.5872,3.5578,3.5458,3.5525,3.5819,3.5939,3.5738,3.5912,3.6113,3.614,3.6219,3.6353,3.6487,3.6633,3.6845,3.7288,3.7395,3.7448,3.7555,3.7462,3.7315,3.7181,3.7088,3.7293,3.8208,3.8717,3.9245,3.9938,4.067,4.113,4.1475,4.2048,4.2377,4.2377,4.2377,4.2377,4.2377,4.2377,4.2524,4.2597,4.2699,4.2904,4.3372,4.3563,4.3694,4.387,4.3987,4.4075,4.4149,4.4416,4.4907,4.519,4.5487,4.5978,4.6825,4.7002,4.7062,4.7594,4.8125,4.8537,4.9125,4.9637,5.0221,5.0921,5.1445,5.1735,5.1909,5.1909,5.1909,3.3898,3.2097,3.069,2.9854,2.9425,2.9189,2.9055,2.9043,2.9332,2.9465,2.9489,2.9707,2.9767,2.9912,3.0093,3.0202,3.0214,3.0214,3.0214,3.0214,3.0298,3.0467,3.0708,3.095,3.1179,3.136,3.095,3.11,3.1703,3.221,3.2686,3.3537,3.441,3.4871,3.5137,3.5191,3.5177,3.5231,3.5458,3.5725,3.6032,3.6313,3.646,3.6353,3.6233,3.5912,3.5618,3.5364,3.5244,3.5284,3.5778,3.5912,3.5912,3.6032,3.626,3.6246,3.6527,3.6714,3.6847,3.6952,3.7219,3.7702,3.7529,3.7355,3.7328,3.7288,3.7181,3.7114,3.7074,3.7384,3.7939,3.8526,3.9199,3.9851,4.0842,4.1302,4.1604,4.2048,4.232,4.2377,4.2377,4.2377,4.2377,4.2392,4.2597,4.2787,4.2889,4.3109,4.3577,4.3854,4.4016,4.4075,4.4163,4.4192,4.4281,4.44,4.4906,4.5577,4.586,4.6513,4.718,4.7417,4.7535,4.7771,4.8243,4.8596,4.9067,4.9695,5.028,5.0863,5.1328,5.1793,5.1909,5.1909,5.1909,3.4079,3.2542,3.0831,2.9806,2.9462,2.9372,2.9212,2.9115,2.9526,2.9731,2.9743,2.9779,2.9948,3.0093,3.0165,3.0214,3.0214,3.0214,3.0214,3.0262,3.0407,3.0648,3.0902,3.1155,3.1445,3.1529,3.1268,3.1435,3.2068,3.2488,3.3085,3.3889,3.4688,3.5151,3.5177,3.5204,3.5217,3.5297,3.5525,3.5819,3.6112,3.638,3.6406,3.6233,3.6167,3.5805,3.5404,3.5244,3.5297,3.5565,3.5885,3.6139,3.6313,3.658,3.6727,3.6807,3.6994,3.7114,3.7032,3.7326,3.7368,3.7261,3.7248,3.7221,3.7101,3.7034,3.7034,3.7141,3.7368,3.7885,3.8558,3.882,3.9392,4.0093,4.067,4.1072,4.1532,4.1991,4.2377,4.2377,4.2377,4.2392,4.2392,4.248,4.2699,4.2963,4.3167,4.3402,4.3782,4.406,4.4221,4.4265,4.4294,4.4294,4.4309,4.4414,4.4802,4.5741,4.6275,4.6825,4.7417,4.783,4.8066,4.8066,4.8286,4.8639,4.9168,4.9812,5.0513,5.127,5.1619,5.1909,5.1909,5.1909,5.1909,3.4306,3.3059,3.1255,3.0236,2.9811,2.9824,2.9591,2.9308,2.9767,3.0008,3.0008,3.002,3.0081,3.0189,3.0214,3.0214,3.0214,3.0214,3.0214,3.0274,3.0479,3.0745,3.101,3.1276,3.1541,3.1732,3.1672,3.1985,3.2634,3.2834,3.342,3.4294,3.4952,3.5191,3.5204,3.5204,3.5284,3.5418,3.5698,3.5992,3.6286,3.658,3.65,3.6193,3.6086,3.5765,3.5324,3.5204,3.5338,3.5618,3.5912,3.6206,3.65,3.6767,3.6952,3.7168,3.7315,3.7422,3.7342,3.7569,3.7422,3.7235,3.7195,3.7088,3.6925,3.6899,3.6939,3.7221,3.7502,3.8003,3.8462,3.8867,3.9648,4.0367,4.0828,4.1302,4.1819,4.222,4.232,4.2377,4.2377,4.2392,4.2421,4.2567,4.2802,4.308,4.3387,4.3694,4.3928,4.4163,4.4323,4.4323,4.4323,4.4323,4.4383,4.4503,4.4847,4.58,4.6453,4.7046,4.7594,4.7948,4.8066,4.8125,4.8345,4.8698,4.9344,4.9988,5.0805,5.1561,5.1735,5.1909,5.1909,5.1909,5.1909,3.4547,3.3557,3.1672,3.057,3.0169,3.0166,2.9923,2.9651,2.9998,3.0204,3.0293,3.0228,3.0202,3.0214,3.0214,3.0214,3.0214,3.0214,3.0214,3.0286,3.0564,3.0817,3.1022,3.1324,3.1614,3.1788,3.2144,3.2576,3.3075,3.3235,3.3889,3.4596,3.511,3.5204,3.5204,3.5204,3.5378,3.5631,3.5925,3.6233,3.6567,3.678,3.666,3.6139,3.6126,3.5845,3.5271,3.5297,3.5471,3.5738,3.6019,3.6299,3.658,3.6874,3.7168,3.7408,3.7462,3.7582,3.7595,3.7622,3.7462,3.7208,3.7048,3.6912,3.6885,3.6912,3.7061,3.7355,3.7649,3.8043,3.8597,3.9036,3.9719,4.0483,4.1015,4.1475,4.1934,4.222,4.2377,4.2377,4.2377,4.2392,4.2421,4.2509,4.2771,4.3167,4.3431,4.3767,4.4045,4.4206,4.4323,4.4323,4.4323,4.4323,4.4383,4.4622,4.51,4.5919,4.6453,4.6928,4.7535,4.8066,4.8184,4.8302,4.842,4.8832,4.9519,5.0221,5.0921,5.1503,5.1793,5.1909,5.1909,5.1909,5.1909,3.4983,3.3923,3.1813,3.057,3.0169,3.0215,3.007,2.9824,3.0151,3.0321,3.0551,3.0319,3.0214,3.0214,3.0214,3.0214,3.0214,3.0214,3.0238,3.0322,3.0696,3.095,3.1083,3.1541,3.1752,3.1955,3.2385,3.2876,3.3383,3.3718,3.4229,3.4992,3.5137,3.5204,3.5204,3.5244,3.5351,3.5645,3.5939,3.6353,3.678,3.6845,3.6607,3.6233,3.6086,3.5805,3.5324,3.5364,3.5631,3.5965,3.6273,3.6567,3.6819,3.7168,3.7462,3.7676,3.7742,3.7676,3.7555,3.7582,3.7462,3.7099,3.6912,3.6885,3.6885,3.6899,3.7061,3.7355,3.7649,3.814,3.8692,3.889,3.9532,4.0151,4.0842,4.1187,4.1647,4.2277,4.2377,4.2377,4.2377,4.2377,4.2392,4.248,4.2684,4.3123,4.3519,4.3811,4.4089,4.4221,4.4323,4.4323,4.4323,4.4323,4.4323,4.4563,4.5219,4.6038,4.6394,4.6809,4.7594,4.8184,4.8479,4.8596,4.8789,4.9141,4.9871,5.0572,5.1096,5.1503,5.1793,5.1909,5.1909,5.1909,5.1909,3.5208,3.4027,3.2157,3.1046,3.0647,3.0897,3.0818,3.0574,3.0614,3.0697,3.0724,3.0406,3.0214,3.0214,3.0214,3.0214,3.0214,3.0214,3.031,3.0467,3.0805,3.1071,3.1288,3.1655,3.1902,3.2328,3.2807,3.3432,3.3818,3.4096,3.4518,3.5058,3.5204,3.5204,3.5217,3.5364,3.5605,3.5925,3.6313,3.6619,3.6819,3.6845,3.666,3.6112,3.6126,3.5738,3.5391,3.5284,3.5631,3.5965,3.6233,3.658,3.7034,3.7342,3.7555,3.801,3.7889,3.7756,3.7662,3.7609,3.7342,3.7032,3.6885,3.6885,3.6885,3.6899,3.7141,3.7595,3.7729,3.8194,3.8857,3.9087,3.9719,4.0324,4.09,4.1417,4.1762,4.2048,4.2377,4.2377,4.2377,4.2377,4.2407,4.2538,4.2742,4.3065,4.3416,4.3782,4.4016,4.4177,4.4265,4.4323,4.4323,4.4323,4.4323,4.4443,4.51,4.58,4.6157,4.675,4.7653,4.8243,4.8537,4.8949,4.9301,4.977,5.0338,5.0747,5.1212,5.1561,5.1909,5.1909,5.1909,5.1909,5.2256,3.5605,3.47,3.2595,3.1487,3.1159,3.1565,3.1415,3.0986,3.0977,3.1088,3.1076,3.0786,3.0568,3.0416,3.0416,3.0366,3.0214,3.0214,3.0383,3.0612,3.0877,3.1131,3.1372,3.1703,3.2074,3.2594,3.3126,3.371,3.4134,3.4491,3.4795,3.5204,3.5204,3.5204,3.5257,3.5378,3.5618,3.6059,3.6593,3.6819,3.6872,3.6792,3.654,3.6206,3.5952,3.5725,3.5297,3.5418,3.5738,3.5965,3.6461,3.6847,3.7261,3.7569,3.7823,3.809,3.7969,3.7809,3.7702,3.7569,3.7261,3.6992,3.6885,3.6885,3.6885,3.6899,3.7126,3.7729,3.7782,3.8187,3.8819,3.9399,3.9977,4.0612,4.1187,4.1762,4.222,4.232,4.2377,4.2377,4.2377,4.2377,4.245,4.2597,4.2787,4.3021,4.3358,4.3738,4.3987,4.4192,4.425,4.4323,4.4323,4.4323,4.4323,4.4503,4.516,4.5696,4.6038,4.675,4.7712,4.8243,4.8537,4.9067,4.9653,5.0338,5.0921,5.1096,5.127,5.1636,5.1909,5.1909,5.1909,5.1909,5.2603,3.6344,3.6421,3.3116,3.1724,3.1609,3.171,3.1402,3.1046,3.1026,3.1277,3.1595,3.1552,3.1214,3.1012,3.0771,3.0568,3.0214,3.0214,3.0419,3.0648,3.0877,3.1179,3.1445,3.1727,3.2127,3.2713,3.3232,3.3763,3.4346,3.4821,3.5032,3.5204,3.5204,3.5204,3.5257,3.5378,3.5725,3.6179,3.6645,3.6832,3.6834,3.6687,3.638,3.6072,3.5792,3.5525,3.5244,3.5578,3.5912,3.6126,3.662,3.7128,3.7435,3.7836,3.82,3.8223,3.7996,3.7836,3.7742,3.7502,3.7235,3.7034,3.6885,3.6885,3.6885,3.6885,3.7235,3.7729,3.7963,3.8486,3.9138,3.9746,4.0439,4.0957,4.1532,4.1876,4.2206,4.232,4.2377,4.2377,4.2377,4.2377,4.2377,4.2509,4.2758,4.2977,4.3387,4.3767,4.4075,4.428,4.4294,4.4323,4.4323,4.4323,4.4323,4.4622,4.5026,4.5622,4.6097,4.6928,4.783,4.8243,4.8479,4.9301,4.9929,5.0747,5.1387,5.1503,5.1619,5.1793,5.1909,5.1909,5.1909,5.1909,5.299,3.7069,3.6266,3.4163,3.2823,3.2117,3.1995,3.1807,3.1658,3.1715,3.1715,3.1788,3.1466,3.1416,3.1315,3.072,3.0619,3.0643,3.0497,3.0651,3.0865,3.1119,3.1384,3.1614,3.1882,3.2234,3.2979,3.3445,3.4028,3.4887,3.5085,3.5151,3.5204,3.5204,3.5204,3.5257,3.5538,3.6019,3.6446,3.6699,3.6805,3.666,3.6567,3.6273,3.5819,3.5725,3.5485,3.5284,3.5404,3.5712,3.6126,3.662,3.7114,3.7622,3.812,3.8401,3.8424,3.8076,3.7849,3.7716,3.7408,3.7061,3.6939,3.6885,3.6885,3.6899,3.7088,3.7368,3.7829,3.8324,3.8964,3.945,4.0266,4.1072,4.1475,4.1819,4.2091,4.2263,4.2377,4.2377,4.2377,4.2377,4.2377,4.2377,4.2392,4.267,4.2963,4.3372,4.3782,4.4104,4.4323,4.4323,4.4323,4.4323,4.4383,4.4443,4.4608,4.4787,4.5502,4.6275,4.6987,4.7771,4.8066,4.842,4.9344,5.0105,5.0688,5.1212,5.1677,5.1909,5.1909,5.1909,5.1909,5.1909,5.1909,5.3008,3.7566,3.6574,3.4857,3.3538,3.2666,3.2366,3.2131,3.2008,3.2104,3.2151,3.2008,3.1769,3.1668,3.1617,3.1315,3.072,3.0832,3.0774,3.0887,3.1038,3.124,3.1541,3.1776,3.2074,3.2553,3.3339,3.3763,3.4293,3.5098,3.5151,3.5204,3.5204,3.5204,3.5204,3.5338,3.5778,3.6326,3.6687,3.6739,3.674,3.6527,3.6286,3.6112,3.5591,3.5551,3.5404,3.5284,3.5391,3.5725,3.6179,3.6687,3.7208,3.7756,3.8223,3.8477,3.8437,3.821,3.7836,3.7676,3.7315,3.6899,3.6885,3.6885,3.6885,3.6952,3.7208,3.7545,3.8178,3.8831,3.9417,3.9922,4.09,4.1532,4.1876,4.2048,4.232,4.232,4.2377,4.2377,4.2377,4.2377,4.2392,4.245,4.2494,4.2787,4.3153,4.3665,4.3987,4.4177,4.4323,4.4323,4.4323,4.4323,4.4443,4.4563,4.4622,4.4861,4.6038,4.6691,4.6987,4.7594,4.7889,4.8361,4.9184,4.9887,5.0513,5.1038,5.1561,5.1793,5.1909,5.1909,5.1909,5.1909,5.1967,5.2621,3.7695,3.7664,3.5006,3.3614,3.3228,3.2761,3.2294,3.2013,3.2172,3.24,3.2598,3.2862,3.2611,3.2071,3.192,3.1365,3.0895,3.1117,3.1233,3.1166,3.1377,3.1566,3.187,3.2287,3.2754,3.3445,3.3922,3.4504,3.5204,3.5271,3.5244,3.5271,3.5324,3.5324,3.5284,3.5792,3.6219,3.6473,3.654,3.6513,3.6313,3.5965,3.5685,3.5551,3.5378,3.5244,3.5257,3.5364,3.5752,3.6353,3.6874,3.7462,3.816,3.8477,3.8651,3.8611,3.8143,3.7863,3.7756,3.7179,3.6939,3.6885,3.6885,3.6899,3.6952,3.7277,3.7837,3.857,3.9213,4.0061,4.0773,4.1532,4.1876,4.2106,4.232,4.2377,4.2377,4.2377,4.2377,4.2377,4.2377,4.2407,4.2509,4.2641,4.2933,4.3358,4.3928,4.4192,4.4236,4.4323,4.4323,4.4323,4.4323,4.4622,4.4742,4.4563,4.4921,4.6231,4.6987,4.7298,4.7594,4.7948,4.8479,4.9141,4.9712,5.0338,5.0921,5.1462,5.1677,5.1909,5.1909,5.1909,5.1909,5.2025,5.2488,3.8439,3.7598,3.6088,3.509,3.4354,3.3043,3.26,3.288,3.2848,3.2898,3.2973,3.2662,3.2712,3.2461,3.1718,3.1378,3.1706,3.1005,3.1118,3.1503,3.1591,3.1662,3.1943,3.2381,3.2914,3.3498,3.4028,3.4663,3.5204,3.5351,3.5458,3.5498,3.5605,3.5778,3.5872,3.6166,3.6433,3.65,3.6473,3.634,3.5952,3.5725,3.5538,3.5364,3.5244,3.5204,3.5204,3.5351,3.5792,3.646,3.6994,3.7502,3.8227,3.8571,3.8611,3.8491,3.8103,3.7916,3.7595,3.7155,3.6899,3.6885,3.6912,3.6992,3.7208,3.7692,3.8311,3.9048,3.9824,4.066,4.1331,4.1862,4.2206,4.2263,4.2377,4.2377,4.2377,4.2377,4.2377,4.2377,4.2377,4.2377,4.245,4.2553,4.2831,4.3094,4.3563,4.3884,4.3987,4.4221,4.4323,4.4323,4.4383,4.4742,4.4861,4.4802,4.5339,4.6587,4.718,4.7417,4.7712,4.8066,4.842,4.8906,4.9536,5.0163,5.0805,5.1328,5.1677,5.1909,5.1909,5.1909,5.1909,5.1909,5.2025,3.8346,3.7227,3.6589,3.6125,3.5433,3.3462,3.2879,3.3175,3.3053,3.3146,3.321,3.2662,3.2561,3.2611,3.2071,3.12,3.22,3.1851,3.1316,3.1742,3.179,3.1759,3.2008,3.2553,3.3126,3.3657,3.424,3.4874,3.5217,3.5431,3.5538,3.5672,3.5912,3.5899,3.5992,3.6126,3.6313,3.6286,3.6206,3.5952,3.5671,3.5471,3.5378,3.5271,3.5204,3.5204,3.5231,3.5404,3.5738,3.6446,3.7008,3.7502,3.8183,3.8544,3.8557,3.8414,3.8053,3.7729,3.7288,3.7379,3.7162,3.6941,3.7021,3.7181,3.748,3.7994,3.8661,3.9459,4.0406,4.1031,4.1602,4.2131,4.232,4.2377,4.2377,4.2377,4.2377,4.2377,4.2377,4.2377,4.2377,4.2377,4.2392,4.2494,4.267,4.2904,4.3153,4.3445,4.3708,4.406,4.4294,4.4323,4.4383,4.4742,4.4981,4.516,4.5875,4.7002,4.7357,4.7535,4.7771,4.8125,4.842,4.873,4.9259,4.9829,5.0647,5.1212,5.1445,5.1735,5.1909,5.1909,5.1909,5.1909,5.1909,3.7539,3.6645,3.6456,3.6491,3.622,3.4145,3.3044,3.2732,3.2929,3.316,3.3364,3.3263,3.3063,3.2812,3.2963,3.2502,3.1805,3.2158,3.1953,3.1688,3.1768,3.1812,3.2234,3.2873,3.3392,3.3922,3.4451,3.5046,3.5231,3.5431,3.5565,3.5725,3.5952,3.5872,3.5819,3.5885,3.6032,3.6006,3.5885,3.5671,3.5471,3.5364,3.5271,3.5204,3.5204,3.5204,3.5257,3.5418,3.5992,3.6552,3.7155,3.7836,3.837,3.8704,3.8517,3.8267,3.7799,3.7315,3.7183,3.7478,3.7341,3.7078,3.7362,3.744,3.7702,3.8272,3.9013,3.9686,4.0547,4.1185,4.1825,4.2101,4.2377,4.2377,4.2377,4.2377,4.2377,4.2377,4.2377,4.2377,4.2377,4.2377,4.2377,4.2465,4.2538,4.2655,4.2889,4.3167,4.3519,4.3898,4.4177,4.4323,4.4443,4.4682,4.4981,4.5443,4.6231,4.7357,4.7417,4.7594,4.7889,4.8125,4.8243,4.8495,4.8848,4.9435,5.0296,5.0805,5.1038,5.127,5.1387,5.1735,5.1735,5.1851,5.1909,3.7398,3.631,3.611,3.628,3.6517,3.5598,3.4339,3.304,3.316,3.3347,3.3364,3.2963,3.3013,3.3113,3.2172,3.2149,3.2098,3.1912,3.1822,3.1777,3.1887,3.2078,3.2488,3.3073,3.3657,3.4187,3.4716,3.5217,3.5284,3.5445,3.5792,3.5952,3.5979,3.5765,3.5591,3.5618,3.5712,3.5738,3.5631,3.5511,3.5391,3.5257,3.5204,3.5204,3.5204,3.5204,3.5244,3.5338,3.5885,3.6527,3.6901,3.7502,3.829,3.8571,3.8584,3.8267,3.7622,3.7088,3.7293,3.7616,3.7604,3.7382,3.7945,3.8235,3.8373,3.8652,3.935,4.001,4.0699,4.1306,4.1765,4.2013,4.2289,4.2377,4.2377,4.2377,4.2377,4.2377,4.2377,4.2377,4.2377,4.2377,4.2377,4.2392,4.2465,4.2494,4.2641,4.2919,4.3255,4.3694,4.4031,4.4177,4.437,4.4519,4.5368,4.5919,4.6765,4.7476,4.7594,4.7712,4.7948,4.8125,4.8125,4.8302,4.8612,4.9243,5.0063,5.0355,5.0472,5.0397,5.0513,5.1096,5.1561,5.1619,5.1735,3.7226,3.6265,3.6195,3.653,3.6961,3.669,3.5457,3.394,3.3533,3.3414,3.3364,3.3063,3.3063,3.3213,3.2524,3.2377,3.2877,3.2531,3.2239,3.1988,3.2193,3.2345,3.2701,3.322,3.3763,3.4346,3.4848,3.5271,3.5391,3.5645,3.5939,3.6019,3.5992,3.5618,3.5391,3.5378,3.5444,3.5458,3.5418,3.5338,3.5271,3.5204,3.5204,3.5204,3.5204,3.5204,3.5244,3.5324,3.5885,3.6487,3.6847,3.7382,3.7983,3.817,3.8143,3.7826,3.7368,3.7241,3.7476,3.7976,3.7742,3.7783,3.8585,3.882,3.8959,3.9043,3.9643,4.0175,4.0805,4.1382,4.169,4.1982,4.2187,4.2363,4.2377,4.2377,4.2377,4.2377,4.2377,4.2377,4.2377,4.2377,4.2377,4.2377,4.2392,4.2421,4.2509,4.2699,4.3006,4.3372,4.3738,4.3987,4.4194,4.4416,4.5323,4.6126,4.6735,4.7401,4.7771,4.7948,4.8066,4.8125,4.8125,4.8243,4.842,4.9008,4.9536,4.9653,4.9712,4.9712,4.9812,5.0338,5.0863,5.1154,5.127,3.7131,3.6188,3.6509,3.6982,3.7562,3.7174,3.624,3.4969,3.4,3.3464,3.3414,3.3364,3.3364,3.3314,3.2976,3.2884,3.3069,3.2943,3.2499,3.2291,3.2648,3.2814,3.2879,3.3301,3.4069,3.4465,3.4861,3.5311,3.5605,3.5792,3.5885,3.6019,3.5725,3.5431,3.5257,3.5231,3.5284,3.5284,3.5271,3.5231,3.5217,3.5204,3.5204,3.5204,3.5204,3.5217,3.5338,3.5672,3.6179,3.6553,3.6981,3.7422,3.7662,3.7649,3.7515,3.748,3.7239,3.7422,3.7838,3.8349,3.8335,3.857,3.9166,3.9317,3.9358,3.9486,3.9934,4.0238,4.0836,4.118,4.1543,4.185,4.2085,4.2289,4.2377,4.2377,4.2377,4.2377,4.2377,4.2377,4.2377,4.2377,4.2377,4.2377,4.2377,4.2392,4.2436,4.2567,4.2728,4.3065,4.3372,4.3709,4.3856,4.4181,4.5218,4.6004,4.657,4.7133,4.774,4.8007,4.8066,4.8125,4.8125,4.8184,4.8302,4.8479,4.8832,4.8949,4.9125,4.9285,4.9461,4.9695,5.0046,5.0397,5.0921,3.7731,3.622,3.6311,3.6677,3.7209,3.7163,3.6337,3.5047,3.4762,3.4164,3.3514,3.3414,3.3414,3.3364,3.3063,3.2998,3.3341,3.3162,3.2655,3.2703,3.3049,3.3205,3.3298,3.3914,3.4518,3.4874,3.5191,3.5391,3.5658,3.5779,3.5738,3.5712,3.5471,3.5271,3.5217,3.5204,3.5204,3.5204,3.5204,3.5204,3.5204,3.5204,3.5204,3.5204,3.5204,3.5204,3.5324,3.5551,3.5885,3.6206,3.674,3.7261,3.7756,3.7515,3.7395,3.7384,3.749,3.7645,3.8046,3.8651,3.8926,3.9036,3.9437,3.9642,3.9769,3.9928,4.0096,4.0397,4.0661,4.1049,4.1368,4.1675,4.1968,4.2172,4.2363,4.2363,4.2363,4.2377,4.2377,4.2377,4.2377,4.2377,4.2377,4.2377,4.2377,4.2377,4.2377,4.2436,4.245,4.267,4.3021,4.3255,4.3431,4.393,4.5022,4.5821,4.6339,4.7142,4.7853,4.8003,4.8109,4.8125,4.8125,4.8125,4.8184,4.8302,4.8361,4.8302,4.8479,4.8757,4.8874,4.8992,4.9168,4.9461,5.0221,3.8467,3.7486,3.7211,3.7444,3.7988,3.8066,3.7151,3.5897,3.5706,3.4862,3.3514,3.3414,3.3414,3.3414,3.3063,3.3149,3.3584,3.3392,3.3137,3.3162,3.3486,3.3615,3.4058,3.4515,3.4859,3.5242,3.5538,3.5725,3.5898,3.5886,3.5872,3.5818,3.551,3.5204,3.5204,3.5204,3.5204,3.5204,3.5204,3.5204,3.5204,3.5204,3.5204,3.5204,3.5204,3.5204,3.5351,3.5551,3.5872,3.6179,3.6647,3.6981,3.7301,3.7235,3.7181,3.7308,3.7533,3.7935,3.8376,3.8926,3.9475,3.953,3.9873,4.0107,3.9778,3.9895,4.024,4.0537,4.0552,4.0841,4.1075,4.1353,4.169,4.1938,4.2085,4.2158,4.2275,4.2377,4.2377,4.2377,4.2377,4.2377,4.2377,4.2377,4.2377,4.2377,4.2377,4.2377,4.2377,4.2377,4.2641,4.2903,4.3094,4.3987,4.5256,4.5815,4.6089,4.6978,4.7828,4.7982,4.8014,4.8077,4.8125,4.8125,4.8125,4.8125,4.8125,4.8125,4.8125,4.8361,4.8302,4.8243,4.8479,4.8773,4.9477,3.9295,3.9178,3.8455,3.8608,3.9164,3.902,3.8046,3.6667,3.64,3.521,3.3564,3.3414,3.3414,3.3414,3.3427,3.3668,3.3817,3.3707,3.361,3.3639,3.4179,3.4144,3.4446,3.5033,3.5458,3.5705,3.5938,3.6098,3.6269,3.6206,3.614,3.6164,3.5762,3.5204,3.5204,3.5204,3.5204,3.5204,3.5204,3.5204,3.5204,3.5204,3.5204,3.5204,3.5204,3.5204,3.5378,3.5672,3.606,3.6299,3.6593,3.6832,3.6965,3.7034,3.7118,3.7258,3.7756,3.8266,3.8816,3.942,3.964,3.9873,4.0326,4.0326,3.9983,4.0052,4.0395,4.0504,4.0504,4.0621,4.0855,4.1116,4.1397,4.1719,4.185,4.2026,4.2216,4.2363,4.2377,4.2377,4.2377,4.2377,4.2377,4.2377,4.2377,4.2377,4.2377,4.2377,4.2377,4.2377,4.2494,4.2597,4.2714,4.3894,4.5262,4.5597,4.5677,4.6782,4.7553,4.776,4.7903,4.7903,4.7982,4.8125,4.8125,4.8109,4.8125,4.8125,4.8125,4.8125,4.8125,4.8125,4.8243,4.8596,4.8949,4.0253,4.0016,3.8738,3.8828,3.9564,3.8569,3.7444,3.6583,3.5657,3.4563,3.3664,3.3414,3.3414,3.3414,3.3414,3.3654,3.4082,3.3988,3.3749,3.3639,3.4551,3.4622,3.4839,3.5638,3.6321,3.6503,3.6467,3.6295,3.6479,3.6418,3.6111,3.5628,3.5509,3.5257,3.5191,3.5191,3.5204,3.5204,3.5204,3.5204,3.5204,3.5204,3.5204,3.5204,3.5204,3.5204,3.5351,3.5778,3.6046,3.6246,3.658,3.6834,3.6885,3.6941,3.7107,3.7549,3.8046,3.8651,3.9256,3.9818,4.0092,4.0202,4.049,4.049,4.0256,4.0311,4.049,4.049,4.0534,4.0636,4.0826,4.0899,4.1148,4.1485,4.1704,4.1997,4.2246,4.2333,4.2377,4.2377,4.2377,4.2377,4.2377,4.2377,4.2377,4.2377,4.2377,4.2377,4.2377,4.2377,4.2377,4.2421,4.248,4.3388,4.4581,4.4934,4.5249,4.6405,4.7277,4.7394,4.7537,4.7648,4.776,4.7934,4.8046,4.8019,4.8093,4.8125,4.8125,4.8125,4.8125,4.8125,4.8243,4.8537,4.9008]},{"header":{"parameterUnit":"m.s-1","parameterCategory":1,"la1":31.0,"la2":29.5877,"lo1":-88.7671,"lo2":-86.6584,"dx":0.0162,"dy":0.0185,"nx":115,"ny":88,"refTime":"2022-11-08T06:00:00:Z","depth":0,"parameterNumber":3,"parameterNumberName":"V-component_of_WINDS"},"data":[0.0,0.0,0.0,0.0,0.0,0.0,0.0,0.0,0.0,0.0,0.0,0.0,0.0,0.0,0.0,0.0,0.0,0.0,0.0,0.0,0.0,0.0,0.0,0.0,0.0,0.0,0.0,0.0,0.0,0.0,0.0,0.0,0.0,0.0,0.0,0.0,0.0,0.0,0.0,0.0,0.0,0.0,0.0,0.0,0.0,0.0,0.0,0.0,0.0,0.0,0.0,0.0,0.0,0.0,0.0,0.0,0.0,0.0,0.0,0.0,0.0,0.0,0.0,0.0,0.0,0.0,0.0,0.0,0.0,0.0,0.0,0.0,0.0,0.0,0.0,0.0,0.0,0.0,0.0,0.0,0.0,0.0,0.0,0.0,0.0,0.0,0.0,0.0,0.0,0.0,0.0,0.0,0.0,0.0,0.0,0.0,0.0,0.0,0.0,0.0,0.0,0.0,0.0,0.0,0.0,0.0,0.0,0.0,0.0,0.0,0.0,0.0,0.0,0.0,0.0,0.0,0.0,0.0,0.0,0.0,0.0,0.0,0.0,0.0,0.0,0.0,0.0,0.0,0.0,0.0,0.0,0.0,0.0,0.0,0.0,0.0,0.0,0.0,0.0,0.0,0.0,0.0,0.0,0.0,0.0,0.0,0.0,0.0,0.0,0.0,0.0,0.0,0.0,0.0,0.0,0.0,0.0,0.0,0.0,0.0,0.0,0.0,0.0,0.0,0.0,0.0,0.0,0.0,0.0,0.0,0.0,0.0,0.0,0.0,0.0,0.0,0.0,0.0,0.0,0.0,0.0,0.0,0.0,0.0,0.0,0.0,0.0,0.0,0.0,0.0,0.0,0.0,0.0,0.0,0.0,0.0,0.0,0.0,0.0,0.0,0.0,0.0,0.0,0.0,0.0,0.0,0.0,0.0,0.0,0.0,0.0,0.0,0.0,0.0,0.0,0.0,0.0,0.0,0.0,0.0,0.0,0.0,0.0,0.0,0.0,0.0,0.0,0.0,0.0,0.0,0.0,0.0,0.0,0.0,0.0,0.0,0.0,0.0,0.0,0.0,0.0,0.0,0.0,0.0,0.0,0.0,0.0,0.0,0.0,0.0,0.0,0.0,0.0,0.0,0.0,0.0,0.0,0.0,0.0,0.0,0.0,0.0,0.0,0.0,0.0,0.0,0.0,0.0,0.0,0.0,0.0,0.0,0.0,0.0,0.0,0.0,0.0,0.0,0.0,0.0,0.0,0.0,0.0,0.0,0.0,0.0,0.0,0.0,0.0,0.0,0.0,0.0,0.0,0.0,0.0,0.0,0.0,0.0,0.0,0.0,0.0,0.0,0.0,0.0,0.0,0.0,0.0,0.0,0.0,0.0,0.0,0.0,0.0,0.0,0.0,0.0,0.0,0.0,0.0,0.0,0.0,0.0,0.0,0.0,0.0,0.0,0.0,0.0,0.0,0.0,0.0,0.0,0.0,0.0,0.0,0.0,0.0,0.0,0.0,0.0,0.0,0.0,0.0,0.0,0.0,0.0,0.0,0.0,0.0,0.0,0.0,0.0,0.0,0.0,0.0,0.0,0.0,0.0,0.0,0.0,0.0,0.0,0.0,0.0,0.0,0.0,0.0,0.0,0.0,0.0,0.0,0.0,0.0,0.0,0.0,0.0,0.0,0.0,0.0,0.0,0.0,0.0,0.0,0.0,0.0,0.0,0.0,0.0,0.0,0.0,0.0,0.0,0.0,0.0,0.0,0.0,0.0,0.0,0.0,0.0,0.0,0.0,0.0,0.0,0.0,0.0,0.0,0.0,0.0,0.0,0.0,0.0,0.0,0.0,0.0,0.0,0.0,0.0,0.0,0.0,0.0,0.0,0.0,0.0,0.0,0.0,0.0,0.0,0.0,0.0,0.0,0.0,0.0,0.0,0.0,0.0,0.0,0.0,0.0,0.0,0.0,0.0,0.0,0.0,0.0,0.0,0.0,0.0,0.0,0.0,0.0,0.0,0.0,0.0,0.0,0.0,0.0,0.0,0.0,0.0,0.0,0.0,0.0,0.0,0.0,0.0,0.0,0.0,0.0,0.0,0.0,0.0,0.0,0.0,0.0,0.0,0.0,0.0,0.0,0.0,0.0,0.0,0.0,0.0,0.0,0.0,0.0,0.0,0.0,0.0,0.0,0.0,0.0,0.0,0.0,0.0,0.0,0.0,0.0,0.0,0.0,0.0,0.0,0.0,0.0,0.0,0.0,0.0,0.0,0.0,0.0,0.0,0.0,0.0,0.0,0.0,0.0,0.0,0.0,0.0,0.0,0.0,0.0,0.0,0.0,0.0,0.0,0.0,0.0,0.0,0.0,0.0,0.0,0.0,0.0,0.0,0.0,0.0,0.0,0.0,0.0,0.0,0.0,0.0,0.0,0.0,0.0,0.0,0.0,0.0,0.0,0.0,0.0,0.0,0.0,0.0,0.0,0.0,0.0,0.0,0.0,0.0,0.0,0.0,0.0,0.0,0.0,0.0,0.0,0.0,0.0,0.0,0.0,0.0,0.0,0.0,0.0,0.0,0.0,0.0,0.0,0.0,0.0,0.0,0.0,0.0,0.0,0.0,0.0,0.0,0.0,0.0,0.0,0.0,0.0,0.0,0.0,0.0,0.0,0.0,0.0,0.0,0.0,0.0,0.0,0.0,0.0,0.0,0.0,0.0,0.0,0.0,0.0,0.0,0.0,0.0,0.0,0.0,0.0,0.0,0.0,0.0,0.0,0.0,0.0,0.0,0.0,0.0,0.0,0.0,0.0,0.0,0.0,0.0,0.0,0.0,0.0,0.0,0.0,0.0,0.0,0.0,0.0,0.0,0.0,0.0,0.0,0.0,0.0,0.0,0.0,0.0,0.0,0.0,0.0,0.0,0.0,0.0,0.0,0.0,0.0,0.0,0.0,0.0,0.0,0.0,0.0,0.0,0.0,0.0,0.0,0.0,0.0,0.0,0.0,0.0,0.0,0.0,0.0,0.0,0.0,0.0,0.0,0.0,0.0,0.0,0.0,0.0,0.0,0.0,0.0,0.0,0.0,0.0,0.0,0.0,0.0,0.0,0.0,0.0,0.0,0.0,0.0,0.0,0.0,0.0,0.0,0.0,0.0,0.0,0.0,0.0,0.0,0.0,0.0,0.0,0.0,0.0,0.0,0.0,0.0,0.0,0.0,0.0,0.0,0.0,0.0,0.0,0.0,0.0,0.0,0.0,0.0,0.0,0.0,0.0,0.0,0.0,0.0,0.0,0.0,0.0,0.0,0.0,0.0,0.0,0.0,0.0,0.0,0.0,0.0,0.0,0.0,0.0,0.0,0.0,0.0,0.0,0.0,0.0,0.0,0.0,0.0,0.0,0.0,0.0,0.0,0.0,0.0,0.0,0.0,0.0,0.0,0.0,0.0,0.0,0.0,0.0,0.0,0.0,0.0,0.0,0.0,0.0,0.0,0.0,0.0,0.0,0.0,0.0,0.0,0.0,0.0,0.0,0.0,0.0,0.0,0.0,0.0,0.0,0.0,0.0,0.0,0.0,0.0,0.0,0.0,0.0,0.0,0.0,0.0,0.0,0.0,0.0,0.0,0.0,0.0,0.0,0.0,0.0,0.0,0.0,0.0,0.0,0.0,0.0,0.0,0.0,0.0,0.0,0.0,0.0,0.0,0.0,0.0,0.0,0.0,0.0,0.0,0.0,0.0,0.0,0.0,0.0,0.0,0.0,0.0,0.0,0.0,0.0,0.0,0.0,0.0,0.0,0.0,0.0,0.0,0.0,0.0,0.0,0.0,0.0,0.0,0.0,0.0,0.0,0.0,0.0,0.0,0.0,0.0,0.0,0.0,0.0,0.0,0.0,0.0,0.0,0.0,0.0,0.0,0.0,0.0,0.0,0.0,0.0,0.0,0.0,0.0,0.0,0.0,0.0,0.0,0.0,0.0,0.0,0.0,0.0,0.0,0.0,0.0,0.0,0.0,0.0,0.0,0.0,0.0,0.0,0.0,0.0,0.0,0.0,0.0,0.0,0.0,0.0,0.0,0.0,0.0,0.0,0.0,0.0,0.0,0.0,0.0,0.0,0.0,0.0,0.0,0.0,0.0,0.0,0.0,0.0,0.0,0.0,0.0,0.0,0.0,0.0,0.0,0.0,0.0,0.0,0.0,0.0,0.0,0.0,0.0,0.0,0.0,0.0,0.0,0.0,0.0,0.0,0.0,0.0,0.0,0.0,0.0,0.0,2.4719,0.0,0.0,0.0,2.6199,0.0,0.0,0.0,0.0,0.0,0.0,0.0,0.0,0.0,0.0,0.0,0.0,0.0,0.0,0.0,0.0,0.0,0.0,0.0,0.0,0.0,0.0,0.0,0.0,0.0,0.0,0.0,0.0,0.0,0.0,0.0,0.0,0.0,0.0,0.0,0.0,0.0,0.0,0.0,0.0,0.0,0.0,0.0,0.0,0.0,0.0,0.0,0.0,0.0,0.0,0.0,0.0,0.0,0.0,0.0,0.0,0.0,0.0,0.0,0.0,0.0,0.0,0.0,0.0,0.0,0.0,0.0,0.0,0.0,0.0,0.0,0.0,0.0,0.0,0.0,0.0,0.0,0.0,0.0,0.0,0.0,0.0,0.0,0.0,0.0,0.0,0.0,0.0,0.0,0.0,0.0,0.0,0.0,0.0,0.0,0.0,0.0,0.0,0.0,0.0,0.0,0.0,0.0,0.0,0.0,0.0,0.0,0.0,0.0,0.0,2.4517,2.3522,2.6158,2.6904,2.5474,0.0,0.0,0.0,0.0,0.0,0.0,0.0,0.0,0.0,0.0,0.0,0.0,0.0,0.0,0.0,0.0,0.0,0.0,0.0,0.0,0.0,0.0,0.0,0.0,0.0,0.0,0.0,0.0,0.0,0.0,0.0,0.0,0.0,0.0,0.0,0.0,0.0,0.0,0.0,0.0,0.0,0.0,0.0,0.0,0.0,0.0,0.0,0.0,0.0,0.0,0.0,0.0,0.0,0.0,0.0,0.0,0.0,0.0,0.0,0.0,0.0,0.0,0.0,0.0,0.0,0.0,0.0,0.0,0.0,0.0,0.0,0.0,0.0,0.0,0.0,0.0,0.0,0.0,0.0,0.0,0.0,0.0,0.0,0.0,0.0,0.0,0.0,0.0,0.0,0.0,0.0,0.0,0.0,0.0,0.0,0.0,0.0,0.0,0.0,0.0,0.0,0.0,0.0,0.0,0.0,0.0,0.0,0.0,0.0,0.0,0.0,0.0,2.7006,2.7831,2.5966,0.0,0.0,0.0,0.0,0.0,0.0,0.0,0.0,0.0,0.0,0.0,0.0,0.0,0.0,0.0,0.0,0.0,0.0,0.0,0.0,0.0,0.0,0.0,0.0,0.0,0.0,0.0,0.0,0.0,0.0,0.0,0.0,0.0,0.0,0.0,0.0,0.0,0.0,0.0,0.0,0.0,0.0,0.0,0.0,0.0,0.0,0.0,0.0,0.0,0.0,0.0,0.0,0.0,0.0,0.0,0.0,0.0,0.0,0.0,0.0,0.0,0.0,0.0,0.0,0.0,0.0,0.0,0.0,0.0,0.0,0.0,0.0,0.0,0.0,0.0,0.0,0.0,0.0,0.0,0.0,0.0,0.0,0.0,0.0,0.0,0.0,0.0,0.0,0.0,0.0,0.0,0.0,0.0,0.0,0.0,0.0,0.0,0.0,0.0,0.0,0.0,0.0,0.0,0.0,0.0,0.0,0.0,0.0,0.0,0.0,2.4206,2.6994,2.7248,0.0,2.912,0.0,0.0,0.0,0.0,0.0,0.0,0.0,0.0,0.0,0.0,0.0,0.0,0.0,0.0,0.0,0.0,0.0,0.0,0.0,0.0,0.0,0.0,0.0,0.0,0.0,0.0,0.0,0.0,0.0,0.0,0.0,0.0,0.0,0.0,0.0,0.0,0.0,0.0,0.0,0.0,0.0,0.0,0.0,0.0,0.0,0.0,0.0,0.0,0.0,0.0,0.0,0.0,0.0,0.0,0.0,0.0,0.0,0.0,0.0,0.0,0.0,0.0,0.0,0.0,0.0,0.0,0.0,0.0,0.0,0.0,0.0,0.0,0.0,0.0,0.0,0.0,0.0,0.0,0.0,0.0,0.0,0.0,0.0,0.0,0.0,0.0,0.0,0.0,0.0,0.0,0.0,0.0,0.0,0.0,0.0,0.0,0.0,0.0,0.0,0.0,0.0,0.0,0.0,0.0,0.0,0.0,0.0,0.0,0.0,0.0,2.5411,2.6657,2.7841,2.894,0.0,0.0,0.0,0.0,0.0,0.0,0.0,0.0,0.0,0.0,0.0,0.0,0.0,0.0,0.0,0.0,0.0,0.0,0.0,0.0,0.0,0.0,0.0,0.0,0.0,0.0,0.0,0.0,0.0,0.0,0.0,0.0,0.0,0.0,0.0,0.0,0.0,0.0,0.0,0.0,0.0,0.0,0.0,0.0,0.0,0.0,0.0,0.0,0.0,0.0,0.0,0.0,0.0,0.0,0.0,0.0,0.0,0.0,0.0,0.0,0.0,0.0,0.0,0.0,0.0,0.0,0.0,0.0,0.0,0.0,0.0,0.0,0.0,0.0,0.0,0.0,0.0,0.0,0.0,0.0,0.0,0.0,0.0,0.0,0.0,0.0,0.0,0.0,0.0,0.0,0.0,0.0,0.0,0.0,0.0,0.0,0.0,0.0,0.0,0.0,0.0,0.0,0.0,0.0,0.0,0.0,0.0,0.0,0.0,0.0,2.6029,2.7028,2.8009,2.9802,3.0647,3.0414,0.0,0.0,0.0,0.0,0.0,0.0,0.0,0.0,0.0,0.0,0.0,0.0,0.0,0.0,0.0,0.0,0.0,0.0,0.0,0.0,0.0,0.0,0.0,0.0,0.0,0.0,0.0,0.0,0.0,0.0,0.0,0.0,0.0,0.0,0.0,0.0,0.0,0.0,0.0,0.0,0.0,0.0,0.0,0.0,0.0,0.0,0.0,0.0,0.0,0.0,0.0,0.0,0.0,0.0,0.0,0.0,0.0,0.0,0.0,0.0,0.0,0.0,0.0,0.0,0.0,0.0,0.0,0.0,0.0,0.0,0.0,0.0,0.0,0.0,0.0,0.0,0.0,0.0,0.0,0.0,0.0,0.0,0.0,0.0,0.0,0.0,0.0,0.0,0.0,0.0,0.0,0.0,0.0,0.0,0.0,0.0,0.0,0.0,0.0,0.0,0.0,0.0,0.0,0.0,0.0,0.0,0.0,0.0,2.9979,2.8372,2.9058,3.2504,3.3766,3.3106,0.0,0.0,0.0,0.0,0.0,0.0,0.0,0.0,0.0,0.0,0.0,0.0,0.0,0.0,0.0,0.0,0.0,0.0,0.0,0.0,0.0,0.0,0.0,0.0,0.0,0.0,0.0,0.0,0.0,0.0,0.0,0.0,0.0,0.0,0.0,0.0,0.0,0.0,0.0,0.0,0.0,0.0,0.0,0.0,0.0,0.0,0.0,0.0,0.0,0.0,0.0,0.0,0.0,0.0,0.0,0.0,0.0,0.0,0.0,0.0,0.0,0.0,0.0,0.0,0.0,0.0,0.0,0.0,0.0,0.0,0.0,0.0,0.0,0.0,0.0,0.0,0.0,0.0,0.0,0.0,0.0,0.0,0.0,0.0,0.0,0.0,0.0,0.0,0.0,0.0,0.0,0.0,0.0,0.0,0.0,0.0,0.0,0.0,0.0,0.0,0.0,0.0,0.0,0.0,0.0,0.0,0.0,0.0,0.0,2.5554,2.6839,2.9769,3.4159,3.2975,3.2246,0.0,0.0,0.0,0.0,0.0,0.0,0.0,0.0,0.0,0.0,0.0,0.0,0.0,0.0,0.0,0.0,0.0,0.0,0.0,0.0,0.0,0.0,0.0,0.0,0.0,0.0,0.0,0.0,0.0,0.0,0.0,0.0,0.0,0.0,0.0,0.0,0.0,0.0,0.0,0.0,0.0,0.0,0.0,0.0,0.0,0.0,0.0,0.0,0.0,0.0,0.0,0.0,0.0,0.0,0.0,0.0,0.0,0.0,0.0,0.0,0.0,0.0,0.0,0.0,0.0,0.0,0.0,0.0,0.0,0.0,0.0,0.0,0.0,0.0,0.0,0.0,0.0,0.0,0.0,0.0,0.0,0.0,0.0,0.0,0.0,0.0,0.0,0.0,0.0,0.0,0.0,0.0,0.0,0.0,0.0,0.0,0.0,0.0,0.0,0.0,0.0,0.0,0.0,0.0,0.0,0.0,0.0,0.0,0.0,2.648,3.0019,3.3078,3.5303,3.3787,3.2718,0.0,0.0,0.0,0.0,0.0,0.0,0.0,0.0,0.0,0.0,0.0,0.0,0.0,0.0,0.0,0.0,0.0,0.0,0.0,0.0,0.0,0.0,0.0,0.0,0.0,0.0,0.0,0.0,0.0,0.0,0.0,0.0,0.0,0.0,0.0,0.0,0.0,0.0,0.0,0.0,0.0,0.0,0.0,0.0,0.0,0.0,0.0,0.0,0.0,0.0,0.0,0.0,0.0,0.0,0.0,0.0,0.0,0.0,0.0,0.0,0.0,0.0,0.0,0.0,0.0,0.0,0.0,0.0,0.0,0.0,0.0,0.0,0.0,0.0,0.0,0.0,0.0,0.0,0.0,0.0,0.0,0.0,0.0,0.0,0.0,0.0,0.0,0.0,0.0,0.0,0.0,0.0,0.0,0.0,0.0,0.0,0.0,0.0,0.0,0.0,0.0,0.0,0.0,0.0,0.0,0.0,0.0,0.0,2.8095,3.3909,3.8174,3.8844,3.6261,3.6647,3.4892,0.0,0.0,0.0,0.0,0.0,0.0,0.0,0.0,0.0,0.0,0.0,0.0,0.0,0.0,0.0,0.0,0.0,0.0,0.0,0.0,0.0,0.0,0.0,0.0,0.0,0.0,0.0,0.0,0.0,0.0,0.0,0.0,0.0,0.0,0.0,0.0,0.0,0.0,0.0,0.0,0.0,0.0,0.0,0.0,0.0,0.0,0.0,0.0,0.0,0.0,0.0,0.0,0.0,0.0,0.0,0.0,0.0,0.0,0.0,0.0,0.0,0.0,0.0,0.0,0.0,0.0,0.0,0.0,0.0,0.0,0.0,0.0,0.0,0.0,0.0,0.0,0.0,0.0,0.0,0.0,0.0,0.0,0.0,0.0,0.0,0.0,0.0,0.0,0.0,0.0,0.0,0.0,0.0,0.0,0.0,0.0,0.0,0.0,0.0,0.0,0.0,0.0,0.0,0.0,0.0,0.0,0.0,0.0,0.0,3.1091,3.6087,3.869,3.8338,3.7096,3.622,0.0,0.0,0.0,0.0,0.0,0.0,0.0,0.0,0.0,0.0,0.0,0.0,0.0,0.0,0.0,0.0,0.0,0.0,0.0,0.0,0.0,0.0,0.0,0.0,0.0,0.0,0.0,0.0,0.0,0.0,0.0,0.0,0.0,0.0,0.0,0.0,0.0,0.0,0.0,0.0,0.0,0.0,0.0,0.0,0.0,0.0,0.0,0.0,0.0,0.0,0.0,0.0,0.0,0.0,0.0,0.0,0.0,0.0,0.0,0.0,0.0,0.0,0.0,0.0,0.0,0.0,0.0,0.0,0.0,0.0,0.0,0.0,0.0,0.0,0.0,0.0,0.0,0.0,0.0,0.0,0.0,0.0,0.0,0.0,0.0,0.0,0.0,0.0,0.0,0.0,0.0,0.0,0.0,0.0,0.0,0.0,0.0,0.0,0.0,0.0,0.0,0.0,0.0,0.0,0.0,0.0,0.0,0.0,0.0,3.6708,4.0545,4.2465,4.1912,3.9825,3.8636,3.8447,0.0,0.0,0.0,0.0,0.0,0.0,0.0,0.0,0.0,0.0,0.0,0.0,0.0,0.0,0.0,0.0,0.0,0.0,0.0,0.0,0.0,0.0,0.0,0.0,0.0,0.0,0.0,0.0,0.0,0.0,0.0,0.0,0.0,0.0,0.0,0.0,0.0,0.0,0.0,0.0,0.0,0.0,0.0,0.0,0.0,0.0,0.0,0.0,0.0,0.0,0.0,0.0,0.0,0.0,0.0,0.0,0.0,0.0,0.0,0.0,0.0,0.0,0.0,0.0,0.0,0.0,0.0,0.0,0.0,0.0,0.0,0.0,0.0,0.0,0.0,0.0,0.0,0.0,0.0,0.0,0.0,0.0,0.0,0.0,0.0,0.0,0.0,0.0,0.0,0.0,0.0,0.0,0.0,0.0,0.0,0.0,0.0,0.0,0.0,0.0,0.0,0.0,0.0,0.0,0.0,0.0,0.0,0.0,4.8397,5.0237,4.958,4.6388,4.4455,4.2046,0.0,0.0,0.0,0.0,0.0,0.0,0.0,0.0,0.0,0.0,0.0,0.0,0.0,0.0,0.0,0.0,0.0,0.0,0.0,0.0,0.0,0.0,0.0,0.0,0.0,0.0,0.0,0.0,0.0,0.0,0.0,0.0,0.0,0.0,0.0,0.0,0.0,0.0,0.0,0.0,0.0,0.0,0.0,0.0,0.0,0.0,0.0,0.0,0.0,0.0,0.0,0.0,0.0,0.0,0.0,0.0,0.0,0.0,0.0,0.0,0.0,0.0,0.0,0.0,0.0,0.0,0.0,0.0,0.0,0.0,0.0,0.0,0.0,0.0,0.0,0.0,0.0,0.0,0.0,0.0,0.0,0.0,0.0,0.0,0.0,0.0,0.0,0.0,0.0,0.0,0.0,0.0,0.0,0.0,0.0,0.0,0.0,0.0,0.0,0.0,0.0,0.0,0.0,0.0,0.0,0.0,0.0,0.0,0.0,5.2284,5.3996,5.3055,4.9428,4.7736,4.5652,0.0,0.0,0.0,0.0,0.0,0.0,0.0,0.0,0.0,0.0,0.0,0.0,0.0,0.0,0.0,0.0,0.0,0.0,0.0,0.0,0.0,0.0,0.0,0.0,0.0,0.0,0.0,0.0,0.0,0.0,0.0,0.0,0.0,0.0,0.0,0.0,0.0,0.0,0.0,0.0,0.0,0.0,0.0,0.0,0.0,0.0,0.0,0.0,0.0,0.0,0.0,0.0,0.0,0.0,0.0,0.0,0.0,0.0,0.0,0.0,0.0,0.0,0.0,0.0,0.0,0.0,0.0,0.0,0.0,0.0,0.0,0.0,0.0,0.0,0.0,0.0,0.0,0.0,0.0,0.0,0.0,0.0,0.0,0.0,0.0,0.0,0.0,0.0,0.0,0.0,0.0,0.0,0.0,0.0,0.0,0.0,0.0,0.0,0.0,0.0,0.0,0.0,0.0,0.0,0.0,0.0,0.0,0.0,5.2072,5.6926,5.7182,5.5908,5.2977,5.1463,4.9235,0.0,0.0,0.0,0.0,0.0,0.0,0.0,0.0,0.0,0.0,0.0,0.0,0.0,0.0,0.0,0.0,0.0,0.0,0.0,0.0,0.0,0.0,0.0,0.0,0.0,0.0,0.0,0.0,0.0,0.0,0.0,0.0,0.0,0.0,0.0,0.0,0.0,0.0,0.0,0.0,0.0,0.0,0.0,0.0,0.0,0.0,0.0,0.0,0.0,0.0,0.0,0.0,0.0,0.0,0.0,0.0,0.0,0.0,0.0,0.0,0.0,0.0,0.0,0.0,0.0,0.0,0.0,0.0,0.0,0.0,0.0,0.0,0.0,0.0,0.0,0.0,0.0,0.0,0.0,0.0,0.0,0.0,0.0,0.0,0.0,0.0,0.0,0.0,0.0,0.0,0.0,0.0,0.0,0.0,0.0,0.0,0.0,0.0,0.0,0.0,0.0,0.0,0.0,0.0,0.0,0.0,0.0,0.0,5.7231,6.1047,5.9613,5.8118,5.6816,5.5163,5.2477,0.0,0.0,0.0,0.0,0.0,0.0,0.0,0.0,0.0,0.0,0.0,0.0,0.0,0.0,0.0,0.0,0.0,0.0,0.0,0.0,0.0,0.0,0.0,0.0,0.0,0.0,0.0,0.0,0.0,0.0,0.0,0.0,0.0,0.0,0.0,0.0,0.0,0.0,0.0,0.0,0.0,0.0,0.0,0.0,0.0,0.0,0.0,0.0,0.0,0.0,0.0,0.0,0.0,0.0,0.0,0.0,0.0,0.0,0.0,0.0,0.0,0.0,0.0,0.0,0.0,0.0,0.0,0.0,0.0,0.0,0.0,0.0,0.0,0.0,0.0,0.0,0.0,0.0,0.0,0.0,0.0,0.0,0.0,0.0,0.0,0.0,0.0,0.0,0.0,0.0,0.0,0.0,0.0,0.0,0.0,0.0,0.0,0.0,0.0,0.0,0.0,0.0,0.0,0.0,0.0,0.0,0.0,0.0,5.7741,6.0906,5.9474,5.887,5.9384,5.7308,5.4345,0.0,0.0,0.0,0.0,0.0,0.0,0.0,0.0,0.0,0.0,0.0,0.0,0.0,0.0,0.0,0.0,0.0,0.0,0.0,0.0,0.0,0.0,0.0,0.0,0.0,0.0,0.0,0.0,0.0,0.0,0.0,0.0,0.0,0.0,0.0,0.0,0.0,0.0,0.0,0.0,0.0,0.0,0.0,0.0,0.0,0.0,0.0,0.0,4.2068,0.0,0.0,0.0,0.0,0.0,0.0,0.0,0.0,0.0,0.0,0.0,0.0,0.0,0.0,0.0,0.0,0.0,0.0,0.0,0.0,0.0,0.0,0.0,0.0,0.0,0.0,0.0,0.0,0.0,0.0,0.0,0.0,0.0,0.0,0.0,0.0,0.0,0.0,0.0,0.0,0.0,0.0,0.0,0.0,0.0,0.0,0.0,0.0,0.0,0.0,0.0,0.0,0.0,0.0,0.0,0.0,0.0,0.0,0.0,5.9586,6.1435,6.0368,5.984,6.0041,5.9005,5.6201,0.0,0.0,0.0,0.0,0.0,0.0,0.0,0.0,0.0,0.0,0.0,0.0,0.0,0.0,0.0,0.0,0.0,0.0,0.0,0.0,0.0,0.0,0.0,0.0,0.0,0.0,0.0,0.0,0.0,0.0,0.0,0.0,0.0,0.0,0.0,0.0,0.0,0.0,0.0,0.0,0.0,0.0,0.0,0.0,0.0,0.0,0.0,0.0,0.0,0.0,0.0,0.0,0.0,0.0,0.0,0.0,0.0,0.0,0.0,0.0,0.0,0.0,0.0,0.0,0.0,0.0,0.0,0.0,0.0,0.0,0.0,0.0,0.0,0.0,0.0,0.0,0.0,0.0,0.0,0.0,0.0,0.0,0.0,0.0,0.0,0.0,0.0,0.0,0.0,0.0,0.0,0.0,0.0,0.0,0.0,0.0,0.0,0.0,0.0,0.0,0.0,0.0,0.0,0.0,0.0,0.0,0.0,5.9054,6.1517,6.2122,6.1396,6.0807,6.0366,6.037,5.7916,5.2745,0.0,0.0,0.0,0.0,0.0,0.0,0.0,0.0,0.0,0.0,0.0,0.0,0.0,0.0,0.0,0.0,0.0,0.0,0.0,0.0,0.0,0.0,0.0,0.0,0.0,0.0,0.0,0.0,0.0,0.0,0.0,0.0,0.0,0.0,0.0,0.0,0.0,0.0,3.9782,4.3781,0.0,0.0,0.0,0.0,0.0,0.0,0.0,0.0,4.419,0.0,0.0,0.0,0.0,0.0,0.0,0.0,0.0,0.0,0.0,0.0,0.0,0.0,0.0,0.0,0.0,0.0,0.0,0.0,0.0,0.0,0.0,0.0,0.0,0.0,0.0,0.0,0.0,0.0,0.0,0.0,0.0,0.0,0.0,0.0,0.0,0.0,0.0,0.0,0.0,0.0,0.0,0.0,0.0,0.0,0.0,0.0,0.0,0.0,0.0,0.0,0.0,0.0,0.0,0.0,0.0,5.7972,6.0148,6.1464,6.1996,6.1379,6.1329,6.1933,6.149,5.8968,5.4237,0.0,0.0,0.0,0.0,0.0,0.0,0.0,0.0,0.0,0.0,0.0,0.0,0.0,0.0,0.0,0.0,0.0,0.0,0.0,0.0,0.0,0.0,0.0,0.0,0.0,0.0,0.0,0.0,0.0,0.0,0.0,0.0,0.0,0.0,0.0,0.0,0.0,0.0,0.0,4.9578,5.097,0.0,0.0,0.0,0.0,0.0,0.0,0.0,0.0,4.5708,0.0,0.0,0.0,0.0,0.0,0.0,0.0,0.0,0.0,0.0,0.0,0.0,0.0,0.0,0.0,0.0,0.0,0.0,0.0,0.0,0.0,0.0,0.0,0.0,0.0,0.0,0.0,0.0,0.0,0.0,0.0,0.0,0.0,0.0,0.0,0.0,0.0,0.0,0.0,0.0,0.0,0.0,0.0,0.0,0.0,0.0,0.0,0.0,0.0,0.0,0.0,0.0,0.0,0.0,0.0,5.7449,6.0715,6.2222,6.2041,6.2096,6.2164,6.2195,6.2407,5.9919,0.0,0.0,0.0,0.0,0.0,0.0,0.0,0.0,0.0,0.0,0.0,0.0,0.0,0.0,0.0,0.0,0.0,0.0,0.0,0.0,0.0,0.0,0.0,0.0,0.0,0.0,0.0,0.0,0.0,0.0,0.0,0.0,0.0,0.0,0.0,0.0,0.0,0.0,0.0,0.0,5.1725,5.2811,5.2823,0.0,0.0,0.0,0.0,0.0,0.0,4.7019,4.6152,0.0,0.0,0.0,0.0,0.0,0.0,0.0,0.0,0.0,0.0,0.0,0.0,0.0,0.0,0.0,0.0,0.0,0.0,0.0,0.0,0.0,0.0,0.0,0.0,0.0,0.0,0.0,0.0,0.0,0.0,0.0,0.0,0.0,0.0,0.0,0.0,0.0,0.0,0.0,0.0,0.0,0.0,0.0,0.0,0.0,0.0,0.0,0.0,0.0,0.0,0.0,0.0,0.0,0.0,0.0,5.6405,6.0529,6.2445,6.2028,6.2621,6.2657,6.2064,6.3198,6.0743,0.0,0.0,0.0,0.0,0.0,0.0,0.0,0.0,0.0,0.0,0.0,0.0,0.0,0.0,0.0,0.0,0.0,0.0,0.0,0.0,0.0,0.0,0.0,0.0,0.0,0.0,0.0,0.0,0.0,0.0,0.0,0.0,0.0,0.0,0.0,0.0,0.0,0.0,0.0,0.0,0.0,5.4376,5.52,5.2748,0.0,0.0,0.0,0.0,5.0476,4.9184,0.0,0.0,0.0,0.0,0.0,0.0,0.0,0.0,0.0,0.0,0.0,0.0,0.0,0.0,0.0,0.0,0.0,0.0,0.0,0.0,0.0,0.0,0.0,0.0,0.0,0.0,0.0,0.0,0.0,0.0,0.0,0.0,0.0,0.0,0.0,0.0,0.0,0.0,0.0,0.0,0.0,0.0,0.0,0.0,0.0,0.0,0.0,0.0,0.0,0.0,0.0,0.0,0.0,0.0,0.0,0.0,5.6259,5.8916,6.0798,6.1955,6.21,6.21,6.2028,6.3721,6.1303,0.0,0.0,0.0,0.0,0.0,0.0,0.0,0.0,0.0,0.0,0.0,0.0,0.0,0.0,0.0,0.0,0.0,0.0,0.0,0.0,0.0,0.0,0.0,0.0,0.0,0.0,0.0,0.0,0.0,0.0,0.0,0.0,0.0,0.0,0.0,0.0,0.0,0.0,0.0,0.0,0.0,5.746,5.4325,5.5374,5.5865,0.0,0.0,5.419,5.4884,5.4767,0.0,0.0,0.0,0.0,0.0,0.0,0.0,0.0,0.0,0.0,0.0,0.0,0.0,0.0,0.0,0.0,0.0,0.0,0.0,0.0,0.0,0.0,0.0,0.0,0.0,0.0,0.0,0.0,0.0,0.0,0.0,0.0,0.0,0.0,0.0,0.0,0.0,0.0,0.0,0.0,0.0,0.0,0.0,0.0,0.0,0.0,0.0,0.0,0.0,0.0,0.0,0.0,0.0,0.0,0.0,5.3754,5.8312,6.0633,6.2037,6.2657,6.3128,6.2947,6.2028,6.4689,6.2579,0.0,0.0,0.0,0.0,0.0,0.0,0.0,0.0,0.0,0.0,0.0,0.0,0.0,0.0,0.0,0.0,0.0,0.0,0.0,0.0,0.0,0.0,0.0,0.0,0.0,0.0,0.0,0.0,0.0,0.0,0.0,0.0,0.0,0.0,0.0,0.0,0.0,0.0,0.0,0.0,0.0,0.0,5.9834,5.925,0.0,0.0,0.0,5.7629,5.8328,0.0,0.0,0.0,0.0,0.0,0.0,0.0,0.0,0.0,0.0,0.0,0.0,0.0,0.0,0.0,0.0,0.0,0.0,0.0,0.0,0.0,0.0,0.0,0.0,0.0,0.0,0.0,0.0,0.0,0.0,0.0,0.0,0.0,0.0,0.0,0.0,0.0,0.0,0.0,0.0,0.0,0.0,0.0,0.0,0.0,0.0,0.0,0.0,0.0,0.0,0.0,0.0,0.0,0.0,0.0,0.0,0.0,5.9928,6.2322,6.3613,6.383,6.4178,6.3816,6.2693,6.5171,0.0,0.0,0.0,0.0,0.0,0.0,0.0,0.0,0.0,0.0,0.0,0.0,0.0,0.0,0.0,0.0,0.0,0.0,0.0,0.0,0.0,0.0,0.0,0.0,0.0,0.0,0.0,3.1266,0.0,0.0,0.0,0.0,0.0,0.0,0.0,0.0,0.0,0.0,0.0,0.0,0.0,0.0,6.1384,6.4104,6.3351,6.3229,0.0,0.0,6.1927,6.2238,6.1321,5.9636,0.0,0.0,0.0,0.0,0.0,0.0,0.0,0.0,0.0,0.0,0.0,0.0,0.0,0.0,0.0,0.0,0.0,0.0,0.0,0.0,0.0,0.0,0.0,0.0,0.0,0.0,0.0,0.0,0.0,0.0,0.0,0.0,0.0,0.0,0.0,0.0,0.0,0.0,0.0,0.0,0.0,0.0,0.0,0.0,0.0,0.0,0.0,0.0,0.0,0.0,0.0,0.0,0.0,0.0,5.6004,5.9928,6.2867,6.4685,6.5374,6.4758,6.4359,6.4229,6.4601,6.1488,0.0,0.0,0.0,0.0,0.0,0.0,0.0,0.0,0.0,0.0,0.0,0.0,0.0,0.0,0.0,0.0,0.0,0.0,0.0,0.0,0.0,0.0,0.0,0.0,0.0,0.0,0.0,0.0,0.0,0.0,0.0,0.0,0.0,0.0,0.0,0.0,0.0,0.0,0.0,0.0,0.0,6.1707,6.3822,6.7631,6.9884,0.0,6.887,6.8511,6.7313,6.5866,6.2994,5.7443,0.0,0.0,0.0,0.0,0.0,0.0,0.0,0.0,0.0,0.0,0.0,0.0,0.0,0.0,0.0,0.0,0.0,0.0,0.0,0.0,0.0,0.0,0.0,0.0,0.0,0.0,0.0,0.0,0.0,0.0,0.0,0.0,0.0,0.0,0.0,0.0,0.0,0.0,0.0,0.0,0.0,0.0,0.0,0.0,0.0,0.0,0.0,0.0,0.0,0.0,0.0,0.0,0.0,5.7474,6.1423,6.3883,6.5301,6.5591,6.5772,6.541,6.4396,6.5967,6.4421,0.0,0.0,0.0,0.0,0.0,0.0,0.0,0.0,0.0,0.0,0.0,0.0,0.0,0.0,0.0,0.0,0.0,0.0,0.0,0.0,0.0,0.0,0.0,0.0,0.0,0.0,0.0,0.0,4.3558,4.4802,4.4403,0.0,0.0,0.0,0.0,0.0,0.0,0.0,0.0,0.0,0.0,6.7175,6.9235,7.1097,0.0,0.0,7.2956,7.2368,7.2616,6.9721,6.6415,6.3335,6.0225,0.0,0.0,0.0,0.0,0.0,0.0,0.0,0.0,0.0,0.0,0.0,0.0,0.0,0.0,0.0,0.0,0.0,0.0,0.0,0.0,0.0,0.0,0.0,0.0,0.0,0.0,0.0,0.0,0.0,0.0,0.0,0.0,0.0,0.0,0.0,0.0,0.0,0.0,0.0,0.0,0.0,0.0,0.0,0.0,0.0,0.0,0.0,0.0,0.0,0.0,0.0,0.0,5.9004,6.2698,6.5335,6.6801,6.704,6.7329,6.6982,6.5931,6.7106,6.606,0.0,0.0,0.0,0.0,0.0,0.0,0.0,0.0,0.0,0.0,0.0,0.0,0.0,0.0,0.0,0.0,0.0,0.0,0.0,0.0,0.0,0.0,0.0,0.0,0.0,0.0,0.0,0.0,4.7248,4.7591,4.5526,0.0,0.0,0.0,0.0,0.0,0.0,0.0,0.0,0.0,0.0,7.154,7.394,7.4673,7.5478,7.6913,7.5764,7.4726,7.4563,7.1978,6.9314,6.7207,0.0,0.0,0.0,0.0,0.0,0.0,0.0,0.0,0.0,0.0,0.0,0.0,0.0,0.0,0.0,0.0,0.0,0.0,0.0,0.0,0.0,0.0,0.0,0.0,0.0,0.0,0.0,2.7148,0.0,0.0,2.6213,0.0,0.0,0.0,0.0,0.0,0.0,0.0,0.0,0.0,0.0,0.0,0.0,0.0,0.0,0.0,0.0,0.0,0.0,0.0,0.0,0.0,0.0,6.0327,6.3573,6.7186,6.9445,7.0206,6.9554,6.9119,6.9011,6.7655,6.5431,6.2304,0.0,0.0,0.0,0.0,0.0,0.0,0.0,0.0,0.0,0.0,0.0,0.0,0.0,0.0,0.0,0.0,0.0,0.0,0.0,0.0,0.0,0.0,0.0,0.0,0.0,0.0,4.6302,4.8615,4.8796,0.0,0.0,0.0,0.0,0.0,0.0,0.0,0.0,0.0,6.7188,7.0591,7.3778,7.7065,7.8454,7.8744,7.7783,7.7088,7.555,7.2512,7.2423,7.153,0.0,0.0,0.0,0.0,0.0,0.0,0.0,0.0,0.0,0.0,0.0,0.0,0.0,0.0,0.0,0.0,0.0,0.0,0.0,0.0,0.0,0.0,0.0,0.0,0.0,0.0,0.0,3.4422,3.3445,0.0,0.0,0.0,0.0,0.0,0.0,0.0,0.0,0.0,0.0,0.0,5.4542,5.6914,0.0,0.0,0.0,0.0,0.0,0.0,0.0,0.0,0.0,0.0,0.0,0.0,6.1433,6.5127,6.8348,7.0387,7.1096,7.1386,7.1024,7.0025,6.9973,6.7751,6.3162,0.0,0.0,0.0,0.0,0.0,0.0,0.0,0.0,0.0,0.0,0.0,0.0,0.0,0.0,0.0,0.0,0.0,0.0,0.0,0.0,0.0,0.0,0.0,0.0,0.0,4.8196,0.0,0.0,0.0,0.0,0.0,0.0,0.0,0.0,0.0,0.0,0.0,6.8805,7.1928,7.5727,7.8819,8.0312,8.0873,8.089,0.0,0.0,0.0,0.0,0.0,0.0,0.0,0.0,0.0,0.0,0.0,0.0,0.0,0.0,6.7339,6.1454,6.0165,5.9956,5.9907,0.0,0.0,0.0,0.0,0.0,0.0,0.0,0.0,0.0,0.0,0.0,0.0,0.0,0.0,4.0462,4.0077,3.9255,0.0,0.0,0.0,0.0,0.0,0.0,0.0,0.0,5.7741,5.9441,5.9743,6.1818,6.1709,0.0,5.9149,5.706,0.0,0.0,0.0,0.0,0.0,0.0,0.0,0.0,6.3364,6.7569,7.0272,7.1857,7.2311,7.2855,7.2653,7.1675,7.182,6.975,6.5162,6.3262,6.0991,0.0,0.0,0.0,0.0,0.0,0.0,0.0,0.0,0.0,0.0,0.0,0.0,0.0,0.0,0.0,0.0,0.0,0.0,0.0,0.0,0.0,0.0,0.0,5.147,0.0,0.0,0.0,0.0,0.0,0.0,0.0,0.0,0.0,6.4433,6.9543,7.4165,7.6301,7.9504,8.1903,8.2735,0.0,0.0,0.0,0.0,0.0,0.0,0.0,7.6983,7.7056,7.4957,7.2923,7.199,7.3694,7.4883,7.3952,0.0,0.0,6.7977,6.6396,6.6267,6.6494,6.7587,6.833,6.7795,6.9212,7.08,0.0,0.0,0.0,0.0,4.2148,0.0,0.0,0.0,4.4519,4.5522,0.0,4.4482,0.0,0.0,0.0,0.0,4.9669,5.5068,0.0,0.0,6.3411,6.4952,6.5769,6.5856,6.5892,6.5906,6.5946,6.5186,6.3414,5.6733,0.0,0.0,0.0,0.0,0.0,0.0,6.6134,7.0725,7.2833,7.3905,7.3977,7.3977,7.3977,7.3905,7.3144,7.1261,6.8256,6.5917,6.2816,5.8795,5.2776,0.0,0.0,0.0,0.0,0.0,0.0,0.0,0.0,0.0,0.0,0.0,0.0,0.0,0.0,0.0,0.0,0.0,0.0,0.0,0.0,5.215,0.0,0.0,0.0,0.0,0.0,0.0,0.0,0.0,0.0,7.3678,6.9997,7.3958,7.8027,8.0328,0.0,0.0,0.0,0.0,8.4195,8.4162,8.2867,8.1427,7.9861,8.0018,8.0177,7.9644,0.0,0.0,7.9083,8.0459,8.0952,7.8499,8.0218,8.0955,7.7059,7.4527,7.3572,7.4809,7.5064,7.5457,7.6242,7.7937,7.9888,5.155,0.0,0.0,0.0,0.0,5.0301,5.245,5.5529,5.5376,5.5071,5.4574,5.3824,0.0,0.0,0.0,0.0,0.0,0.0,6.2373,6.4503,6.5727,6.6976,6.8216,6.8237,6.8216,6.8252,6.8826,6.8914,6.8406,6.6874,6.2403,5.546,0.0,0.0,0.0,0.0,6.9915,7.2247,7.3946,7.5027,7.5587,7.5623,7.5334,7.4774,7.3977,7.2855,7.1422,7.0154,6.7649,6.3769,5.9644,0.0,0.0,0.0,0.0,0.0,0.0,0.0,0.0,0.0,0.0,0.0,0.0,0.0,0.0,0.0,0.0,0.0,0.0,0.0,5.2943,5.5762,5.7539,0.0,0.0,0.0,0.0,0.0,0.0,0.0,0.0,0.0,7.8801,8.0929,8.2881,0.0,0.0,8.5861,8.6193,8.6544,8.6548,8.5869,8.585,0.0,8.4338,8.3947,8.3918,8.43,8.4183,8.3723,8.2979,8.314,8.3068,8.2255,8.3302,8.3999,8.3486,8.166,8.0417,8.0577,8.0469,8.0464,8.0939,8.1709,8.2524,5.9096,5.5145,5.3591,5.4252,5.6275,5.6635,5.8434,6.115,6.143,6.1236,6.0688,6.075,5.9599,5.7685,5.819,0.0,0.0,0.0,6.6431,6.7847,6.8742,6.9595,7.0348,7.0408,7.0378,7.0241,7.0713,7.1247,7.18,7.2645,6.97,6.3341,0.0,6.6642,6.6185,6.9763,7.286,7.5217,7.6105,7.6765,7.7217,7.6927,7.6384,7.5623,7.5116,7.4319,7.3217,7.279,7.1153,6.8107,6.5008,6.2009,0.0,0.0,0.0,0.0,0.0,0.0,0.0,0.0,0.0,0.0,0.0,4.5116,4.2814,0.0,0.0,0.0,5.5366,5.7723,6.0494,6.2189,0.0,0.0,0.0,0.0,0.0,0.0,0.0,7.7929,8.1001,8.3356,8.4986,8.5908,8.6314,8.5876,8.6548,8.7132,8.723,0.0,8.796,8.7533,8.7857,8.8001,8.7493,8.6964,8.6864,8.7454,8.699,8.6501,8.6444,8.619,8.594,8.599,8.6492,8.7157,8.7706,8.6922,8.595,8.5162,8.4807,8.4728,8.4865,8.5107,8.5581,6.5383,6.5091,6.1745,6.0887,6.1824,6.1936,6.2362,6.3111,6.4101,6.491,6.5527,6.5683,6.5419,6.4868,6.5152,0.0,6.7973,6.9802,7.0807,7.1135,7.2174,7.2548,7.2288,7.2453,7.2363,7.2102,7.2169,7.2896,7.4175,7.5188,7.4926,7.3477,7.1313,7.1296,7.3218,7.3515,7.5362,7.8831,7.8823,7.8792,7.8702,7.7977,7.7253,7.6492,7.642,7.5732,7.4392,7.4393,7.3647,7.1909,6.9287,6.6676,6.4126,0.0,0.0,0.0,0.0,0.0,0.0,0.0,0.0,0.0,0.0,0.0,0.0,0.0,0.0,5.9849,6.5612,0.0,7.0049,6.9787,0.0,0.0,0.0,6.9424,7.1345,7.5781,7.9666,8.2175,0.0,0.0,8.8799,8.9127,8.8602,8.6757,8.7075,8.7552,8.772,8.8372,8.8891,8.9223,8.9336,8.9433,8.9585,8.9291,8.9157,8.9479,8.952,8.9413,8.9413,8.9239,8.9178,8.9085,8.9675,9.0046,9.0249,9.0589,9.0572,8.887,8.8263,8.8065,8.7995,8.8404,8.8717,6.6903,6.7927,6.7039,6.6203,6.5404,6.5249,6.6135,6.7644,6.7826,6.847,6.9352,6.9299,6.9429,6.9878,7.135,7.1715,7.1267,7.2995,7.3421,7.2814,7.3711,7.4062,7.3857,7.4167,7.4391,7.459,7.5447,7.6101,7.6654,7.7657,7.8249,7.8448,7.7903,7.6441,7.4348,7.7774,7.9092,7.8084,7.925,7.9474,7.8738,7.8521,7.8303,7.8122,7.7543,7.7326,7.7543,7.6997,7.6253,7.5205,7.3897,7.2744,7.1552,6.4366,0.0,0.0,0.0,0.0,0.0,0.0,0.0,0.0,0.0,5.5977,5.2483,0.0,6.2592,0.0,7.2069,7.367,7.0441,7.1629,0.0,0.0,7.3358,7.4876,8.0603,8.1346,8.2993,8.7155,8.8399,8.9204,8.9873,9.0527,9.0697,9.0052,8.9363,8.8935,8.9011,9.0042,9.082,9.0903,9.1217,9.1566,9.1556,9.1545,9.1454,9.1563,9.1463,9.1368,9.1332,9.1171,9.098,9.1016,9.1599,9.204,9.2121,9.2616,9.2718,9.2071,9.0881,8.9812,8.9681,8.9809,9.0007,6.8659,6.9449,6.9481,6.9074,6.8383,6.8185,6.8743,6.9856,7.0175,7.0436,7.0639,7.1366,7.227,7.3328,7.4505,7.4501,7.3736,7.5189,7.5492,7.4845,7.6192,7.6692,7.6481,7.7015,7.7283,7.7388,7.8268,7.8711,7.8748,7.9633,8.025,8.0616,8.0616,7.956,7.7711,8.065,8.1343,7.9512,8.0681,8.0615,7.9281,7.9245,7.8773,7.7843,7.8404,7.8584,7.8397,7.8753,7.8171,7.6597,7.5847,7.5095,7.4253,6.9652,6.7091,0.0,0.0,0.0,0.0,0.0,0.0,0.0,0.0,0.0,0.0,0.0,6.846,7.1532,7.6654,7.844,7.5272,7.6912,7.881,8.0404,7.9822,8.1036,8.5293,8.5471,8.6463,8.9428,9.0035,9.0475,9.1109,9.1676,9.1985,9.186,9.1392,9.0919,9.0773,9.1387,9.1887,9.2042,9.2283,9.2616,9.294,9.3012,9.3114,9.3294,9.3272,9.3163,9.3053,9.2885,9.2773,9.2733,9.3032,9.334,9.3353,9.3432,9.3556,9.3274,9.2495,9.1681,9.1286,9.1213,9.1389,7.0257,7.027,7.0533,7.0743,7.0974,7.0964,7.0894,7.0919,7.1714,7.1725,7.1276,7.2926,7.439,7.5553,7.5948,7.5889,7.5565,7.6695,7.7107,7.7022,7.8664,7.934,7.9157,7.9985,8.0223,8.0115,8.0626,8.0855,8.0736,8.1173,8.1449,8.1453,8.1345,8.1398,8.1609,8.2548,8.2671,8.1924,8.2098,8.145,7.9968,8.0058,7.9203,7.743,7.9391,8.0021,7.8897,8.0177,7.9938,7.7729,7.7091,7.634,7.5411,7.4869,7.3218,0.0,7.0168,0.0,0.0,0.0,0.0,0.0,0.0,0.0,0.0,7.3136,7.5136,7.4846,8.0117,8.3027,8.169,8.3121,8.4645,8.5856,8.635,8.6768,8.743,8.8629,8.9758,9.0552,9.1109,9.1667,9.2271,9.265,9.2899,9.292,9.3138,9.3101,9.2788,9.2652,9.2658,9.2842,9.2971,9.344,9.3946,9.409,9.4243,9.4684,9.4589,9.4645,9.4518,9.4406,9.4352,9.4313,9.4339,9.4339,9.4303,9.4132,9.3993,9.3994,9.3794,9.3344,9.2838,9.2656,9.2702,7.0505,7.1138,7.1931,7.271,7.3536,7.415,7.3807,7.2862,7.2918,7.3569,7.4704,7.5855,7.6319,7.6309,7.7353,7.7593,7.7157,7.7604,7.8105,7.8559,7.8914,7.9357,7.9818,8.0751,8.1287,8.1546,8.1904,8.2544,8.3348,8.2128,8.2256,8.3497,8.2719,8.2409,8.2567,0.0,0.0,0.0,8.1024,7.9831,8.016,8.0897,8.1092,8.0689,8.178,0.0,8.2926,8.2669,8.2267,8.1759,8.163,0.0,0.0,0.0,0.0,0.0,0.0,0.0,0.0,0.0,0.0,0.0,7.5696,7.5426,7.4218,7.93,8.1853,8.006,8.3192,8.5002,8.4135,8.5512,8.6563,8.6815,8.7957,8.9099,8.9821,9.0722,9.1607,9.2403,9.2579,9.2704,9.29,9.3468,9.3903,9.3939,9.4508,9.487,9.4786,9.4166,9.3861,9.3939,9.4373,9.4865,9.5103,9.5082,9.5133,9.5214,9.4951,9.4985,9.5342,9.5207,9.5242,9.5601,9.5886,9.5815,9.5815,9.5804,9.5616,9.5558,9.5451,9.5118,9.3985,9.3721,9.3848,7.22,7.2583,7.355,7.4216,0.0,7.517,7.5287,7.5048,7.4573,7.5105,7.636,7.6874,7.7381,7.7872,7.8596,7.8938,7.9054,7.9201,7.9415,7.9771,8.0473,8.1025,8.1354,8.2128,8.276,8.3324,8.3443,8.3715,8.416,8.3741,8.3673,8.3935,8.3428,8.3156,8.3156,8.3574,8.3664,8.3352,8.2046,8.134,8.1288,8.2103,8.2191,8.155,8.3148,0.0,0.0,0.0,0.0,0.0,0.0,0.0,0.0,0.0,0.0,7.8823,7.7148,7.6061,7.5972,7.6621,7.817,8.0856,8.2143,8.1943,8.0006,8.3193,8.4931,8.4152,8.589,8.7032,8.7032,8.7394,8.8099,8.9205,8.9748,9.0436,9.1595,9.2139,9.2718,9.3422,9.3587,9.3732,9.4131,9.4493,9.4783,9.4819,9.5109,9.5419,9.5383,9.5057,9.4783,9.4783,9.5093,9.5362,9.5456,9.5782,9.5818,9.5522,9.5533,9.5535,9.533,9.5123,9.5041,9.517,9.5494,9.5779,9.5792,9.5971,9.6127,9.6127,9.6067,9.5996,9.5505,9.5171,9.4824,7.3934,7.3979,7.5014,7.5418,7.5396,7.5752,7.6462,7.7241,7.6426,0.0,0.0,7.7496,7.823,7.9481,7.9654,7.9974,8.0511,8.0674,8.0844,8.0985,8.2314,8.296,8.3113,8.3692,8.4347,8.4956,8.486,8.4798,8.4754,8.514,8.4893,8.4154,8.3955,8.3756,8.3647,8.3738,8.3502,8.2918,8.3319,8.3157,8.2396,8.3175,8.3066,8.1862,8.4241,8.4964,8.3859,8.5221,8.5086,8.3177,8.2406,8.215,8.2243,8.2112,8.2887,8.4791,8.4854,8.4715,8.4554,8.4464,8.4718,8.5276,8.6508,8.6689,8.5402,8.5909,8.6561,8.7158,8.8063,8.8915,8.9531,8.933,8.9837,9.1813,9.1523,9.1776,9.3008,9.337,9.3732,9.4276,9.442,9.4638,9.5217,9.5326,9.5419,9.5383,9.5383,9.5419,9.5419,9.5383,9.5326,9.5326,9.5383,9.5419,9.5492,9.5854,9.6071,9.5528,9.5987,9.6119,9.5396,9.5148,9.5091,9.5265,9.5422,9.5851,9.5899,9.6494,9.6708,9.691,9.6934,9.7075,9.7549,9.7155,9.6486,7.4125,7.4823,7.5926,7.6411,7.6476,7.7464,7.8346,7.9028,7.8248,7.8304,7.8998,7.9126,7.9546,8.017,8.0427,8.0545,8.0548,8.1384,8.2074,8.2615,8.3402,8.402,8.4522,8.5167,8.5541,8.5634,8.5617,8.595,8.6429,8.5192,8.4722,8.5109,8.4457,8.406,8.4078,8.4644,8.4589,8.3895,8.3082,8.2611,8.2467,8.3567,8.4087,8.3975,8.5704,8.6669,8.6466,8.6684,8.6701,8.6334,8.6207,8.6481,8.7142,8.707,8.729,8.7621,8.7536,8.7411,8.7321,8.7067,8.7132,8.7667,8.8092,8.8111,8.7756,8.7809,8.7918,8.8099,8.9459,9.0292,9.0509,9.1523,9.232,9.2827,9.3313,9.3784,9.4022,9.4602,9.5,9.5145,9.5238,9.5217,9.5326,9.5419,9.5419,9.5419,9.5637,9.5471,9.5543,9.5419,9.5419,9.5419,9.5419,9.5419,9.56,9.5492,9.5745,9.5456,9.5859,9.6363,9.6482,9.6741,9.7096,9.7789,9.7873,9.8087,9.8099,9.8824,9.9121,9.9241,9.9525,10.0035,10.0142,9.9951,9.9374,7.5338,7.5682,7.6803,7.7113,7.7053,7.8204,7.8989,7.9502,7.9591,7.9771,8.0048,8.012,8.0545,8.1222,8.1339,8.1851,8.2631,8.2987,8.349,8.412,8.4811,8.5185,8.5351,8.5688,8.6004,8.6407,8.6004,8.6224,8.6867,8.6138,8.5905,8.6093,8.5481,8.5245,8.5371,8.5573,8.5555,8.5335,8.4444,8.3953,8.399,8.4933,8.5459,8.5423,8.6384,8.6838,8.6838,8.7346,8.7655,8.7655,8.8078,8.8482,8.8812,8.8867,8.8849,8.8849,8.9236,8.9367,8.9258,8.984,9.0194,9.0344,9.1356,9.1991,9.2087,9.0608,9.0157,9.1306,9.1776,9.2102,9.2501,9.2827,9.3189,9.3603,9.3965,9.4363,9.4783,9.513,9.5419,9.5419,9.5419,9.5419,9.5419,9.5419,9.5637,9.5942,9.6361,9.6666,9.6666,9.6666,9.6521,9.618,9.6434,9.6666,9.6702,9.7101,9.7137,9.6796,9.7218,9.7404,9.738,9.7582,9.7975,9.8241,9.8801,9.9301,9.9348,9.999,10.0383,10.0525,10.0704,10.0965,10.0965,10.0767,10.0194,7.636,7.6454,7.7393,7.7791,7.7863,7.8744,7.9473,8.0097,8.0742,8.1077,8.1226,8.1077,8.156,8.2489,8.2563,8.3343,8.454,8.4694,8.4963,8.5493,8.616,8.6347,8.6162,8.6196,8.6473,8.6953,8.6436,8.6473,8.7027,8.7046,8.696,8.6768,8.6483,8.6374,8.6537,8.6374,8.6374,8.6501,8.5934,8.557,8.5481,8.6137,8.652,8.6757,8.6936,8.7152,8.7335,8.8062,8.8463,8.85,8.9069,8.9546,8.9913,8.995,9.0097,9.0501,9.1106,9.1437,9.1509,9.2492,9.3066,9.3032,9.4396,9.5413,9.5576,9.353,9.2602,9.3882,9.3531,9.3515,9.3929,9.3841,9.3805,9.442,9.4472,9.4819,9.5528,9.5673,9.576,9.589,9.5963,9.5978,9.5963,9.5963,9.6216,9.6811,9.7427,9.7789,9.7789,9.7897,9.7752,9.7427,9.7535,9.768,9.7825,9.8187,9.826,9.7861,9.8339,9.8381,9.8131,9.8339,9.8698,9.8871,9.9504,10.0026,10.0204,10.0775,10.1203,10.1275,10.1525,10.1607,10.1579,10.1218,10.0543,7.6533,7.7225,7.7651,7.8387,7.9217,7.9409,8.0328,8.1634,8.1857,8.2303,8.2823,8.2229,8.2749,8.4049,8.4124,8.4592,8.5521,8.6211,8.6474,8.654,8.7264,8.7456,8.7137,8.7254,8.7291,8.7285,8.7254,8.7238,8.7251,8.7271,8.7149,8.6978,8.6925,8.6891,8.6925,8.6891,8.6908,8.6962,8.6869,8.6658,8.6301,8.6536,8.7027,8.774,8.7973,8.8391,8.8997,8.9253,8.929,8.929,8.94,9.0097,9.1363,9.1583,9.2244,9.3639,9.3859,9.4188,9.4676,9.4894,9.5179,9.5695,9.6037,9.6548,9.7,9.6126,9.5069,9.4524,9.4203,9.4146,9.4219,9.4746,9.513,9.5253,9.5326,9.5637,9.6304,9.6485,9.676,9.7499,9.739,9.7571,9.739,9.7427,9.7535,9.7644,9.7934,9.8151,9.826,9.8658,9.9056,9.8767,9.8368,9.8006,9.8078,9.7861,9.8296,9.8151,9.8375,9.8942,9.9353,9.976,10.0136,10.0482,10.0788,10.1025,10.1168,10.1525,10.206,10.2131,10.2499,10.3009,10.2863,10.244,10.1721,7.7056,7.7493,7.7718,7.8453,7.9511,8.0318,8.1163,8.2006,8.2526,8.3158,8.3827,8.3552,8.3789,8.4406,8.4406,8.5075,8.6301,8.6672,8.6988,8.7312,8.763,8.7665,8.7468,8.7464,8.7464,8.7398,8.7464,8.7464,8.7435,8.7318,8.7183,8.6995,8.6891,8.6891,8.696,8.6891,8.7111,8.7675,8.7729,8.7862,8.8104,8.7791,8.7973,8.8706,8.885,8.9033,8.9436,8.984,9.0317,9.0794,9.1308,9.2097,9.3198,9.3272,9.3565,9.4299,9.5217,9.6023,9.6736,9.723,9.7351,9.7044,9.7625,9.7988,9.7921,9.7325,9.6603,9.5923,9.5265,9.5072,9.5543,9.5905,9.6108,9.618,9.6521,9.6919,9.7245,9.7318,9.7463,9.7752,9.7789,9.7825,9.7861,9.8223,9.8477,9.8585,9.8875,9.931,9.9817,10.0215,10.0614,10.0976,10.0817,10.0433,10.0034,9.9926,10.007,10.0505,10.08,10.11,10.1167,10.1565,10.1964,10.2131,10.2221,10.2299,10.2452,10.2595,10.2881,10.2988,10.2998,10.328,10.2882,10.2701,10.2051,7.7387,7.756,7.7954,7.8934,8.0268,8.1215,8.2045,8.2697,8.3254,8.396,8.4666,8.474,8.4852,8.5053,8.5038,8.5855,8.7044,8.7155,8.7427,8.7874,8.7895,8.7778,8.7595,8.7665,8.7628,8.7595,8.7628,8.7595,8.7497,8.7301,8.7186,8.7083,8.7111,8.7221,8.7396,8.7404,8.7809,8.8445,8.8536,8.894,8.9546,8.9381,8.9381,8.9693,8.973,8.9913,9.0427,9.0996,9.1546,9.2134,9.2978,9.3675,9.4263,9.4483,9.4813,9.5327,9.6575,9.7713,9.8484,9.8888,9.9012,9.8727,9.9029,9.9043,9.8839,9.829,9.7807,9.7413,9.6614,9.6373,9.6506,9.6811,9.6919,9.6977,9.7499,9.7861,9.8078,9.8115,9.8223,9.8404,9.8585,9.8441,9.8549,9.8984,9.9382,9.9744,10.0179,10.0831,10.1519,10.17,10.1918,10.2483,10.2556,10.2302,10.1845,10.1592,10.2062,10.2316,10.2425,10.2402,10.2755,10.2953,10.3125,10.2884,10.3247,10.3359,10.3156,10.3309,10.3701,10.3701,10.3687,10.3438,10.2753,10.2597,10.2272,7.7326,7.7497,7.8499,8.0045,8.1843,8.1925,8.2868,8.4124,8.4257,8.4793,8.5483,8.5558,8.5966,8.6635,8.6672,8.7192,8.7973,8.8047,8.8084,8.8217,8.818,8.8027,8.7794,8.799,8.7974,8.7905,8.7958,8.7842,8.7514,8.72,8.7135,8.7344,8.7816,8.822,8.8451,8.8883,8.9272,8.9326,8.9363,8.973,9.0537,9.1253,9.1216,9.0702,9.0574,9.1289,9.2574,9.2905,9.2978,9.3015,9.3749,9.4226,9.4373,9.507,9.6098,9.7566,9.8447,9.9292,9.9916,9.9548,9.9675,10.0703,9.9786,9.9345,9.9689,9.902,9.8533,9.8603,9.8105,9.7652,9.6983,9.7412,9.7716,9.7752,9.7825,9.8223,9.8875,9.8948,9.931,9.9817,9.9962,9.9962,10.0034,10.0107,10.0541,10.1012,10.1316,10.1664,10.2338,10.2556,10.2628,10.2714,10.2773,10.2628,10.2592,10.2533,10.2556,10.2918,10.3149,10.2936,10.3068,10.3279,10.3473,10.3601,10.3759,10.3787,10.3655,10.3844,10.4379,10.4446,10.4293,10.3918,10.3313,10.2528,10.2333,7.7681,7.8355,7.9356,8.0578,8.1808,8.2327,8.3277,8.4369,8.4406,8.5149,8.6226,8.6375,8.6821,8.7638,8.8158,8.8567,8.888,8.8864,8.9124,8.957,8.9644,8.9612,8.949,8.9108,8.8848,8.8727,8.8313,8.7974,8.7697,8.7415,8.7643,8.8176,8.8336,8.8689,8.9185,8.9322,8.962,9.0097,9.0134,9.0555,9.1289,9.1657,9.1913,9.2207,9.2207,9.2207,9.2281,9.2244,9.2501,9.3088,9.3859,9.452,9.507,9.5841,9.7236,9.9071,9.8741,9.9145,10.065,10.0319,10.0062,10.054,9.9732,9.8998,9.8778,9.8406,9.8121,9.8027,9.8863,9.8912,9.8539,9.8491,9.8585,9.8622,9.902,9.9382,9.9672,9.9781,9.9889,10.0215,10.0614,10.0954,10.1048,10.141,10.1845,10.2099,10.2194,10.2497,10.3077,10.3294,10.3439,10.391,10.4054,10.4054,10.4054,10.3584,10.3402,10.3873,10.4176,10.4386,10.4561,10.4408,10.4562,10.4831,10.4771,10.4726,10.4736,10.4828,10.5292,10.524,10.506,10.4578,10.4234,10.3464,10.3266,7.8566,7.9369,8.0265,8.1207,8.2238,8.3031,8.3908,8.4778,8.509,8.5929,8.7044,8.723,8.7675,8.8455,8.905,8.9644,8.9979,8.983,8.9979,9.0462,9.0499,9.0499,9.0424,8.9942,8.9681,8.9554,8.8817,8.8313,8.8185,8.8002,8.8363,8.9122,8.9212,8.9531,9.0012,9.013,9.0482,9.0922,9.1253,9.1583,9.1877,9.2611,9.2978,9.3161,9.3602,9.3639,9.3015,9.3015,9.3235,9.3932,9.4887,9.5694,9.6282,9.7052,9.819,9.9585,9.9181,9.9475,10.1073,10.0723,10.0429,10.0613,9.9732,9.8888,9.8668,9.8668,9.853,9.8606,9.9403,10.0198,9.9957,9.9925,9.989,9.9622,9.9933,10.0179,10.0179,10.0179,10.0324,10.065,10.1338,10.1736,10.1845,10.2266,10.2628,10.2895,10.2954,10.328,10.3873,10.4127,10.4236,10.4779,10.4779,10.4743,10.467,10.4272,10.4091,10.4525,10.4719,10.5182,10.562,10.55,10.5616,10.5917,10.6037,10.593,10.5934,10.5979,10.5963,10.5937,10.5535,10.5065,10.4692,10.4415,10.4135,7.9967,8.0376,8.116,8.2066,8.3173,8.3945,8.4815,8.5632,8.6375,8.7081,8.7861,8.801,8.8381,8.9124,8.94,9.0164,9.1167,9.087,9.0685,9.0759,9.0722,9.0722,9.0722,9.0573,9.0387,9.0239,8.9431,8.8995,8.8921,8.8869,8.9213,8.9992,9.0465,9.0692,9.0913,9.1324,9.1693,9.195,9.2501,9.2611,9.2207,9.3969,9.4483,9.3602,9.4574,9.5345,9.5382,9.5308,9.5125,9.5474,9.6795,9.7787,9.7933,9.8447,9.9052,9.9402,9.9842,10.0576,10.1257,10.076,10.0613,10.1037,10.0026,9.9475,9.9879,10.0026,9.9986,10.0016,10.0575,10.1069,10.097,10.1417,10.1456,10.0695,10.0514,10.0513,10.0419,10.0288,10.0541,10.1338,10.2099,10.2556,10.2628,10.2809,10.3113,10.3547,10.3728,10.3946,10.4561,10.4706,10.4851,10.4887,10.4887,10.4887,10.4924,10.4887,10.4924,10.496,10.5045,10.5338,10.5933,10.61,10.626,10.6547,10.6604,10.6556,10.6754,10.6809,10.6626,10.652,10.5995,10.5626,10.5368,10.5055,10.4651,8.0236,8.0939,8.1336,8.2391,8.3773,8.425,8.5149,8.6412,8.6709,8.7304,8.8025,8.81,8.853,8.931,8.9867,9.0722,9.1688,9.2022,9.2208,9.2171,9.2171,9.2171,9.2059,9.1613,9.0759,8.9872,8.9839,8.9637,8.9352,8.9494,9.0113,9.0866,9.0959,9.1225,9.1686,9.1802,9.2024,9.2648,9.2978,9.3198,9.3492,9.4263,9.4666,9.4832,9.5254,9.5988,9.7016,9.5547,9.4997,9.5547,9.6502,9.7787,9.9035,9.8704,9.9071,10.0429,9.9879,10.0099,10.1164,10.0796,10.065,10.1127,10.0503,10.0099,10.0246,10.0319,10.0296,10.0232,10.0855,10.1495,10.1858,10.2088,10.2086,10.1393,10.1757,10.1945,10.1864,10.1862,10.1976,10.223,10.2895,10.3294,10.3475,10.3692,10.4127,10.4344,10.4489,10.467,10.4815,10.4887,10.4887,10.4887,10.4887,10.496,10.5105,10.5394,10.5648,10.5757,10.5842,10.5895,10.6402,10.6723,10.6917,10.7069,10.7124,10.7208,10.7467,10.7417,10.716,10.7017,10.6657,10.636,10.6152,10.5747,10.5306,8.1119,8.1781,8.2222,8.3257,8.4663,8.5082,8.5855,8.6784,8.7155,8.7617,8.81,8.8434,8.9013,8.9793,9.061,9.139,9.2171,9.2765,9.2988,9.2988,9.2988,9.2988,9.2876,9.2096,9.1279,9.0371,9.0312,9.0328,9.0223,9.051,9.1094,9.1744,9.1599,9.1646,9.2128,9.2243,9.2611,9.3125,9.3693,9.4116,9.4373,9.4887,9.5437,9.5914,9.6245,9.7052,9.8117,9.6832,9.6318,9.6795,9.7346,9.8227,9.9255,9.8741,9.9035,9.9989,9.9879,9.9805,10.1164,10.076,10.0466,10.089,10.087,10.0576,10.0466,10.0503,10.0753,10.1096,10.1596,10.2183,10.273,10.3264,10.3169,10.2797,10.2775,10.2869,10.2816,10.2936,10.2991,10.3149,10.3656,10.4054,10.4308,10.4489,10.4887,10.4887,10.4887,10.4887,10.4887,10.4887,10.4887,10.4887,10.4887,10.5069,10.5394,10.5829,10.6336,10.659,10.6807,10.692,10.7217,10.7334,10.7459,10.7626,10.7724,10.7593,10.7728,10.7498,10.7247,10.7207,10.7015,10.6597,10.6163,10.6205,10.5924,8.2433,8.2843,8.3619,8.4583,8.5676,8.6375,8.6747,8.7044,8.7675,8.8062,8.8233,8.8716,8.957,9.0462,9.1093,9.1873,9.2876,9.2951,9.2988,9.2988,9.2988,9.2988,9.2876,9.2245,9.1762,9.1428,9.1003,9.104,9.1428,9.1585,9.2056,9.2465,9.2296,9.2287,9.2313,9.2794,9.3125,9.3602,9.474,9.5034,9.4666,9.5951,9.6722,9.6795,9.7493,9.83,9.8961,9.8924,9.8924,9.9052,9.8851,9.8668,9.8337,9.8668,9.8961,9.9292,9.9125,9.9805,10.0816,10.0503,10.0319,10.0613,10.111,10.1274,10.098,10.1347,10.1788,10.2297,10.2428,10.2733,10.3379,10.4096,10.4467,10.4473,10.3787,10.326,10.2913,10.3448,10.3728,10.391,10.4417,10.4887,10.4779,10.4851,10.4887,10.4887,10.4887,10.4887,10.4887,10.4887,10.4887,10.4924,10.5032,10.5358,10.5757,10.6662,10.7169,10.7459,10.7689,10.7919,10.7913,10.7896,10.7814,10.8004,10.8091,10.7933,10.7782,10.7506,10.7234,10.6988,10.6738,10.6395,10.6282,10.6282,10.6282,8.3263,8.3693,8.4469,8.545,8.6434,8.6747,8.7192,8.7712,8.7988,8.81,8.8158,8.8307,8.931,9.0462,9.0759,9.1576,9.2691,9.2988,9.2988,9.2988,9.2988,9.2988,9.2988,9.2765,9.2319,9.1873,9.2022,9.2133,9.1783,9.2204,9.2461,9.2479,9.2396,9.2442,9.2813,9.3088,9.3786,9.4721,9.5217,9.5768,9.6208,9.6979,9.7566,9.764,9.8374,9.9145,9.9879,9.9989,9.9659,9.9125,9.9088,9.9035,9.8668,9.8411,9.8484,9.8961,9.9108,9.9235,9.9622,9.9622,9.9989,10.1053,10.1404,10.1898,10.2889,10.2558,10.2558,10.2595,10.2228,10.2171,10.286,10.3656,10.4323,10.5122,10.4792,10.4504,10.4486,10.4568,10.4598,10.4634,10.4779,10.4851,10.4887,10.4887,10.4887,10.4887,10.4887,10.496,10.5032,10.5069,10.5141,10.5213,10.5358,10.5733,10.63,10.7314,10.7966,10.8292,10.8606,10.898,10.8793,10.8504,10.8307,10.8169,10.8117,10.8012,10.772,10.7452,10.7152,10.6849,10.6571,10.631,10.6282,10.6282,10.6282,8.3544,8.4469,8.5281,8.6265,8.7288,8.7341,8.7638,8.8062,8.81,8.81,8.8248,8.8864,8.9644,9.0536,9.1242,9.2059,9.2914,9.2988,9.2988,9.2988,9.2988,9.2988,9.2914,9.2691,9.2542,9.2765,9.2542,9.2579,9.2695,9.2768,9.2818,9.2976,9.2731,9.2977,9.3713,9.4024,9.4501,9.5401,9.5804,9.6392,9.7199,9.7659,9.83,9.8741,9.9402,9.9879,10.0246,9.9989,9.9548,9.9108,9.8814,9.8447,9.8117,9.8007,9.8117,9.8594,9.8888,9.9255,9.9548,9.9622,10.0209,10.1294,10.1771,10.2228,10.2705,10.2705,10.2705,10.2632,10.2228,10.2448,10.3068,10.3745,10.4644,10.5618,10.5559,10.529,10.529,10.4989,10.4911,10.4887,10.4887,10.4887,10.4887,10.4887,10.4887,10.4887,10.4887,10.5141,10.5358,10.5394,10.5539,10.5793,10.6155,10.6626,10.7061,10.793,10.8485,10.8847,10.9016,10.9486,10.9129,10.8788,10.8507,10.8222,10.8143,10.7985,10.7693,10.7397,10.7117,10.6814,10.6507,10.6339,10.631,10.6282,10.6282,8.3534,8.5053,8.6041,8.7079,8.7994,8.8211,8.8158,8.8084,8.8233,8.8323,8.853,8.9756,9.0313,9.0722,9.1873,9.2839,9.2988,9.2988,9.2988,9.2988,9.2988,9.3062,9.3174,9.2728,9.2988,9.3657,9.2579,9.2951,9.3512,9.3213,9.3222,9.3529,9.3469,9.3878,9.4467,9.509,9.5474,9.5768,9.6282,9.6942,9.764,9.8043,9.8778,9.9842,10.0062,10.0062,9.9916,9.9438,9.8924,9.8941,9.8337,9.7823,9.7236,9.764,9.8043,9.8227,9.8814,9.9402,9.9989,10.0062,10.0576,10.1441,10.2228,10.2485,10.2301,10.2522,10.2705,10.2705,10.2632,10.2832,10.365,10.4347,10.511,10.5858,10.5625,10.538,10.5244,10.5062,10.4887,10.4887,10.4887,10.4887,10.4887,10.4887,10.4887,10.496,10.5069,10.5467,10.5829,10.6083,10.6385,10.682,10.7205,10.764,10.8075,10.8569,10.8932,10.9306,10.9294,10.94,10.8979,10.866,10.8429,10.8248,10.8143,10.7906,10.7586,10.7343,10.709,10.6759,10.6423,10.631,10.6282,10.6282,10.6282,8.3838,8.4539,8.6463,8.7561,8.818,8.8753,8.8678,8.8158,8.879,8.905,8.9161,8.9459,9.0313,9.1428,9.191,9.2319,9.2951,9.2988,9.2988,9.2988,9.2988,9.3397,9.3768,9.3619,9.3879,9.414,9.3917,9.3879,9.4052,9.3863,9.3618,9.3683,9.417,9.4577,9.5237,9.5456,9.5822,9.6355,9.6649,9.7163,9.797,9.8594,9.9292,10.0209,10.0246,9.9916,9.9328,9.8594,9.819,9.8264,9.8521,9.8374,9.786,9.8337,9.8741,9.8814,9.8961,9.9255,9.9475,10.0099,10.0686,10.1604,10.2301,10.2925,10.3366,10.2852,10.2742,10.2595,10.2191,10.2424,10.3583,10.4525,10.5189,10.5633,10.5633,10.5447,10.529,10.5062,10.4911,10.4887,10.4887,10.4887,10.4887,10.4887,10.4924,10.4996,10.5394,10.5829,10.6336,10.6771,10.7242,10.7749,10.8075,10.8401,10.8558,10.8896,10.9125,10.9341,10.9364,10.9253,10.8864,10.866,10.8481,10.83,10.8117,10.7853,10.7586,10.7343,10.709,10.6703,10.6367,10.631,10.6282,10.6282,10.6282,8.3592,8.4339,8.6565,8.7697,8.807,8.887,8.905,8.8864,8.9496,8.9867,8.9942,9.0202,9.0907,9.1725,9.2133,9.2616,9.2876,9.2988,9.2988,9.2988,9.3025,9.3434,9.4177,9.466,9.4883,9.5105,9.4474,9.4366,9.4433,9.4114,9.3848,9.4059,9.4651,9.5367,9.5951,9.6006,9.6282,9.6685,9.7089,9.764,9.8447,9.9255,9.9769,10.0062,9.9916,9.9365,9.8557,9.775,9.7419,9.7603,9.8411,9.8741,9.819,9.8668,9.9052,9.9125,9.9512,9.9879,10.0246,10.065,10.1404,10.2448,10.2742,10.2889,10.3182,10.2925,10.2522,10.2155,10.1898,10.2114,10.3567,10.442,10.5141,10.559,10.5603,10.5425,10.529,10.5062,10.4887,10.4887,10.4887,10.4887,10.4887,10.4887,10.525,10.5431,10.5684,10.6191,10.735,10.7821,10.8147,10.8582,10.8871,10.9089,10.9101,10.9246,10.9256,10.9266,10.9142,10.8979,10.866,10.8584,10.8558,10.8326,10.8091,10.7906,10.764,10.7362,10.709,10.6759,10.6507,10.6367,10.6282,10.6282,10.6282,8.3246,8.4165,8.6515,8.7632,8.7942,8.9008,8.9421,8.9384,9.0276,9.0685,9.0759,9.1428,9.1613,9.2059,9.2616,9.2951,9.2988,9.2988,9.2988,9.2988,9.3248,9.3768,9.4511,9.5254,9.596,9.6517,9.5254,9.4835,9.4924,9.4381,9.4259,9.4706,9.5348,9.597,9.6539,9.6685,9.6649,9.6795,9.7419,9.8154,9.8998,9.9769,10.0172,9.9879,9.9548,9.8668,9.786,9.7163,9.6832,9.6942,9.83,9.8668,9.8668,9.8998,9.9455,9.9585,10.0356,10.087,10.1237,10.1698,10.2432,10.3586,10.3109,10.2632,10.2558,10.2448,10.2155,10.1971,10.1861,10.2538,10.3708,10.4782,10.5366,10.5706,10.5537,10.5357,10.5281,10.5062,10.4911,10.4887,10.4887,10.4887,10.4887,10.4924,10.5431,10.5902,10.6155,10.6698,10.7857,10.8714,10.8944,10.9089,10.9306,10.9378,10.9427,10.9378,10.9425,10.919,10.9029,10.8752,10.8507,10.8403,10.8352,10.8248,10.8038,10.788,10.7667,10.7335,10.7062,10.6786,10.6563,10.6339,10.6282,10.6282,10.6282,8.3171,8.3952,8.6464,8.7649,8.8053,8.9565,8.9904,8.9607,9.087,9.1502,9.1539,9.165,9.2171,9.2616,9.2839,9.2988,9.2988,9.2988,9.2988,9.3136,9.3582,9.4325,9.5105,9.5886,9.6777,9.7037,9.6054,9.5506,9.5667,9.5195,9.4906,9.5534,9.612,9.6575,9.6649,9.6722,9.6759,9.6979,9.7603,9.8411,9.9218,9.9952,10.0026,9.9548,9.9198,9.8374,9.7273,9.6832,9.6979,9.7713,9.8594,9.9292,9.9769,10.0503,10.0907,10.1127,10.1641,10.1971,10.1918,10.2726,10.2669,10.2375,10.2338,10.2265,10.1934,10.1751,10.1751,10.2045,10.2669,10.3561,10.3646,10.5049,10.5711,10.5823,10.5603,10.5447,10.5267,10.5085,10.4887,10.4887,10.4887,10.4924,10.4924,10.5141,10.5684,10.6336,10.6843,10.7423,10.8364,10.9053,10.9451,10.956,10.9632,10.9632,10.9668,10.9584,10.951,10.9079,10.8853,10.866,10.8403,10.8222,10.8117,10.8117,10.7976,10.7818,10.7578,10.7281,10.6952,10.6591,10.6423,10.6282,10.6282,10.6282,10.6282,8.3078,8.3792,8.6312,8.7501,8.7977,8.9621,9.0233,9.0202,9.1613,9.2356,9.2356,9.2393,9.2579,9.2914,9.2988,9.2988,9.2988,9.2988,9.2988,9.3174,9.3805,9.4622,9.544,9.6257,9.7074,9.73,9.658,9.5941,9.6135,9.5696,9.5534,9.568,9.6356,9.6685,9.6722,9.6722,9.6942,9.7309,9.808,9.8888,9.9695,10.0503,10.0283,9.9438,9.8978,9.8264,9.7052,9.6722,9.7089,9.786,9.8668,9.9475,10.0283,10.1017,10.1698,10.2118,10.2522,10.2815,10.2595,10.3219,10.2815,10.2301,10.2191,10.1898,10.1624,10.1551,10.1661,10.2265,10.3036,10.4059,10.4431,10.5531,10.5866,10.5677,10.55,10.5357,10.5153,10.4993,10.4911,10.4887,10.4887,10.4924,10.4996,10.5358,10.5938,10.6626,10.7386,10.8147,10.8895,10.9306,10.9704,10.9704,10.9704,10.9704,10.968,10.9632,10.9449,10.9054,10.8777,10.8522,10.8326,10.8169,10.8117,10.8091,10.795,10.7791,10.7497,10.7199,10.6814,10.6451,10.6367,10.6282,10.6282,10.6282,10.6282,8.3274,8.3846,8.6285,8.7385,8.7772,8.9506,9.0247,9.0583,9.2154,9.2786,9.2715,9.286,9.2951,9.2988,9.2988,9.2988,9.2988,9.2988,9.2988,9.3211,9.4065,9.4845,9.5477,9.6406,9.7297,9.7652,9.7123,9.6485,9.6398,9.6012,9.5866,9.6028,9.6465,9.6722,9.6722,9.6722,9.7199,9.7897,9.8704,9.9548,10.0466,10.1053,10.0723,9.9292,9.9088,9.8318,9.6906,9.6979,9.7456,9.819,9.8961,9.9732,10.0503,10.131,10.2118,10.2779,10.2925,10.3256,10.3293,10.3366,10.2925,10.2228,10.1788,10.1587,10.1514,10.1587,10.1824,10.2632,10.3439,10.4169,10.4798,10.5635,10.5881,10.5633,10.547,10.529,10.5108,10.4993,10.4887,10.4887,10.4887,10.4924,10.4996,10.5213,10.5697,10.6675,10.7495,10.8328,10.9016,10.9415,10.9704,10.9704,10.9704,10.9704,10.968,10.9583,10.9387,10.9004,10.8777,10.8573,10.8352,10.8117,10.8064,10.8012,10.7959,10.7773,10.7416,10.709,10.6759,10.6479,10.6339,10.6282,10.6282,10.6282,10.6282,8.4066,8.4626,8.6524,8.7385,8.7772,8.949,8.9868,8.9621,9.194,9.246,9.1973,9.2625,9.2988,9.2988,9.2988,9.2988,9.2988,9.2988,9.3062,9.3322,9.4474,9.5254,9.5663,9.7074,9.754,9.7802,9.7496,9.7373,9.6952,9.6216,9.616,9.6467,9.6539,9.6722,9.6722,9.6832,9.7126,9.7933,9.8741,9.9879,10.1053,10.1404,10.0576,9.9548,9.8978,9.8374,9.7052,9.7163,9.7897,9.8814,9.9659,10.0466,10.133,10.2118,10.2925,10.3513,10.3696,10.3513,10.3182,10.3256,10.2925,10.2101,10.1587,10.1514,10.1514,10.1551,10.1824,10.2632,10.3439,10.4258,10.5054,10.5772,10.5909,10.5802,10.5537,10.5402,10.5222,10.497,10.4887,10.4887,10.4887,10.4887,10.4924,10.5141,10.548,10.6566,10.7544,10.8437,10.9125,10.9451,10.9704,10.9704,10.9704,10.9704,10.9704,10.9607,10.9338,10.8954,10.8802,10.8625,10.8326,10.8064,10.7933,10.788,10.7836,10.7675,10.7253,10.6925,10.6675,10.6479,10.6339,10.6282,10.6282,10.6282,10.6282,8.4607,8.4752,8.6439,8.7217,8.7606,8.9257,8.9821,9.0069,9.1828,9.2582,9.2327,9.272,9.2988,9.2988,9.2988,9.2988,9.2988,9.2988,9.3285,9.3768,9.4808,9.5626,9.6294,9.7243,9.782,9.768,9.752,9.7266,9.7009,9.6787,9.6637,9.665,9.6722,9.6722,9.6759,9.7163,9.7823,9.8704,9.9769,10.078,10.133,10.1404,10.0723,9.9218,9.9088,9.819,9.7236,9.6942,9.7897,9.8814,9.9548,10.0503,10.1751,10.2595,10.3182,10.443,10.41,10.3733,10.3476,10.3329,10.2595,10.1918,10.1514,10.1514,10.1514,10.1551,10.2045,10.3293,10.366,10.4405,10.5326,10.5949,10.5881,10.5736,10.5514,10.5312,10.5176,10.5062,10.4887,10.4887,10.4887,10.4887,10.496,10.5286,10.5625,10.6421,10.7459,10.8364,10.8944,10.9342,10.956,10.9704,10.9704,10.9704,10.9704,10.9656,10.9387,10.9054,10.8903,10.865,10.83,10.8038,10.7906,10.772,10.7559,10.7343,10.7035,10.6842,10.6619,10.6451,10.6282,10.6282,10.6282,10.6282,10.6112,8.4907,8.4817,8.6316,8.71,8.7384,8.8981,8.9489,8.9515,9.1747,9.2411,9.2209,9.2512,9.2872,9.2922,9.2922,9.2938,9.2988,9.2988,9.3508,9.4214,9.5031,9.5811,9.6554,9.7391,9.7805,9.7591,9.7412,9.7211,9.7063,9.6896,9.6745,9.6722,9.6722,9.6722,9.6869,9.7199,9.786,9.9071,10.054,10.133,10.1477,10.1257,10.0393,9.9475,9.8778,9.8154,9.6979,9.7309,9.819,9.8814,10.0006,10.1237,10.2375,10.3219,10.3917,10.4651,10.432,10.388,10.3586,10.3219,10.2375,10.1808,10.1514,10.1514,10.1514,10.1551,10.2175,10.366,10.3806,10.474,10.5757,10.6084,10.5867,10.5625,10.5402,10.5176,10.4993,10.4911,10.4887,10.4887,10.4887,10.4887,10.5069,10.5431,10.5902,10.6481,10.7314,10.8256,10.8871,10.9378,10.9523,10.9704,10.9704,10.9704,10.9704,10.9632,10.9363,10.914,10.8954,10.865,10.8274,10.8038,10.7906,10.7667,10.7397,10.7035,10.6759,10.6675,10.6591,10.6458,10.6282,10.6282,10.6282,10.6282,10.594,8.4976,8.49,8.6411,8.7014,8.7139,8.8929,8.8831,8.8129,9.1236,9.1646,9.0792,9.1634,9.2616,9.2684,9.2805,9.2872,9.2988,9.2988,9.3619,9.4325,9.5031,9.596,9.6777,9.7466,9.7787,9.7593,9.7376,9.7193,9.6989,9.6819,9.6743,9.6722,9.6722,9.6722,9.6869,9.7199,9.8154,9.9402,10.0853,10.1367,10.12,10.0796,9.9952,9.9108,9.8337,9.7603,9.6832,9.775,9.8668,9.9088,10.0613,10.2008,10.2852,10.3953,10.4777,10.5018,10.4394,10.3953,10.3696,10.3036,10.2301,10.1751,10.1514,10.1514,10.1514,10.1514,10.2301,10.366,10.3949,10.4672,10.5556,10.5954,10.5692,10.5492,10.5267,10.513,10.4957,10.4911,10.4887,10.4887,10.4887,10.4887,10.4887,10.5213,10.5829,10.6372,10.7386,10.8328,10.9089,10.9596,10.9632,10.9704,10.9704,10.9704,10.9704,10.9583,10.9376,10.9129,10.8929,10.8573,10.8222,10.8038,10.7933,10.7559,10.7226,10.6842,10.6535,10.6479,10.6423,10.6339,10.6282,10.6282,10.6282,10.6282,10.5703,8.4747,8.5179,8.659,8.7065,8.6912,8.8204,8.8438,8.8326,9.0502,9.1619,9.1346,9.22,9.2547,9.2582,9.2822,9.2855,9.2929,9.3512,9.416,9.4994,9.5774,9.6591,9.7297,9.758,9.7752,9.7503,9.7303,9.7101,9.6837,9.6724,9.6741,9.6722,9.6722,9.6722,9.6869,9.764,9.8961,10.0136,10.1,10.1294,10.0723,10.0466,9.9659,9.8411,9.8154,9.7493,9.6942,9.7273,9.8117,9.9255,10.0613,10.1971,10.3366,10.4556,10.5327,10.5568,10.4614,10.399,10.3623,10.2779,10.1824,10.1661,10.1514,10.1514,10.1551,10.1898,10.2669,10.3582,10.4232,10.4912,10.569,10.5758,10.5447,10.529,10.5153,10.5003,10.4934,10.4887,10.4887,10.4887,10.4887,10.4887,10.4887,10.4924,10.5612,10.6336,10.735,10.8364,10.9161,10.9704,10.9704,10.9704,10.9704,10.968,10.9656,10.9547,10.9474,10.9178,10.8853,10.8548,10.8248,10.8117,10.7959,10.7497,10.7144,10.687,10.6619,10.6395,10.6282,10.6282,10.6282,10.6282,10.6282,10.6282,10.5738,8.4998,8.5515,8.6818,8.7085,8.679,8.8027,8.828,8.8241,9.0033,9.1425,9.2303,9.2427,9.2461,9.2479,9.2582,9.2822,9.299,9.3668,9.4535,9.5349,9.6146,9.7074,9.7614,9.7805,9.7646,9.7339,9.7193,9.7007,9.676,9.6741,9.6722,9.6722,9.6722,9.6722,9.7089,9.83,9.9805,10.0796,10.111,10.0943,10.0356,9.9695,9.9218,9.7953,9.7676,9.7273,9.6942,9.7236,9.8154,9.9402,10.0796,10.2228,10.3733,10.5018,10.5715,10.5605,10.4981,10.3953,10.3513,10.2522,10.1551,10.1514,10.1514,10.1514,10.1698,10.2228,10.2978,10.3661,10.4378,10.5076,10.5721,10.5514,10.5267,10.513,10.5062,10.4911,10.4911,10.4887,10.4887,10.4887,10.4887,10.4924,10.5069,10.5177,10.5902,10.6807,10.8075,10.8871,10.9342,10.9704,10.9704,10.9704,10.9704,10.9656,10.9607,10.9583,10.9486,10.8954,10.8676,10.8548,10.8326,10.8195,10.7985,10.7613,10.7289,10.6952,10.6703,10.6451,10.6339,10.6282,10.6282,10.6282,10.6282,10.6254,10.5975,8.5795,8.5851,8.7053,8.714,8.6702,8.8506,8.8428,8.7657,8.976,9.1337,9.2055,9.2002,9.2091,9.2322,9.2375,9.2565,9.3011,9.3678,9.4545,9.5389,9.6389,9.7149,9.7542,9.7734,9.7538,9.7303,9.7138,9.6932,9.6722,9.6906,9.6832,9.6906,9.7052,9.7052,9.6942,9.8337,9.9512,10.0209,10.0393,10.0319,9.9769,9.8814,9.821,9.7676,9.7199,9.6832,9.6869,9.7163,9.8227,9.9879,10.131,10.2925,10.4667,10.5715,10.6192,10.6082,10.4798,10.4027,10.3733,10.2322,10.1661,10.1514,10.1514,10.1551,10.1698,10.2244,10.308,10.385,10.436,10.4874,10.5186,10.5267,10.513,10.5039,10.4911,10.4887,10.4887,10.4887,10.4887,10.4887,10.4887,10.496,10.5213,10.5539,10.6264,10.7314,10.8727,10.9378,10.9487,10.9704,10.9704,10.9704,10.9704,10.9583,10.9534,10.9607,10.9461,10.8914,10.8548,10.8455,10.8326,10.8169,10.7933,10.7675,10.737,10.7035,10.6759,10.6543,10.6395,10.6282,10.6282,10.6282,10.6282,10.6225,10.5997,8.5207,8.507,8.6991,8.7398,8.6935,8.7358,8.7483,8.7795,8.964,9.1159,9.1838,9.2074,9.2056,9.2145,9.2444,9.2602,9.2737,9.4373,9.524,9.5361,9.6688,9.7446,9.7765,9.7662,9.7484,9.7285,9.7101,9.6876,9.6722,9.7126,9.7419,9.753,9.7823,9.83,9.8557,9.9365,10.0099,10.0283,10.0209,9.9842,9.8778,9.8154,9.764,9.7163,9.6832,9.6722,9.6722,9.7126,9.8337,10.0172,10.1641,10.3036,10.485,10.5972,10.6082,10.5752,10.4687,10.4173,10.3293,10.2081,10.1551,10.1514,10.1587,10.1808,10.2228,10.2342,10.3154,10.3921,10.4254,10.4727,10.5094,10.5094,10.4957,10.4934,10.4887,10.4887,10.4887,10.4887,10.4887,10.4887,10.4887,10.4887,10.5069,10.5322,10.601,10.6662,10.7821,10.8618,10.8871,10.9451,10.9704,10.9704,10.968,10.9534,10.9486,10.951,10.9289,10.8762,10.8507,10.8403,10.8274,10.8117,10.7959,10.7782,10.7452,10.7117,10.6814,10.6563,10.6395,10.6282,10.6282,10.6282,10.6282,10.6282,10.6225,8.5249,8.536,8.7121,8.7483,8.688,8.7031,8.7503,8.8435,8.9897,9.1069,9.1711,9.2074,9.2109,9.2091,9.2322,9.2909,9.2857,9.4338,9.5669,9.5734,9.7117,9.7743,9.7785,9.7646,9.7412,9.723,9.7026,9.68,9.6759,9.7512,9.7806,9.8007,9.8668,9.8631,9.8888,9.9255,9.9769,9.9695,9.9475,9.8944,9.8173,9.7622,9.7199,9.6906,9.6722,9.6722,9.6795,9.7273,9.819,10.0136,10.1677,10.3036,10.4908,10.5899,10.5935,10.5364,10.4373,10.366,10.2448,10.1833,10.1413,10.1494,10.1714,10.2155,10.2628,10.2814,10.3232,10.3808,10.4072,10.4331,10.4609,10.4607,10.4911,10.4887,10.4887,10.4887,10.4887,10.4887,10.4887,10.4887,10.4887,10.4887,10.4924,10.5177,10.5612,10.6191,10.6807,10.7531,10.8352,10.9053,10.9632,10.9704,10.968,10.9534,10.9437,10.9363,10.9065,10.8584,10.8429,10.8352,10.8248,10.8091,10.7959,10.7862,10.7622,10.7316,10.6932,10.6619,10.6507,10.6367,10.6282,10.6282,10.6282,10.6282,10.6282,8.5949,8.6461,8.7472,8.7289,8.664,8.752,8.8526,8.9474,9.0317,9.1106,9.1822,9.1858,9.193,9.202,9.1966,9.2585,9.3694,9.4564,9.5499,9.6451,9.7411,9.7726,9.7752,9.7539,9.7321,9.7138,9.6951,9.678,9.6795,9.7512,9.7879,9.8154,9.8778,9.8557,9.8411,9.8594,9.8998,9.8924,9.8594,9.8173,9.7622,9.7163,9.6906,9.6722,9.6722,9.6722,9.6869,9.7309,9.8888,10.0596,10.2081,10.3953,10.5422,10.6339,10.5825,10.496,10.3676,10.2522,10.1988,10.1588,10.1389,10.1527,10.213,10.2518,10.2713,10.2877,10.3142,10.3386,10.3597,10.3724,10.3847,10.4367,10.4887,10.4887,10.4887,10.4887,10.4887,10.4887,10.4887,10.4887,10.4887,10.4887,10.4887,10.5105,10.5286,10.5576,10.6155,10.6843,10.7712,10.8823,10.9342,10.9704,10.9656,10.9559,10.9437,10.9203,10.8914,10.8429,10.8403,10.8326,10.8195,10.8091,10.8038,10.7968,10.7809,10.7541,10.7098,10.6814,10.6703,10.6591,10.6535,10.6367,10.6367,10.631,10.6282,8.5627,8.567,8.6643,8.6784,8.6685,8.8247,8.9456,9.0318,9.1106,9.162,9.1822,9.1966,9.1948,9.1912,9.2287,9.2874,9.3718,9.4689,9.5625,9.6545,9.7414,9.7639,9.7627,9.743,9.723,9.7045,9.6857,9.6759,9.6942,9.7549,9.8337,9.8778,9.8851,9.8264,9.7787,9.786,9.8117,9.819,9.7897,9.7566,9.7236,9.6869,9.6722,9.6722,9.6722,9.6722,9.6832,9.7089,9.8594,10.0356,10.1384,10.3036,10.5201,10.5972,10.6009,10.496,10.3366,10.1898,10.2114,10.1621,10.125,10.1499,10.1998,10.2265,10.2464,10.2526,10.2679,10.2885,10.2992,10.3045,10.3534,10.415,10.467,10.4887,10.4887,10.4887,10.4887,10.4887,10.4887,10.4887,10.4887,10.4887,10.4887,10.4924,10.5105,10.5177,10.5539,10.6227,10.7061,10.8147,10.898,10.9342,10.9475,10.933,10.9192,10.9004,10.8686,10.8378,10.8326,10.8274,10.8169,10.8091,10.8091,10.8012,10.7915,10.7586,10.7207,10.707,10.7015,10.7007,10.6952,10.6675,10.6451,10.6423,10.6367,8.5233,8.5307,8.6184,8.6849,8.7472,8.8306,8.9439,9.0777,9.151,9.1803,9.1822,9.193,9.193,9.1876,9.2164,9.2712,9.3489,9.4478,9.5485,9.6476,9.7272,9.7551,9.7556,9.7339,9.7193,9.6989,9.6893,9.6906,9.7236,9.7933,9.8741,9.8961,9.8888,9.786,9.7236,9.7199,9.7383,9.7419,9.7309,9.7089,9.6906,9.6722,9.6722,9.6722,9.6722,9.6722,9.6832,9.7052,9.8594,10.0246,10.1237,10.2705,10.4357,10.4871,10.4798,10.3749,10.2669,10.18,10.1755,10.1403,10.1282,10.1392,10.1675,10.1794,10.1824,10.1876,10.2105,10.2317,10.2278,10.2425,10.3185,10.391,10.4417,10.4851,10.4887,10.4887,10.4887,10.4887,10.4887,10.4887,10.4887,10.4887,10.4887,10.4887,10.4924,10.4996,10.5213,10.5684,10.6445,10.735,10.8256,10.8871,10.9041,10.9077,10.8915,10.8831,10.8614,10.8368,10.8248,10.8169,10.8117,10.8091,10.8091,10.8038,10.7959,10.7693,10.7452,10.7397,10.737,10.737,10.7281,10.7035,10.6786,10.6647,10.6591,8.4763,8.5254,8.6009,8.7124,8.8491,8.7976,8.8998,9.1097,9.1546,9.1785,9.1803,9.1822,9.1822,9.184,9.2003,9.2699,9.3546,9.45,9.5397,9.6333,9.6873,9.7188,9.7207,9.7229,9.6879,9.6822,9.6929,9.7016,9.7823,9.8337,9.8594,9.8961,9.8154,9.7346,9.6869,9.6795,9.6942,9.6942,9.6906,9.6795,9.6759,9.6722,9.6722,9.6722,9.6722,9.6759,9.7089,9.8007,9.9402,10.0429,10.1604,10.2815,10.3476,10.3439,10.3072,10.2628,10.1967,10.1609,10.1371,10.1054,10.1017,10.1137,10.1368,10.1268,10.121,10.1538,10.1866,10.1662,10.155,10.2085,10.2823,10.3584,10.4163,10.467,10.4887,10.4887,10.4887,10.4887,10.4887,10.4887,10.4887,10.4887,10.4887,10.4887,10.4887,10.4924,10.5032,10.5358,10.5757,10.659,10.735,10.8183,10.8377,10.8498,10.8662,10.8544,10.8557,10.8399,10.8176,10.8143,10.8117,10.8091,10.8091,10.8064,10.8012,10.7933,10.7773,10.772,10.764,10.7524,10.7443,10.7335,10.7172,10.7007,10.6759,8.4497,8.5199,8.5414,8.6405,8.7792,8.7684,8.8958,9.1151,9.1301,9.1527,9.1767,9.1803,9.1803,9.1822,9.193,9.27,9.3988,9.43,9.5344,9.5823,9.6324,9.6435,9.6362,9.6271,9.6305,9.6634,9.6851,9.7236,9.7804,9.8134,9.819,9.8117,9.7456,9.6906,9.6759,9.6722,9.6722,9.6722,9.6722,9.6722,9.6722,9.6722,9.6722,9.6722,9.6722,9.6722,9.7052,9.7676,9.8594,9.9475,10.0943,10.2375,10.3733,10.3072,10.2742,10.2538,10.1792,10.136,10.1085,10.0855,10.0749,10.0707,10.076,10.0638,10.0798,10.1364,10.1466,10.1095,10.1115,10.1759,10.2388,10.3149,10.3873,10.438,10.4851,10.4851,10.4851,10.4887,10.4887,10.4887,10.4887,10.4887,10.4887,10.4887,10.4887,10.4887,10.4887,10.5032,10.5069,10.5612,10.6313,10.7061,10.7495,10.7714,10.8025,10.8112,10.8019,10.8097,10.7955,10.7974,10.8055,10.8091,10.8091,10.8091,10.8064,10.8012,10.7985,10.8012,10.7933,10.7764,10.7711,10.7658,10.7578,10.7443,10.709,8.4165,8.4692,8.5197,8.6373,8.7628,8.7807,8.9003,9.0693,9.0936,9.1263,9.1767,9.1803,9.1803,9.1803,9.193,9.2646,9.386,9.397,9.4557,9.5127,9.5387,9.5589,9.5515,9.5476,9.6099,9.65,9.7474,9.7987,9.7799,9.8261,9.8391,9.7745,9.7068,9.6722,9.6722,9.6722,9.6722,9.6722,9.6722,9.6722,9.6722,9.6722,9.6722,9.6722,9.6722,9.6722,9.7126,9.7676,9.8557,9.9402,10.0686,10.1604,10.2485,10.2301,10.2155,10.1984,10.1568,10.1126,10.096,10.0749,10.0535,10.0514,10.042,10.0369,10.05,10.0957,10.0863,10.0491,10.0527,10.1085,10.1664,10.2352,10.3185,10.3801,10.4163,10.4344,10.4634,10.4887,10.4887,10.4887,10.4887,10.4887,10.4887,10.4887,10.4887,10.4887,10.4887,10.4887,10.4887,10.4887,10.5539,10.6023,10.6494,10.7184,10.7757,10.7606,10.7276,10.7401,10.7582,10.777,10.7841,10.7984,10.8091,10.8091,10.8091,10.8091,10.8091,10.8091,10.8091,10.7985,10.8012,10.8038,10.7933,10.78,10.7479,8.3911,8.4138,8.5243,8.6587,8.7964,8.8157,8.9091,9.0469,9.0661,9.113,9.1749,9.1803,9.1803,9.1803,9.184,9.2501,9.307,9.3401,9.3934,9.4338,9.4227,9.4613,9.4961,9.5121,9.563,9.6621,9.7743,9.7684,9.7329,9.7977,9.8126,9.7535,9.71,9.6722,9.6722,9.6722,9.6722,9.6722,9.6722,9.6722,9.6722,9.6722,9.6722,9.6722,9.6722,9.6722,9.7199,9.8007,9.8905,9.9732,10.054,10.1367,10.1734,10.1751,10.1637,10.1503,10.1319,10.1002,10.0791,10.0557,10.0471,10.042,10.0281,10.0281,10.0377,10.0391,10.0296,10.0252,10.0252,10.0541,10.1121,10.1605,10.2461,10.3258,10.3584,10.4018,10.4489,10.4851,10.4887,10.4887,10.4887,10.4887,10.4887,10.4887,10.4887,10.4887,10.4887,10.4887,10.4887,10.4887,10.5177,10.5431,10.572,10.6462,10.7119,10.6934,10.6475,10.6635,10.6806,10.727,10.7591,10.7591,10.777,10.8091,10.8091,10.8055,10.8091,10.8091,10.8091,10.8091,10.8091,10.8091,10.8038,10.788,10.772,8.3803,8.4608,8.5372,8.6574,8.7828,8.844,8.943,9.0545,9.0956,9.1377,9.1712,9.1803,9.1803,9.1803,9.1803,9.2464,9.3639,9.3382,9.3676,9.4338,9.3342,9.369,9.4276,9.4687,9.4929,9.6031,9.7213,9.7236,9.7083,9.7565,9.7554,9.69,9.6902,9.6703,9.6685,9.6685,9.6722,9.6722,9.6722,9.6722,9.6722,9.6722,9.6722,9.6722,9.6722,9.6722,9.7126,9.83,9.8868,9.9585,10.0503,10.12,10.1514,10.1494,10.1433,10.127,10.1085,10.0855,10.0621,10.0442,10.0333,10.0289,10.0215,10.0215,10.0267,10.0245,10.0215,10.0215,10.0324,10.0577,10.1048,10.1229,10.1845,10.2678,10.3221,10.3946,10.4561,10.4779,10.4887,10.4887,10.4887,10.4887,10.4887,10.4887,10.4887,10.4887,10.4887,10.4887,10.4887,10.4887,10.4887,10.4996,10.5141,10.5234,10.5668,10.5858,10.5638,10.5776,10.6031,10.6449,10.677,10.702,10.727,10.7663,10.7912,10.801,10.8019,10.8091,10.8091,10.8091,10.8091,10.8091,10.8038,10.7906,10.7693]}]]